[[{"header":{"parameterUnit":"m.s-1","parameterCategory":1,"la1":30.6,"la2":29.2853,"lo1":-89.7004,"lo2":-87.6739,"dy":0.0162,"dx":0.0183,"nx":112,"ny":82,"refTime":"2024-08-04T12:00:00:Z","depth":0,"parameterNumber":2,"parameterNumberName":"U-component_of_WINDS"},"data":[0.0,0.0,0.0,0.0,0.0,0.0,0.0,0.0,0.0,0.0,0.0,0.0,0.0,0.0,0.0,0.0,0.0,0.0,0.0,0.0,0.0,0.0,0.0,0.0,0.0,0.0,0.0,0.0,0.0,0.0,0.0,0.0,0.0,0.0,0.0,0.0,0.0,0.0,0.0,0.0,0.0,0.0,0.0,0.0,0.0,0.0,0.0,0.0,0.0,0.0,0.0,0.0,0.0,0.0,0.0,0.0,0.0,0.0,0.0,0.0,0.0,0.0,0.0,0.0,0.0,0.0,0.0,0.0,0.0,0.0,0.0,0.0,0.0,0.0,0.0,0.0,0.0,0.0,0.0,0.0,0.0,0.0,0.0,0.0,0.0,0.0,0.0,0.0,0.0,0.0,3.1793,3.4117,3.8128,4.0789,4.1094,4.0507,3.8098,3.3515,0.0,0.0,0.0,0.0,0.0,0.0,0.0,0.0,0.0,0.0,0.0,0.0,0.0,0.0,0.0,0.0,0.0,0.0,0.0,0.0,0.0,0.0,0.0,0.0,0.0,0.0,0.0,0.0,0.0,0.0,0.0,0.0,0.0,0.0,0.0,0.0,0.0,0.0,0.0,0.0,0.0,0.0,0.0,0.0,0.0,0.0,0.0,0.0,0.0,0.0,0.0,0.0,0.0,0.0,0.0,0.0,0.0,0.0,0.0,0.0,0.0,0.0,0.0,0.0,0.0,0.0,0.0,0.0,0.0,0.0,0.0,0.0,0.0,0.0,0.0,0.0,0.0,0.0,0.0,0.0,0.0,0.0,0.0,0.0,0.0,0.0,0.0,0.0,0.0,0.0,0.0,0.0,0.0,0.0,0.0,0.0,0.0,0.0,0.0,0.0,0.0,0.0,0.0,0.0,3.1951,3.7725,3.9651,4.0534,4.0485,3.9281,3.6921,3.3119,0.0,0.0,0.0,0.0,0.0,0.0,0.0,0.0,0.0,0.0,0.0,0.0,0.0,0.0,0.0,0.0,0.0,0.0,0.0,0.0,0.0,0.0,0.0,0.0,0.0,0.0,0.0,0.0,0.0,0.0,0.0,0.0,0.0,0.0,0.0,0.0,0.0,0.0,0.0,0.0,0.0,0.0,0.0,0.0,0.0,0.0,0.0,0.0,0.0,0.0,0.0,0.0,0.0,0.0,0.0,0.0,0.0,0.0,0.0,0.0,0.0,0.0,0.0,0.0,0.0,0.0,0.0,0.0,0.0,0.0,0.0,0.0,0.0,0.0,0.0,0.0,0.0,0.0,0.0,0.0,0.0,0.0,0.0,0.0,0.0,0.0,0.0,0.0,0.0,0.0,0.0,0.0,0.0,0.0,0.0,0.0,0.0,0.0,0.0,0.0,0.0,0.0,0.0,3.0775,3.3439,3.9088,4.0084,4.0337,4.0288,3.899,3.6503,3.2536,3.0658,0.0,0.0,0.0,0.0,0.0,0.0,0.0,0.0,0.0,0.0,0.0,0.0,0.0,0.0,0.0,0.0,0.0,0.0,0.0,0.0,0.0,0.0,0.0,0.0,0.0,0.0,0.0,0.0,0.0,0.0,0.0,0.0,0.0,0.0,0.0,0.0,0.0,0.0,0.0,0.0,0.0,0.0,0.0,0.0,0.0,0.0,0.0,0.0,0.0,0.0,0.0,0.0,0.0,0.0,0.0,0.0,0.0,0.0,0.0,0.0,0.0,0.0,0.0,0.0,0.0,0.0,0.0,0.0,0.0,0.0,0.0,0.0,0.0,0.0,0.0,0.0,0.0,0.0,0.0,0.0,0.0,0.0,0.0,0.0,0.0,0.0,0.0,0.0,0.0,0.0,0.0,0.0,0.0,0.0,0.0,0.0,0.0,0.0,0.0,0.0,0.0,0.0,3.3483,3.5492,3.9681,4.0138,4.0188,4.0238,3.8465,3.5701,3.1898,2.9137,0.0,0.0,0.0,0.0,0.0,0.0,0.0,0.0,0.0,0.0,0.0,0.0,0.0,0.0,0.0,0.0,0.0,0.0,0.0,0.0,0.0,0.0,0.0,0.0,0.0,0.0,0.0,0.0,0.0,0.0,0.0,0.0,0.0,0.0,0.0,0.0,0.0,0.0,0.0,0.0,0.0,0.0,0.0,0.0,0.0,0.0,0.0,0.0,0.0,0.0,0.0,0.0,0.0,0.0,0.0,0.0,0.0,0.0,0.0,0.0,0.0,0.0,0.0,0.0,0.0,0.0,0.0,0.0,0.0,0.0,0.0,0.0,0.0,0.0,0.0,0.0,0.0,0.0,0.0,0.0,0.0,0.0,0.0,0.0,0.0,0.0,0.0,0.0,0.0,0.0,0.0,0.0,0.0,0.0,0.0,0.0,0.0,0.0,0.0,0.0,0.0,0.0,3.4346,3.8082,3.9884,3.9986,3.9986,4.0087,3.6818,3.3694,3.1108,2.7289,0.0,0.0,0.0,0.0,0.0,0.0,0.0,0.0,0.0,0.0,0.0,0.0,0.0,0.0,0.0,0.0,0.0,0.0,0.0,0.0,0.0,0.0,0.0,0.0,0.0,0.0,0.0,0.0,0.0,0.0,0.0,0.0,0.0,0.0,0.0,0.0,0.0,0.0,0.0,0.0,0.0,0.0,0.0,0.0,0.0,0.0,0.0,0.0,0.0,0.0,0.0,0.0,0.0,0.0,0.0,0.0,0.0,0.0,0.0,0.0,0.0,0.0,0.0,0.0,0.0,0.0,0.0,0.0,0.0,0.0,0.0,0.0,0.0,0.0,0.0,0.0,0.0,0.0,0.0,0.0,0.0,0.0,0.0,0.0,0.0,0.0,0.0,0.0,0.0,0.0,0.0,0.0,0.0,0.0,0.0,0.0,0.0,0.0,0.0,0.0,0.0,0.0,3.2555,3.5993,3.9581,3.9454,3.9401,3.9935,3.786,3.4697,3.051,0.0,0.0,0.0,0.0,0.0,0.0,0.0,0.0,0.0,0.0,0.0,0.0,0.0,0.0,0.0,0.0,0.0,0.0,0.0,0.0,0.0,0.0,0.0,0.0,0.0,0.0,0.0,0.0,0.0,0.0,0.0,0.0,0.0,0.0,0.0,0.0,0.0,0.0,0.0,0.0,0.0,0.0,0.0,0.0,0.0,0.0,0.0,0.0,0.0,0.0,0.0,0.0,0.0,0.0,0.0,0.0,0.0,0.0,0.0,0.0,0.0,0.0,0.0,0.0,0.0,0.0,0.0,0.0,0.0,0.0,0.0,0.0,0.0,0.0,0.0,0.0,0.0,0.0,0.0,0.0,0.0,0.0,0.0,0.0,0.0,0.0,0.0,0.0,0.0,0.0,0.0,0.0,0.0,0.0,0.0,0.0,0.0,0.0,0.0,0.0,0.0,0.0,2.878,3.1806,3.504,3.8838,3.8723,3.8613,3.9189,3.7186,3.406,2.9688,0.0,0.0,0.0,0.0,0.0,0.0,0.0,0.0,0.0,0.0,0.0,0.0,0.0,0.0,0.0,0.0,0.0,0.0,0.0,0.0,0.0,0.0,0.0,0.0,0.0,0.0,0.0,0.0,0.0,0.0,0.0,0.0,0.0,0.0,0.0,0.0,0.0,0.0,0.0,0.0,0.0,0.0,0.0,0.0,0.0,0.0,0.0,0.0,0.0,0.0,0.0,0.0,0.0,0.0,0.0,0.0,0.0,0.0,0.0,0.0,0.0,0.0,0.0,0.0,0.0,0.0,0.0,0.0,0.0,0.0,0.0,0.0,0.0,0.0,0.0,0.0,0.0,0.0,0.0,0.0,0.0,0.0,0.0,0.0,0.0,0.0,0.0,0.0,0.0,0.0,0.0,0.0,0.0,0.0,0.0,0.0,0.0,0.0,0.0,0.0,0.0,0.0,2.8232,3.2541,3.6087,3.7604,3.7648,3.7648,3.7822,3.4309,3.1098,0.0,0.0,0.0,0.0,0.0,0.0,0.0,0.0,0.0,0.0,0.0,0.0,0.0,0.0,0.0,0.0,0.0,0.0,0.0,0.0,0.0,0.0,0.0,0.0,0.0,0.0,0.0,0.0,0.0,0.0,0.0,0.0,0.0,0.0,0.0,0.0,0.0,0.0,0.0,0.0,0.0,0.0,0.0,0.0,0.0,0.0,0.0,0.0,0.0,0.0,0.0,0.0,0.0,0.0,0.0,0.0,0.0,0.0,0.0,0.0,0.0,0.0,0.0,0.0,0.0,0.0,0.0,0.0,0.0,0.0,0.0,0.0,0.0,0.0,0.0,0.0,0.0,0.0,0.0,0.0,0.0,0.0,0.0,0.0,0.0,0.0,0.0,0.0,0.0,0.0,0.0,0.0,0.0,0.0,0.0,0.0,0.0,0.0,0.0,0.0,0.0,0.0,0.0,2.8232,3.212,3.5545,3.743,3.7115,3.6995,3.7589,3.5294,3.2228,2.8635,0.0,0.0,0.0,0.0,0.0,0.0,0.0,0.0,0.0,0.0,0.0,0.0,0.0,0.0,0.0,0.0,0.0,0.0,0.0,0.0,0.0,0.0,0.0,0.0,0.0,0.0,0.0,0.0,0.0,0.0,0.0,0.0,0.0,0.0,0.0,0.0,0.0,0.0,0.0,0.0,0.0,0.0,0.0,0.0,0.0,0.0,0.0,0.0,0.0,0.0,0.0,0.0,0.0,0.0,0.0,0.0,0.0,0.0,0.0,0.0,0.0,0.0,0.0,0.0,0.0,0.0,0.0,0.0,0.0,0.0,0.0,0.0,0.0,0.0,0.0,0.0,0.0,0.0,0.0,0.0,0.0,0.0,0.0,0.0,0.0,0.0,0.0,0.0,0.0,0.0,0.0,0.0,0.0,0.0,0.0,0.0,0.0,0.0,0.0,0.0,0.0,0.0,2.8111,3.1896,3.5063,3.6599,3.6321,3.6258,3.6723,3.506,3.2391,2.8575,0.0,0.0,0.0,0.0,0.0,0.0,0.0,0.0,0.0,0.0,0.0,0.0,0.0,0.0,0.0,0.0,0.0,0.0,0.0,0.0,0.0,0.0,0.0,0.0,0.0,0.0,0.0,0.0,0.0,0.0,0.0,0.0,0.0,0.0,0.0,0.0,0.0,0.0,0.0,0.0,0.0,0.0,0.0,0.0,0.0,0.0,0.0,0.0,0.0,0.0,0.0,0.0,0.0,0.0,0.0,0.0,0.0,0.0,0.0,0.0,0.0,0.0,0.0,0.0,0.0,0.0,0.0,0.0,0.0,0.0,0.0,0.0,0.0,0.0,0.0,0.0,0.0,0.0,0.0,0.0,0.0,0.0,0.0,0.0,0.0,0.0,0.0,0.0,0.0,0.0,0.0,0.0,0.0,0.0,0.0,0.0,0.0,0.0,0.0,0.0,0.0,0.0,2.7842,3.1842,3.4741,3.5429,3.5424,3.5424,3.5424,3.4091,3.1936,2.8717,0.0,0.0,0.0,0.0,0.0,0.0,0.0,0.0,0.0,0.0,0.0,0.0,0.0,0.0,0.0,0.0,0.0,0.0,0.0,0.0,0.0,0.0,0.0,0.0,0.0,0.0,0.0,0.0,0.0,0.0,0.0,0.0,0.0,0.0,0.0,0.0,0.0,0.0,0.0,0.0,0.0,0.0,0.0,0.0,0.0,0.0,0.0,0.0,0.0,0.0,0.0,0.0,0.0,0.0,0.0,0.0,0.0,0.0,0.0,0.0,2.901,2.6829,0.0,0.0,0.0,0.0,0.0,0.0,0.0,0.0,0.0,0.0,0.0,0.0,0.0,0.0,0.0,0.0,0.0,0.0,0.0,0.0,0.0,0.0,0.0,0.0,0.0,0.0,0.0,0.0,0.0,0.0,0.0,0.0,0.0,0.0,0.0,0.0,0.0,0.0,0.0,0.0,2.7924,3.1842,3.4678,3.5204,3.5294,3.5228,3.5001,3.3799,3.2019,2.9606,2.6126,0.0,0.0,0.0,0.0,0.0,0.0,0.0,0.0,0.0,0.0,0.0,0.0,0.0,0.0,0.0,0.0,0.0,0.0,0.0,0.0,0.0,0.0,0.0,0.0,0.0,0.0,0.0,0.0,0.0,0.0,0.0,0.0,0.0,0.0,0.0,0.0,0.0,0.0,0.0,0.0,0.0,0.0,0.0,0.0,0.0,0.0,0.0,0.0,0.0,0.0,0.0,0.0,0.0,0.0,0.0,0.0,0.0,0.0,0.0,3.3291,3.1357,0.0,0.0,0.0,0.0,0.0,0.0,0.0,0.0,0.0,0.0,0.0,0.0,0.0,0.0,0.0,0.0,0.0,0.0,0.0,0.0,0.0,0.0,0.0,0.0,0.0,0.0,0.0,0.0,0.0,0.0,0.0,0.0,0.0,0.0,0.0,0.0,0.0,0.0,0.0,0.0,2.8531,3.2344,3.4877,3.5037,3.5067,3.5001,3.4935,3.3956,3.2566,3.0805,2.7343,0.0,0.0,0.0,0.0,0.0,0.0,0.0,0.0,0.0,0.0,0.0,0.0,0.0,0.0,0.0,0.0,0.0,0.0,0.0,0.0,0.0,0.0,0.0,0.0,0.0,0.0,0.0,0.0,0.0,0.0,0.0,0.0,0.0,0.0,0.0,0.0,0.0,0.0,0.0,0.0,0.0,0.0,0.0,0.0,0.0,0.0,0.0,0.0,0.0,0.0,0.0,0.0,0.0,3.7743,3.8654,3.9074,4.0051,4.1119,4.2045,3.8231,3.6973,3.7294,3.3502,0.0,0.0,0.0,0.0,0.0,0.0,0.0,0.0,0.0,0.0,0.0,0.0,0.0,0.0,0.0,0.0,0.0,0.0,0.0,0.0,0.0,0.0,3.1311,3.0955,3.2257,3.2952,3.0955,0.0,0.0,0.0,0.0,0.0,0.0,0.0,0.0,0.0,0.0,0.0,2.9377,3.2864,3.5067,3.4868,3.4802,3.4735,3.4572,3.3877,3.2963,3.1588,2.8616,2.5855,0.0,0.0,0.0,0.0,0.0,0.0,0.0,0.0,0.0,0.0,0.0,0.0,0.0,0.0,0.0,0.0,0.0,0.0,0.0,0.0,0.0,0.0,0.0,0.0,0.0,0.0,0.0,0.0,0.0,0.0,0.0,0.0,2.523,2.6535,0.0,0.0,0.0,0.0,0.0,0.0,0.0,0.0,0.0,0.0,0.0,0.0,0.0,3.5056,3.6343,3.8994,4.0278,4.0362,4.3926,4.534,4.4886,4.6482,4.7358,4.7488,4.6886,0.0,4.0075,3.7655,0.0,0.0,0.0,0.0,0.0,0.0,0.0,0.0,0.0,0.0,0.0,0.0,0.0,0.0,0.0,0.0,0.0,0.0,0.0,0.0,0.0,0.0,3.6191,3.66,3.7344,3.7841,3.7372,3.2547,2.8025,2.708,2.6248,2.4994,0.0,0.0,0.0,0.0,0.0,0.0,3.0277,3.3157,3.4868,3.4765,3.4563,3.4099,3.3213,3.2947,3.2191,3.0751,2.9198,2.7668,2.6228,2.3753,0.0,0.0,0.0,0.0,0.0,0.0,0.0,0.0,0.0,0.0,0.0,0.0,0.0,0.0,0.0,0.0,0.0,0.0,0.0,0.0,0.0,0.0,0.0,0.0,0.0,0.0,0.0,0.0,0.0,2.5401,2.7705,2.8419,2.871,2.8228,0.0,0.0,0.0,0.0,0.0,0.0,0.0,0.0,0.0,3.7526,3.859,3.9738,4.1137,4.32,4.4153,4.4184,4.6317,4.7157,4.6901,4.7619,4.7993,4.7993,4.7993,4.6491,4.3869,4.1996,3.9468,3.656,0.0,0.0,0.0,0.0,3.3455,3.3697,3.6014,3.6045,3.5064,3.4829,0.0,0.0,0.0,0.0,0.0,0.0,0.0,3.2198,3.3332,3.51,3.6737,3.74,3.7806,3.7994,3.795,3.5546,3.2886,3.1066,2.9749,2.7864,2.4629,2.4351,0.0,0.0,0.0,2.9594,3.1372,3.2976,3.3865,3.3728,3.3143,3.2577,3.2119,3.2001,3.1602,3.0944,2.96,2.8329,2.7344,2.4881,2.2131,0.0,0.0,0.0,0.0,0.0,0.0,0.0,0.0,0.0,0.0,0.0,0.0,0.0,0.0,0.0,0.0,0.0,0.0,0.0,0.0,0.0,0.0,0.0,0.0,0.0,0.0,0.0,0.0,2.7758,2.9802,3.035,3.1368,3.119,0.0,0.0,0.0,0.0,0.0,0.0,3.6526,3.789,3.9606,4.1819,4.2636,4.3608,4.4843,4.5911,4.6501,4.6687,4.7465,4.7871,4.7871,4.8103,4.818,4.818,4.818,4.777,4.6949,4.5194,4.2911,4.0347,3.9071,3.7752,3.6665,3.7674,3.7834,3.7943,4.0607,4.0537,3.9213,3.897,3.7418,3.5135,3.2943,0.0,0.0,0.0,0.0,3.4718,3.6008,3.6663,3.7207,3.7754,3.7844,3.7844,3.7844,3.7655,3.6798,3.4759,3.3276,3.1187,2.7456,2.7173,0.0,2.628,2.8324,3.0439,3.1698,3.236,3.272,3.2577,3.1901,3.1315,3.1167,3.0869,3.0644,3.0417,2.9048,2.8041,2.7475,2.524,2.2944,2.0623,0.0,0.0,0.0,0.0,0.0,0.0,0.0,0.0,0.0,0.0,0.0,0.0,0.0,0.0,0.0,0.0,0.0,0.0,0.0,0.0,0.0,0.0,0.0,0.0,0.0,0.0,0.0,0.0,0.0,3.2727,3.4154,0.0,0.0,0.0,0.0,3.4741,3.6606,3.8631,4.0664,4.2108,4.323,4.4077,4.4817,4.5507,4.6196,4.6256,4.6616,4.7246,4.8149,4.8533,4.8533,4.9313,4.971,4.971,4.971,4.9299,4.8401,4.6318,4.4518,4.2965,4.2145,4.1354,4.0512,4.0837,4.1309,4.1954,4.2247,4.2302,4.2265,4.3,4.133,3.8879,3.8033,3.6793,0.0,0.0,3.7436,3.8121,3.8979,3.926,3.929,3.932,3.9145,3.9,3.9,3.8237,3.7416,3.7001,3.6387,3.5133,3.2644,0.0,3.0751,2.8999,2.9375,3.0073,3.0548,3.1162,3.1609,3.1609,3.1389,3.0869,3.0139,2.9756,2.9135,2.8395,2.7279,2.658,2.6558,2.5066,2.3387,2.1609,1.9813,0.0,0.0,0.0,0.0,0.0,0.0,0.0,0.0,0.0,0.0,0.0,0.0,0.0,0.0,0.0,0.0,0.0,0.0,0.0,0.0,0.0,0.0,0.0,0.0,0.0,0.0,0.0,0.0,3.5976,3.7505,0.0,3.6566,3.7416,3.8288,3.8911,4.0472,4.2097,4.3728,4.4684,4.549,4.6232,4.6471,4.6711,4.695,4.695,4.707,4.7309,4.7624,4.7764,4.7764,4.8103,4.8157,4.8157,4.7988,4.7836,4.776,4.678,4.6001,4.5278,4.5033,4.4395,4.3677,4.3758,4.3976,4.4237,4.4278,4.399,4.3533,4.2999,4.1802,4.0601,4.0307,3.9787,3.9313,3.9624,3.9787,3.9845,4.0157,4.0216,4.0216,4.0216,4.014,4.0022,3.9609,3.9268,3.8767,3.7945,3.7051,3.5601,3.2793,3.3114,3.2858,3.023,3.0961,3.1973,3.211,3.1522,3.0958,3.0804,2.9361,2.8219,2.7763,2.7093,2.6521,2.6213,2.5797,2.5546,2.5378,2.4872,2.3701,2.1866,2.0957,1.8632,0.0,0.0,0.0,0.0,0.0,0.0,0.0,0.0,0.0,0.0,0.0,0.0,0.0,0.0,0.0,0.0,0.0,0.0,0.0,0.0,0.0,0.0,0.0,0.0,0.0,3.4068,3.6634,3.7856,3.9786,4.0601,3.9534,4.0601,4.1626,4.2248,4.3397,4.4578,4.565,4.6156,4.6602,4.7019,4.7135,4.7135,4.7048,4.7135,4.7193,4.7106,4.7135,4.7135,4.7106,4.7135,4.7048,4.7048,4.6844,4.6931,4.7048,4.6844,4.6655,4.6598,4.6681,4.6433,4.5933,4.5639,4.555,4.5603,4.5281,4.4923,4.4333,4.3468,4.2674,4.2138,4.2138,4.1911,4.1655,4.1655,4.1499,4.1283,4.1077,4.1018,4.0959,4.0724,4.0665,4.047,4.0059,3.9634,3.9073,3.8331,3.7394,3.5968,3.3624,3.4046,3.368,3.1035,3.1707,3.2356,3.1957,3.109,3.0301,2.9682,2.8081,2.6813,2.6289,2.538,2.4872,2.4957,2.4532,2.4276,2.419,2.3428,2.2388,2.1109,1.9861,1.781,1.4903,0.0,0.0,0.0,0.0,0.0,0.0,0.0,0.0,0.0,0.0,0.0,0.0,0.0,0.0,0.0,0.0,0.0,0.0,0.0,0.0,0.0,0.0,0.0,3.3255,3.6487,3.8498,3.8376,4.09,4.2115,4.0724,4.2467,4.3985,4.4634,4.5282,4.5931,4.655,4.6609,4.6609,4.6609,4.6756,4.6756,4.6609,4.6756,4.6931,4.6931,4.6668,4.6668,4.6931,4.6668,4.6609,4.6609,4.6609,4.6609,4.6609,4.6609,4.6609,4.6697,4.7135,4.7309,4.7133,4.6334,4.6096,4.6177,4.5322,4.5,4.5,4.4718,4.4221,4.372,4.372,4.3248,4.2718,4.2718,4.2718,4.2541,4.1922,4.1666,4.1518,4.09,4.0568,4.0412,4.0383,3.9264,3.8228,3.8228,3.7498,3.6493,3.5443,3.4603,3.3354,3.1518,3.1442,0.0,2.9941,2.9941,2.9579,2.8309,2.7793,2.6967,2.572,2.4781,2.4447,2.4702,2.3414,2.2736,2.3018,2.0765,1.9499,1.9516,1.6625,1.5068,1.4925,0.0,0.0,0.0,0.0,0.0,0.0,0.0,0.0,0.0,0.0,0.0,0.0,0.0,0.0,0.0,0.0,0.0,0.0,0.0,0.0,0.0,3.194,3.4439,3.4958,3.8014,4.0513,4.1594,4.3539,4.4785,4.4902,4.5459,4.5843,4.6049,4.6226,4.6403,4.658,4.6609,4.6609,4.6609,4.6668,4.6697,4.6609,4.6668,4.6668,4.6668,4.658,4.658,4.6668,4.6609,4.6609,4.6609,4.6403,4.6403,4.658,4.6403,4.6403,4.6609,4.6785,4.6785,4.6756,4.6491,4.6519,4.6401,4.5664,4.5457,4.5368,4.4781,4.4516,4.4369,4.4369,4.3759,4.3148,4.3148,4.266,4.2199,4.2024,4.1995,4.1936,4.1762,4.1073,4.0404,3.9702,3.8753,3.7763,3.6936,3.6075,3.5253,3.4789,3.4011,3.3115,3.1908,3.1736,3.1563,3.1216,3.0074,2.9007,2.8388,2.6415,2.4856,2.4019,2.3076,2.2546,2.2511,2.2069,2.182,2.182,2.1069,2.0283,1.9545,1.632,1.4613,0.0,0.0,0.0,0.0,0.0,0.0,0.0,0.0,0.0,0.0,0.0,0.0,0.0,0.0,0.0,0.0,0.0,0.0,0.0,0.0,0.0,0.0,3.3997,3.6274,3.6701,3.9338,4.1563,4.244,4.3658,4.459,4.4932,4.4989,4.4989,4.4989,4.5614,4.6061,4.6061,4.6687,4.7134,4.7134,4.7225,4.7225,4.7134,4.6961,4.6814,4.6814,4.646,4.6314,4.6403,4.6314,4.6343,4.6314,4.6135,4.6135,4.6314,4.6135,4.6135,4.6343,0.0,0.0,0.0,0.0,4.6491,4.6344,4.5991,4.5845,4.5786,4.5317,4.4995,4.476,4.476,4.3863,4.2941,4.2941,4.2223,4.1334,4.1196,4.1025,4.0854,4.0574,4.0059,3.9486,3.907,3.8113,3.7142,3.6534,3.5375,0.0,3.4214,3.3518,3.2582,3.1603,3.1234,3.0824,3.017,2.9262,2.8335,2.7416,2.5724,2.4365,2.3485,2.2667,0.0,0.0,0.0,2.0269,1.9118,1.892,0.0,0.0,0.0,0.0,0.0,0.0,0.0,0.0,1.4078,1.4142,0.0,0.0,0.0,0.0,0.0,0.0,0.0,0.0,0.0,0.0,0.0,0.0,0.0,0.0,0.0,0.0,3.5061,3.7047,3.8262,4.0239,4.1474,4.1666,4.2343,4.2792,4.2792,4.2846,4.29,4.29,4.4318,4.5188,4.5188,4.6586,0.0,0.0,0.0,4.763,4.7376,4.7201,4.7032,4.7032,4.645,4.6189,4.634,4.6189,4.6069,4.5982,4.5982,4.5953,4.5895,4.5895,4.5895,4.5985,4.6343,4.6521,4.6521,4.6521,4.6403,4.6135,4.6135,0.0,0.0,4.5956,4.5399,4.4818,4.4789,4.3617,4.23,4.221,4.1305,4.0254,3.9865,3.9467,3.907,3.8629,3.8379,3.8235,3.8235,3.714,3.6232,3.6138,3.4844,3.3624,3.3358,3.2794,3.1991,3.0833,3.0284,2.9508,2.8186,2.7955,2.7463,2.6127,2.5503,0.0,2.3547,2.2817,2.1854,2.061,2.0124,1.8801,1.6174,1.5961,1.5819,1.5747,1.4703,1.4985,1.6445,1.5559,1.527,1.5458,1.4193,1.4136,0.0,0.0,0.0,0.0,0.0,0.0,0.0,0.0,0.0,0.0,0.0,0.0,0.0,0.0,0.0,3.5114,3.6675,3.7956,3.8595,3.9059,3.9855,4.1136,4.2226,4.2792,4.2792,4.3226,4.3399,4.3399,4.4167,4.4593,4.4593,4.4902,4.5056,4.5056,4.5056,4.5056,4.5056,4.5929,4.626,4.6356,4.7059,0.0,4.7497,4.7404,4.7143,4.665,4.665,4.6359,4.5895,4.5895,4.5895,4.5895,4.5985,4.6075,4.6075,4.6075,4.5985,4.5956,4.5956,4.5956,4.5956,4.5895,4.5207,4.4422,4.4208,4.2923,0.0,4.1301,4.0668,4.008,3.9973,3.9575,3.915,3.9043,3.8149,3.7191,3.698,3.5473,3.4068,3.365,3.2542,3.1592,3.1309,3.1412,3.1335,3.0858,2.965,2.8752,2.8466,2.729,2.6224,2.5722,2.4711,2.3895,2.3275,2.208,2.1176,2.0886,1.9524,1.8506,1.7707,1.6924,1.6056,1.5197,1.4207,1.3551,1.2999,1.3068,1.2956,1.2764,1.3717,1.4234,0.0,0.0,0.0,0.0,0.0,0.0,0.0,0.0,0.0,0.0,0.0,2.8783,3.0988,0.0,3.5066,3.6396,3.7394,3.8105,3.8582,3.8631,3.8921,3.993,4.0414,4.0922,4.1207,4.1594,4.2008,4.219,4.3438,4.4067,4.4067,4.4877,4.5348,4.5348,4.5348,4.5245,4.5142,4.5559,4.5696,4.5468,4.5915,4.607,4.607,4.607,4.5901,4.5621,4.5496,4.5232,4.4925,4.4494,4.4188,4.3909,4.3909,4.4406,4.5201,4.5685,4.5201,4.4434,4.4897,4.4805,4.434,4.434,4.3937,4.3341,4.3218,4.2135,4.0848,4.0749,3.9947,3.9193,3.8914,3.851,3.8108,3.783,3.6989,3.6133,3.5405,3.4355,3.3078,3.2129,3.152,3.1008,3.0618,3.0215,2.9833,2.96,2.8682,2.7798,2.7222,2.6445,2.5629,2.4684,2.3913,2.3028,2.2114,2.0499,1.9592,1.9679,1.8105,1.7114,1.7025,1.5878,1.5164,1.477,1.3599,1.2898,1.2429,1.2529,1.256,1.2399,1.2633,1.2812,0.0,0.0,0.0,0.0,0.0,0.0,0.0,0.0,2.3643,2.6689,2.8516,3.0317,3.2901,3.4614,3.6033,3.6892,3.7604,3.808,3.8291,3.8315,3.8421,3.8631,3.8736,3.9062,3.9603,4.0071,4.0451,4.0997,4.2582,4.3536,4.3429,4.4704,4.5475,4.5475,4.5475,4.5369,4.5182,4.5128,4.4965,4.4625,4.4586,4.4576,4.4576,4.4576,4.4522,4.4414,4.4077,4.3894,4.3868,4.3184,4.2525,4.2092,4.2092,4.2625,4.3626,4.4712,4.4125,4.2889,4.3531,4.3341,4.2571,4.2571,4.2377,4.1959,4.1959,4.0993,4.0007,3.9905,3.9208,3.8194,3.7782,3.7484,3.7084,3.6343,3.5741,3.5034,3.3891,3.3073,3.2205,3.0931,3.0557,3.0182,2.9682,2.884,2.8212,2.8381,2.7756,2.6885,2.6012,2.5522,2.4927,2.3648,2.3043,2.2127,2.062,1.9021,1.8156,1.8076,1.68,1.5935,1.5719,1.4733,1.4067,1.3841,1.273,1.2135,1.2158,1.2039,1.2088,1.2044,1.0974,1.1147,1.833,1.8982,2.0521,2.3961,2.3799,2.4386,0.0,0.0,2.8956,3.0987,3.2249,3.3071,3.2981,3.4674,3.6133,3.6248,3.7287,3.7974,3.808,3.808,3.808,3.8104,3.8526,3.9167,3.9922,4.0525,4.1022,4.1569,4.2227,4.2526,4.2326,4.2488,4.2513,4.2513,4.2513,4.2538,4.2538,4.35,4.3997,4.3971,4.4837,4.5315,4.5315,4.5315,4.4969,4.4463,4.3827,4.3588,4.3562,4.3406,4.3136,4.2605,4.2605,4.1913,4.0993,4.1959,4.235,4.2447,4.2226,4.2128,4.203,4.203,4.1366,4.0591,4.0389,3.9494,3.8607,3.8291,3.8185,3.808,3.8007,3.7541,3.6948,3.5805,3.4863,3.408,3.2811,3.1251,2.9977,2.9547,2.8388,2.7403,2.7116,2.6899,2.7187,2.8058,2.7074,2.6088,2.6,2.4721,2.3648,2.3207,2.2199,2.0879,1.9139,1.8796,1.8137,1.6981,1.6733,1.6151,1.5019,1.4794,1.3754,1.1637,1.1294,1.0644,0.9875,0.9627,0.9331,0.9227,0.9092,0.971,2.0585,2.1897,2.3324,0.0,2.5723,2.6602,2.9126,2.9112,2.9152,3.1106,3.201,3.2721,3.3418,3.4274,3.5091,3.5491,3.5733,3.5972,3.6268,3.6063,3.5881,3.5881,3.6773,3.7965,3.9612,4.0098,4.0697,4.1555,4.2051,4.2199,4.211,4.211,4.211,4.211,4.211,4.1997,4.1859,4.2513,4.2712,4.2575,4.3108,4.3441,4.3441,4.3441,4.3203,4.2755,4.2503,4.2116,4.1706,4.1379,4.1103,4.0852,4.0551,4.017,3.984,4.1372,4.1267,4.0414,4.0893,4.0591,4.0109,4.0109,3.9699,3.9208,3.9104,3.8607,3.808,3.7974,3.7974,3.7761,3.6858,3.6479,3.5995,3.4647,3.3857,3.3074,3.1892,3.077,2.9809,2.8834,2.8144,2.7289,2.6163,2.5904,2.5687,2.4948,2.5501,2.5757,2.5068,2.4275,2.3108,2.1353,1.9903,1.8816,1.8155,1.793,1.7654,1.7141,1.6449,1.587,1.5278,1.3761,1.2438,1.1413,1.0579,0.9711,0.904,0.8919,0.873,0.8469,0.853,0.8955,2.1803,2.3412,0.0,2.5834,2.7112,2.8057,2.8066,2.835,2.8955,3.0463,3.0952,3.1496,3.2623,3.3191,3.3565,3.4397,3.441,3.464,3.5011,3.4749,3.46,3.4469,3.5113,3.6466,3.8254,3.9235,4.011,4.0836,4.1387,4.1825,4.1859,4.1883,4.1883,4.1883,4.1883,4.1745,4.1492,4.1745,4.1745,4.1492,4.1745,4.1883,4.1883,4.1883,4.1745,4.1492,4.1492,4.1184,4.0595,4.0186,3.9874,3.9561,3.9176,3.8948,3.9038,4.0313,3.9879,3.8841,3.9519,3.9208,3.8631,3.8631,3.8421,3.8291,3.8291,3.7868,3.7548,3.7548,3.7203,3.6642,3.5508,3.5178,3.4847,3.3395,3.2692,3.1993,3.0903,3.0246,2.9502,2.8501,2.7838,2.7086,2.576,2.5138,2.4335,2.2918,2.4039,2.476,2.3743,2.3167,2.185,1.9594,1.8212,1.7547,1.7547,1.7317,1.7158,1.6997,1.6109,1.5308,1.4461,1.2717,1.1464,1.0834,0.985,0.9046,0.8793,0.8671,0.861,0.8475,0.8481,0.8127,0.0,0.0,2.4346,2.6883,2.807,2.8748,2.9676,2.9865,2.9865,2.9903,2.9922,2.9922,3.0039,3.0937,3.1984,3.2758,3.3843,3.4647,3.5054,3.5054,3.4858,3.4513,3.4447,3.4644,3.5238,3.7786,3.9248,3.9239,4.0242,4.0959,4.1148,4.1196,4.1196,4.1196,4.1196,4.1172,4.1172,4.1172,4.1172,4.1172,4.1172,4.1196,4.1196,4.1196,4.1172,4.1172,4.1172,4.1172,4.1148,4.1148,4.0523,3.9609,3.9585,3.8936,3.7998,3.808,3.8185,3.8421,3.8185,3.808,3.7974,3.7974,3.7974,3.7974,3.7974,3.7227,3.6231,3.6231,3.5223,3.409,3.409,3.3845,3.3283,3.2052,3.1456,3.0974,2.9766,2.8997,2.8486,2.837,2.6981,2.5874,2.5741,2.4444,2.3386,2.3253,2.2795,2.2436,2.2116,2.0787,1.9435,1.8194,1.7713,1.7467,1.7467,1.7467,1.6997,1.5688,1.5795,1.4568,1.1626,1.1666,1.0883,0.9239,0.8863,0.8799,0.8932,0.8552,0.8486,0.8611,0.8617,0.713,2.1755,0.0,2.6518,2.7455,2.8632,2.9464,2.9275,2.945,2.9568,2.9331,2.9127,2.8941,2.9156,2.9486,3.0084,3.0879,3.1623,3.2273,3.2391,3.2791,3.2946,3.2214,3.3048,3.3288,3.2472,3.4858,3.6816,3.7462,3.7879,3.8222,3.8602,3.9357,3.9826,3.9826,4.0687,4.1172,4.1172,4.1172,4.1172,4.1172,4.1172,4.1172,4.1172,4.1172,4.1172,4.1172,4.1172,4.1172,4.1148,3.9823,3.9337,3.929,3.894,3.8404,3.7799,3.7799,3.7465,3.6989,3.7761,3.7974,3.7868,3.7096,3.6773,3.6665,3.5881,3.5201,3.4759,3.4759,3.4181,3.3395,3.2354,3.2011,3.1572,3.0236,2.9766,2.9667,2.9213,2.9002,2.8537,2.7688,2.6969,2.5947,2.3774,2.2901,2.1982,2.0456,2.0791,2.0998,2.0578,1.9364,1.8015,1.6549,1.629,1.5924,1.5095,1.5111,1.4952,1.4469,1.3815,1.2807,1.1689,1.0861,0.9927,0.8998,0.8874,0.8819,0.8679,0.8557,0.7636,0.5774,0.7684,0.8102,2.1739,2.4161,2.637,2.7311,2.8572,2.945,2.9094,2.9213,2.9139,2.8726,2.8242,2.8026,2.7974,2.7939,2.8238,2.9464,3.0054,3.0653,3.12,3.1866,3.2007,3.1426,3.2275,3.2454,3.1486,3.308,3.4646,3.5715,3.6264,3.6872,3.7505,3.8274,3.8844,3.9025,3.9767,4.0504,4.0999,4.0999,4.1163,4.1461,4.0782,4.0455,4.0455,4.0455,4.0455,4.0571,4.0942,4.0942,4.0408,3.9221,3.8475,3.8213,3.7898,3.7469,3.7018,3.6838,3.6387,3.5911,3.6951,3.7096,3.6665,3.634,3.5904,3.5443,3.467,3.3866,3.3417,3.3417,3.2737,3.1822,3.0897,3.0548,3.0217,2.9213,2.8975,2.8856,2.8379,2.8241,2.7882,2.652,2.579,2.4715,2.2675,2.1658,2.0722,1.9075,1.9534,1.9885,1.9253,1.8493,1.7467,1.5959,1.5828,1.5335,1.4004,1.3873,1.3701,1.3208,1.2523,1.1614,1.0721,0.9877,0.9305,0.8738,0.8881,0.88,0.8617,0.8633,0.7684,0.5785,0.5658,0.6614,2.1318,2.2835,2.4266,2.6405,2.7882,2.8856,2.882,2.8801,2.8564,2.7875,2.738,2.6847,2.6445,2.6098,2.6608,2.8384,2.917,3.0024,3.1424,3.2046,3.2305,3.2226,3.2207,3.2226,3.2207,3.2246,3.2853,3.4015,3.5444,3.6806,3.774,3.7783,3.8,3.8456,3.8603,3.9228,4.0609,4.0609,4.1108,4.1707,4.0106,3.9239,3.9098,3.9098,3.9098,3.9216,4.0455,4.0316,3.9098,3.898,3.7977,3.6394,3.6394,3.609,3.5613,3.5179,3.4983,3.5102,3.5756,3.5356,3.4558,3.5685,3.5223,3.4336,3.4224,3.3212,3.2072,3.2072,3.082,2.945,2.945,2.9213,2.8975,2.8975,2.8975,2.8498,2.7263,2.69,2.652,2.5178,2.3574,2.2452,2.2452,2.0829,1.9456,1.92,1.9072,1.8891,1.8384,1.8312,1.7672,1.628,1.6032,1.5401,1.4029,1.3913,1.3161,1.1664,1.169,1.0876,0.8944,0.9053,0.8984,0.859,0.8606,0.8617,0.8617,0.837,0.8112,0.7978,0.2558,0.2828,2.2161,2.3702,2.5189,2.5789,2.5954,2.6144,2.6941,2.6784,2.6423,2.5881,2.5195,2.4401,2.3263,2.4343,2.5516,2.6033,2.8491,0.0,3.0494,3.1607,3.2237,3.1757,3.2343,3.2739,3.2676,3.3203,3.3701,3.408,3.4113,3.4604,3.5489,3.6428,3.7107,3.7233,3.81,3.8728,3.9103,4.0241,4.0114,3.8985,3.9476,3.9107,3.779,3.779,3.779,3.779,3.8149,3.8149,3.767,3.6824,3.6152,3.568,3.568,3.5164,3.4507,3.4503,3.4025,3.3443,3.355,3.3962,3.4224,3.3417,3.2964,3.2623,3.1747,3.082,3.0255,3.0372,2.9804,2.9094,2.9094,2.9094,2.8975,2.8975,2.8241,2.7383,2.7021,2.6277,2.5178,2.3822,2.209,2.0729,2.0462,1.9699,1.92,1.9072,1.9072,1.8963,1.8625,1.769,1.6474,1.4932,1.3653,1.2406,1.1411,1.0877,1.0555,1.0432,1.0313,0.9864,0.9071,0.9099,0.8989,0.8606,0.8617,0.8633,0.8644,0.4311,0.2154,0.2154,0.0673,0.0135,2.1991,2.3305,2.4592,2.4607,2.4657,2.4884,2.516,2.5007,2.4457,2.3448,2.277,2.2062,2.0866,2.235,2.4,0.0,0.0,0.0,3.0307,3.1533,3.2388,3.2169,3.2829,3.3264,3.3417,3.3824,3.4323,3.4629,3.4238,3.4277,3.4961,3.577,3.6244,3.6446,3.7082,3.7712,3.8359,3.9544,3.9552,3.8494,3.8204,3.7487,3.6512,3.6178,3.6072,3.6072,3.656,3.656,3.5971,3.5232,3.4632,3.4027,3.4027,3.3743,3.3381,3.3203,3.2828,3.2354,3.1959,3.223,3.2662,3.2363,3.1842,3.1285,3.0372,2.9922,2.9568,2.9686,2.9331,2.8975,2.8975,2.8975,2.8975,2.8975,2.8002,2.69,2.6277,2.5056,2.3698,2.209,2.0856,1.9979,1.9456,1.92,1.9072,1.9072,1.9072,1.8756,1.8094,1.7296,1.5957,1.3678,1.2515,1.1493,1.0084,0.9764,0.9545,0.9539,0.948,0.9256,0.8851,0.8851,0.8728,0.8617,0.7397,0.7277,0.852,0.2827,-0.0269,-0.0943,-0.0943,-0.1212,2.1454,2.2484,2.325,2.3278,2.3698,2.3857,2.3456,2.3055,2.232,2.0744,0.0,1.9781,1.8719,2.0289,2.2127,2.3479,0.0,2.8737,3.0389,3.1559,3.245,3.2898,3.3331,3.3766,3.4183,3.4222,3.4547,3.5315,3.5098,3.5059,3.5449,3.5488,3.5644,3.5879,3.5879,3.6403,3.7709,3.8611,3.9024,3.8787,3.6704,3.5529,3.5154,3.4518,3.4193,3.4258,3.5335,3.5211,3.4133,3.4133,3.3398,3.2422,3.2422,3.2422,3.2256,3.1898,3.1728,3.1577,3.0785,3.0464,3.0691,3.152,3.1169,3.0274,2.9922,2.9686,2.945,2.945,2.9213,2.8975,2.8737,2.8737,2.8737,2.8498,2.7504,2.6156,2.4933,2.3698,2.2215,2.0475,2.0106,1.9851,1.92,1.9072,1.9072,1.8816,1.8816,1.8291,1.6592,1.6581,1.5544,1.2553,1.2025,1.124,0.9794,0.9661,0.9389,0.9117,0.9117,0.8851,0.859,0.859,0.8595,0.8617,0.5774,0.5379,0.743,0.2289,-0.0943,-0.2155,-0.2155,-0.1887,2.1945,2.2102,2.2268,2.2255,2.1551,2.1071,2.1542,2.0741,0.0,0.0,1.8097,1.7217,1.5979,1.7705,1.9959,2.2051,2.4761,2.7452,2.9984,3.1064,3.1875,3.2469,3.3329,3.3932,3.4202,3.464,3.5005,3.551,3.5433,3.5569,3.5898,3.5918,3.5802,3.5606,3.5196,3.5333,3.6016,3.7226,3.7136,3.5599,3.6345,3.5491,3.3398,3.3321,3.311,3.2785,3.3038,3.2912,3.2785,3.2785,3.2657,3.2422,3.2422,3.2166,3.2038,3.1963,3.1739,3.1364,3.0878,3.0588,3.0471,3.0035,2.9785,2.9686,2.9568,2.9331,2.9094,2.945,2.9213,2.8737,2.7624,2.7383,2.7021,2.5912,2.4687,2.3683,2.3076,2.1713,2.0475,2.0234,1.9839,1.9584,1.92,1.9072,1.8676,1.7496,1.7367,1.6322,1.3464,1.411,1.4232,1.2421,1.0704,0.9649,0.9661,0.9123,0.8856,0.9117,0.8851,0.8723,0.859,0.859,0.86,0.8628,0.5778,0.3358,0.148,-0.0673,-0.1885,-0.2155,-0.2155,-0.2168,2.1784,2.1782,2.179,2.1793,2.0926,1.9901,1.9611,0.0,0.0,0.0,1.5937,1.5464,1.465,1.6679,1.8746,1.9828,2.2845,2.5891,2.8122,2.9865,3.1285,3.2448,3.3299,3.3954,3.4364,3.4533,3.4784,3.5196,3.5196,3.5333,3.5743,3.547,3.5333,3.5196,3.5059,3.5059,3.5196,3.584,3.5743,3.4891,3.5181,3.4604,3.3425,3.2711,3.2413,3.2227,3.2003,3.1891,3.1891,3.1891,3.1891,3.1891,3.1891,3.1782,3.1653,3.1653,3.1524,3.1302,3.0895,3.0612,3.0326,2.9777,2.9498,2.945,2.9331,2.9094,2.8975,2.9213,2.86,2.7744,2.7142,2.652,2.579,2.5178,2.3946,2.2577,2.1713,2.0856,2.0106,1.9839,1.9711,1.9444,1.92,1.8547,1.7765,1.7109,1.6333,1.5033,1.2553,1.2668,1.2397,1.0836,0.9775,0.9117,0.9123,0.8856,0.8723,0.8851,0.8717,0.859,0.859,0.8595,0.8611,0.8628,0.7277,0.4037,-0.1212,-0.1885,-0.2155,-0.2155,-0.2172,-0.2187,2.1619,2.1572,2.1645,2.1632,2.0686,1.9435,1.8247,1.7046,0.0,0.0,1.4469,1.4362,1.4135,1.5866,1.7566,0.0,2.0857,2.3769,2.6045,2.8201,2.9938,3.1345,3.2564,3.3381,3.3798,3.4094,3.437,3.4784,3.4784,3.4921,3.5333,3.5059,3.4784,3.4784,3.4646,3.4646,3.4784,3.4784,3.4784,3.4784,3.419,3.3867,3.3619,3.2703,3.2221,3.2111,3.1689,3.1506,3.1506,3.1414,3.1377,3.1377,3.1377,3.1377,3.1377,3.1377,3.1377,3.1322,3.0919,3.0589,3.0259,2.9837,2.936,2.8957,2.86,2.8361,2.8122,2.8122,2.7383,2.652,2.6277,2.5423,2.4564,2.4193,2.3076,2.1839,2.0856,2.0234,1.9851,1.9584,1.9571,1.9456,1.92,1.7893,1.685,1.6592,1.5294,1.3735,1.2025,1.149,1.0697,0.9117,0.8984,0.8851,0.859,0.859,0.859,0.859,0.859,0.859,0.859,0.8606,0.8344,0.7675,0.7555,0.4308,-0.2155,-0.2161,-0.2165,-0.2165,-0.2195,-0.2214,2.1524,2.1565,2.1538,2.157,2.0472,1.9228,1.8209,0.0,1.5595,1.473,1.4309,1.4122,1.4095,1.4502,1.5556,1.7873,0.0,2.1063,2.4118,2.5999,2.7229,2.8019,3.0287,3.1789,3.1789,3.3085,3.3955,3.437,3.4508,3.4646,3.4921,3.4646,3.4508,3.4508,3.4094,3.4094,3.437,3.4508,3.4508,3.4508,3.4333,3.3991,3.323,3.3138,3.29,3.2514,3.2129,3.1946,3.1928,3.1543,3.1377,3.1377,3.1377,3.1377,3.1377,3.1377,3.1377,3.1322,3.0919,3.0772,3.0662,3.0277,2.885,2.7263,2.7142,2.6277,2.5423,2.5423,2.5301,2.4933,2.3822,2.3325,2.2952,2.1727,2.0856,2.0361,2.0602,1.9839,1.9328,1.9571,1.9328,1.9072,1.9072,1.7893,1.6592,1.5294,1.3866,1.2289,1.0193,0.9927,0.9522,0.8723,0.8584,0.8584,0.859,0.859,0.859,0.859,0.859,0.859,0.859,0.8606,0.7393,0.4699,0.4034,0.1748,-0.2155,-0.2183,-0.2196,-0.2196,-0.2226,-0.2256,2.0956,2.1122,2.1262,2.1262,2.0245,1.8822,1.7996,0.0,1.5161,1.4402,1.4028,1.3881,1.4055,1.4322,1.4899,0.0,1.7225,1.879,2.1217,2.3146,2.4996,2.6777,2.9127,3.0909,3.1439,3.316,3.4165,3.4445,3.4223,3.4094,3.4232,3.4094,3.4094,3.4094,3.3817,3.3817,3.4094,3.4094,3.4094,3.4094,3.4094,3.3863,3.3578,3.334,3.3138,3.2936,3.2294,3.2001,3.1983,3.1543,3.1377,3.1377,3.1377,3.1377,3.1377,3.1377,3.0843,3.0178,2.9889,2.9146,2.828,2.9055,2.7504,2.5518,2.6924,2.6199,2.5056,2.5056,2.444,2.3698,2.3201,2.2466,2.1727,2.1235,2.0602,2.0106,2.0234,1.9711,1.92,1.9328,1.92,1.8816,1.8022,1.6721,1.5294,1.3866,1.2421,1.1115,0.9794,0.9661,0.9395,0.8723,0.859,0.859,0.859,0.859,0.859,0.859,0.859,0.859,0.859,0.8611,0.6857,0.3084,0.0948,-0.0818,-0.2181,-0.2213,-0.2228,-0.2228,-0.2259,-0.2279,2.0155,2.0537,2.0829,2.0829,1.9827,1.8555,0.0,1.6289,1.494,1.4202,1.3921,1.3841,1.4055,1.4255,1.4522,0.0,1.5896,1.7151,1.8948,2.0808,2.2742,2.4695,2.713,2.8972,2.9806,3.1713,3.3038,3.2914,3.2632,3.2491,3.2368,3.2368,3.2806,3.3817,3.3817,3.3817,3.3817,3.3817,3.3817,3.3817,3.3817,3.3817,3.3798,3.3523,3.3395,3.3358,3.2533,3.2184,3.2148,3.1598,3.1377,3.1377,3.1377,3.1377,3.1377,3.0972,3.0195,2.9265,2.8854,2.7752,2.6887,2.7947,2.6419,2.455,2.6215,2.5502,2.4094,2.4003,2.3274,2.2466,2.2466,2.1853,2.1109,2.1109,2.0602,2.0106,2.0106,1.9596,1.8944,1.8547,1.8419,1.8022,1.6592,1.5163,1.3997,1.2947,1.1505,1.0326,0.9794,0.9661,0.9256,0.8723,0.859,0.859,0.859,0.859,0.859,0.859,0.859,0.859,0.859,0.7932,0.5789,0.2158,-0.0819,-0.2204,-0.2214,-0.2244,-0.2259,-0.2259,-0.2289,-0.2303,1.9125,1.9827,2.0245,2.0245,1.9398,1.8288,1.7427,1.6267,1.5163,1.4277,1.4082,1.4082,1.4082,1.4095,1.4282,1.487,1.5444,1.6339,1.7836,1.9292,2.0548,2.1585,2.3776,2.5393,2.604,2.8264,2.9584,2.9234,2.9536,2.9584,2.9218,2.9202,3.0643,3.3678,3.3817,3.3817,3.3817,3.3817,3.3817,3.3817,3.3817,3.3817,3.3817,3.3817,3.3798,3.3762,3.2936,3.2588,3.2533,3.1708,3.1377,3.1377,3.1377,3.1377,3.1249,2.9805,2.9265,2.9134,2.7652,2.7105,2.7105,2.7105,2.5957,2.4657,2.4657,2.3384,2.1911,2.176,2.1336,2.1109,2.1109,2.1109,2.1109,2.1109,2.0602,2.0106,2.0106,1.9596,1.8676,1.7238,1.698,1.6592,1.5163,1.3735,1.2816,1.2816,1.1372,1.006,0.9794,0.9389,0.8984,0.8584,0.859,0.859,0.859,0.859,0.859,0.859,0.859,0.859,0.859,0.6305,0.4052,0.2188,-0.0686,-0.2215,-0.2245,-0.2275,-0.229,-0.2292,-0.2319,-0.2333,1.7181,1.7781,1.8175,1.8175,1.7518,1.6748,1.6348,1.5542,1.467,1.4179,1.4082,1.4082,1.4082,1.4082,1.4482,1.5671,0.0,0.0,1.8143,1.9265,2.0334,2.143,2.4394,2.6914,2.8485,2.9042,2.9536,2.9917,2.9584,2.9425,2.9552,2.9329,2.9631,3.0643,3.1649,3.1649,3.0643,3.1649,3.1649,3.0643,3.1649,3.1649,3.0643,3.1789,3.1649,3.061,3.0143,2.9793,2.9526,2.9043,2.8693,2.8443,2.8443,2.8443,2.8443,2.7916,2.7137,2.6337,2.5801,2.4993,2.4331,2.5398,2.4665,2.3663,2.4593,2.3567,2.1964,2.1871,2.1643,2.1416,2.1416,2.1256,2.1162,2.1363,2.0746,2.0208,2.059,1.9993,1.8995,1.7697,1.7335,1.6439,1.4051,1.3153,1.2421,1.1505,1.0717,1.006,0.9794,0.9389,0.8984,0.8584,0.859,0.859,0.859,0.859,0.859,0.859,0.859,0.8628,0.8709,0.6262,0.4384,0.3053,-0.0421,-0.2267,-0.2277,-0.2305,-0.2319,-0.232,-0.235,-0.2364,0.0,1.6217,1.6716,1.6834,1.6223,1.5626,1.5467,1.486,1.4375,1.3997,1.3997,1.4082,1.4082,1.409,1.4401,1.5511,1.587,0.0,0.0,1.9172,2.0361,2.1871,2.4205,2.6229,2.7431,2.7595,2.7804,2.8103,2.7849,2.7715,2.7804,2.761,2.749,2.749,2.9504,3.0217,2.9202,3.0217,3.0217,2.9202,3.0217,3.0075,2.9202,3.0217,3.0075,2.9171,2.871,2.8376,0.0,2.7661,2.7328,2.7105,2.7105,2.7105,2.6988,2.6455,2.5801,2.4873,2.4331,2.3665,2.2996,2.3938,2.3665,2.2996,2.3938,2.3185,2.2151,2.2151,2.1937,2.171,2.171,2.1577,2.1483,2.167,2.1188,2.0643,2.0857,1.9856,1.8582,1.7109,1.6221,1.506,1.2775,1.2285,1.1955,1.1022,1.0483,1.0084,0.9814,0.9402,0.8991,0.8725,0.8725,0.8725,0.8725,0.8638,0.8606,0.8655,0.8655,0.8433,0.7722,0.5522,0.3751,0.2253,-0.0712,-0.2296,-0.2307,-0.2324,-0.2338,-0.235,-0.2369,-0.2384,0.0,1.4913,1.5404,1.5689,1.5333,1.4902,1.4659,1.4347,0.0,1.3704,1.3886,1.4108,1.4103,1.4117,1.4216,1.4734,1.5256,1.6203,1.7659,1.9137,2.0748,2.2726,2.3474,2.3834,2.3834,2.4569,2.4943,2.469,2.4903,2.493,2.4676,2.4649,2.4636,2.4636,2.7346,2.8916,2.8916,2.8916,2.8916,2.8916,2.8916,2.8916,2.8916,2.8916,2.8916,2.8884,2.8255,2.7972,2.7893,2.7201,2.6902,2.6886,2.6855,2.6855,2.6588,2.5263,2.4873,2.4602,2.3406,2.2859,2.2859,2.2859,2.2859,2.2859,2.2859,2.2672,2.2458,2.2458,2.2245,2.2017,2.2017,2.2004,2.1991,2.2017,2.174,2.1343,2.0851,1.9346,1.7566,1.5681,1.4318,1.2819,1.1455,1.1172,1.1165,1.1165,1.0612,1.0058,1.0058,0.9365,0.8954,0.8954,0.8954,0.8954,0.8954,0.8742,0.866,0.8774,0.8785,0.8006,0.6008,0.4198,0.2394,0.0428,-0.1432,-0.2307,-0.2333,-0.2335,-0.235,-0.2378,-0.2383,-0.2399,1.2072,0.0,1.3089,1.3174,1.3064,1.3028,0.0,1.3349,1.3502,0.0,0.0,0.0,1.4381,1.4308,1.4734,1.6305,1.7016,1.782,1.9155,2.0982,2.2579,2.3754,2.4209,2.4436,2.4436,2.4623,2.481,2.497,2.4823,2.481,2.497,2.4756,2.4636,2.4636,2.5359,2.5639,2.5639,2.6794,2.6794,2.5639,2.6939,2.6794,2.5786,2.6939,2.6794,2.5625,2.5486,2.5291,2.5054,2.4679,2.4372,2.4136,2.4022,2.3924,2.3788,2.3529,2.3256,2.2983,2.2859,2.2722,2.2448,2.2859,2.2859,2.2859,2.2859,2.2819,2.2752,2.2752,2.2539,2.2178,2.2057,2.1752,2.1502,2.1456,2.1086,2.0379,1.9679,1.8776,1.7317,1.4701,1.3916,1.3137,1.1615,1.124,1.1165,1.1165,1.0612,1.0058,1.0058,0.9365,0.8954,0.8954,0.8954,0.8815,0.882,0.8761,0.8883,0.8777,0.8777,0.7706,0.5537,0.3124,0.1429,0.0579,-0.1305,-0.2326,-0.2333,-0.2356,-0.2371,-0.2379,-0.2427,-0.2451,1.1105,1.1797,1.2506,1.2599,1.2772,1.2866,1.2959,0.0,0.0,0.0,0.0,0.0,0.0,0.0,0.0,0.0,1.7447,1.8712,2.0513,2.2071,2.3407,2.4302,2.4543,2.4636,2.4636,2.4636,2.4703,2.4863,2.473,2.4703,2.4863,2.473,2.4636,2.4636,2.4636,2.4636,2.4636,2.5506,2.5506,2.4636,2.5506,2.5359,2.4636,2.5506,2.5359,2.4623,2.4489,2.4196,2.3892,2.3601,2.3311,2.2741,2.2571,2.2566,2.2448,2.2448,2.231,2.2035,2.231,2.231,2.2173,2.231,2.2448,2.2448,2.2448,2.2448,2.2722,2.2859,2.2752,2.2483,2.2211,2.1958,2.161,2.0661,2.0179,1.9597,1.8186,1.7157,1.5859,1.4282,1.3239,1.2477,1.164,1.143,1.1369,1.1369,1.0805,1.0242,1.0242,0.9536,0.9117,0.9122,0.9128,0.9133,0.9002,0.77,0.7535,0.8781,0.749,0.5824,0.3886,0.2304,0.0723,-0.0728,-0.1759,-0.2353,-0.2353,-0.2384,-0.2406,-0.2421,-0.2454,-0.263,1.0822,1.1864,1.2928,1.2949,1.3174,1.3437,1.3418,0.0,0.0,0.0,0.0,0.0,0.0,1.4926,0.0,0.0,0.0,1.9349,2.1857,2.2846,2.3647,2.4529,2.4636,2.4636,2.4636,2.4636,2.4636,2.4636,2.4636,2.4636,2.4636,2.4636,2.4636,2.4636,2.4636,2.4636,2.4636,2.4636,2.4636,2.4636,2.4636,2.4636,2.4636,2.4636,2.4636,2.4623,2.4382,2.3971,2.3653,2.3379,2.2821,2.2294,2.2217,2.2039,2.1823,2.1785,2.176,2.176,2.176,2.1772,2.176,2.176,2.176,2.176,2.176,2.2035,2.231,2.2585,2.2722,2.2722,2.231,2.2035,2.1333,1.9785,1.9089,1.8519,1.6685,1.5274,1.4156,1.3595,1.2466,1.1619,1.1619,1.1619,1.1619,1.1619,1.1038,1.0455,1.0455,0.9735,0.9313,0.9329,0.9329,0.934,0.9362,0.6857,0.6383,0.878,0.6455,0.403,0.1746,0.1164,-0.0146,-0.2339,-0.2365,-0.238,-0.2386,-0.2416,-0.2444,-0.2469,-0.2474,-0.2645,1.1363,1.2879,1.3808,1.2457,1.2608,1.3062,0.0,0.0,0.0,0.0,0.0,0.0,0.0,1.5805,1.666,0.0,0.0,2.0922,2.2846,2.3247,2.3647,2.4529,2.4636,2.4636,2.4636,2.4636,2.4636,2.4636,2.4636,2.4636,2.4636,2.4636,2.4636,2.4636,2.4636,2.4636,2.4636,2.4636,2.4636,2.4636,2.4636,2.4636,2.4636,2.4636,2.4636,2.4636,2.4596,2.4275,2.3953,2.3666,2.3233,2.2853,2.237,2.2154,2.209,2.1849,2.1622,2.1346,2.1346,2.1484,2.176,2.176,2.176,2.176,2.176,2.191,2.1897,2.1897,2.2173,2.231,2.2035,2.0641,1.9379,1.8681,1.7549,1.6272,1.4725,1.4164,1.3595,1.2187,1.1763,1.1619,1.1619,1.1619,1.1619,1.1619,1.1038,1.0455,1.0455,0.9735,0.9313,0.9329,0.9329,0.934,0.9367,0.8925,0.878,0.9222,0.876,0.5535,-0.1313,-0.1604,-0.1904,-0.2371,-0.2376,-0.2391,-0.2417,-0.2447,-0.2465,-0.247,-0.2495,-0.251,1.0755,1.2373,1.3541,1.3197,1.4082,1.4998,0.0,0.0,0.0,0.0,0.0,0.0,0.0,0.0,1.7889,1.9674,0.0,2.2178,2.318,2.3607,2.4008,2.4569,2.4636,2.4636,2.4636,2.4636,2.4636,2.4636,2.4636,2.4636,2.4636,2.4636,2.4636,2.4636,2.4636,2.4636,2.4636,2.4636,2.4636,2.4636,2.4636,2.4636,2.4636,2.4341,2.4341,2.4193,2.4044,2.3748,2.3438,2.3311,2.2877,2.241,2.2013,2.1753,2.1592,2.1319,2.1081,2.0943,2.0943,2.1081,2.122,2.122,2.122,2.122,2.122,2.1358,2.1484,2.1484,2.176,2.176,2.0641,1.9657,1.8541,1.6423,1.5434,1.4441,1.3031,1.261,1.2466,1.1763,1.1619,1.1619,1.1619,1.1619,1.1619,1.1619,1.1038,1.0455,1.0455,0.9746,0.9323,0.9345,0.9351,0.9362,0.9238,0.6141,0.4233,0.4238,0.3796,0.1896,-0.2191,-0.235,-0.2364,-0.2378,-0.241,-0.2433,-0.2448,-0.2478,-0.2493,-0.2493,-0.2507,-0.2671,1.0428,1.1944,1.3398,0.0,0.0,0.0,0.0,0.0,0.0,0.0,0.0,0.0,0.0,1.8099,0.0,2.0868,2.2199,2.3028,2.3306,2.3901,2.4315,2.4596,2.4636,2.4636,2.4636,2.4636,2.4636,2.4636,2.4636,2.4636,2.4636,2.4636,2.4636,2.4636,2.4636,2.4488,2.4488,2.4488,2.4636,2.4636,2.4636,2.4636,2.4636,2.4341,2.4044,2.4044,2.3735,2.3302,2.2856,2.2856,2.2584,2.1933,2.1607,2.1269,2.0943,2.0738,2.0665,2.0665,2.0665,2.0665,2.0665,2.0665,2.0527,2.0098,2.0098,2.0086,2.0074,2.0074,2.0213,2.0213,1.9239,1.8401,1.7127,1.4591,1.3595,1.3031,1.19,1.1619,1.1619,1.1619,1.1619,1.1619,1.1619,1.1619,1.1619,1.1476,1.0894,1.0455,1.0462,0.9757,0.934,0.9362,0.9367,0.8639,0.7177,0.2775,-0.0146,-0.0586,-0.1026,-0.1612,-0.2346,-0.2373,-0.2393,-0.2399,-0.2446,-0.2473,-0.248,-0.2503,-0.2514,-0.2514,-0.2514,-0.2983,1.1398,1.2639,1.3748,1.4521,0.0,0.0,0.0,0.0,0.0,0.0,0.0,0.0,0.0,1.9787,2.1001,2.1416,2.2536,2.3443,2.3667,2.397,2.4315,2.4596,2.4636,2.4636,2.4636,2.4636,2.4636,2.4636,2.4636,2.4636,2.4636,2.4636,2.4636,2.4636,2.4636,2.4488,2.4044,2.4341,2.4636,2.4636,2.4636,2.4636,2.4636,2.4636,2.4341,2.4044,2.4044,2.36,2.2856,2.2856,2.2694,2.2186,2.1679,2.116,2.069,2.0678,2.0665,2.0665,2.0665,2.0665,2.0665,2.0665,1.968,1.8552,1.8552,1.7549,1.6413,1.6413,1.6554,1.6836,1.853,1.6705,1.4164,1.4022,1.2753,1.1763,1.1619,1.1619,1.1619,1.1619,1.1619,1.1619,1.1619,1.1619,1.1476,1.1044,1.075,1.0462,1.0197,0.9618,0.934,0.9367,0.9372,0.7015,0.1168,0.0292,-0.0734,-0.2228,-0.1634,-0.1633,-0.2375,-0.2405,-0.2433,-0.2462,-0.2467,-0.2482,-0.2511,-0.2514,-0.2514,-0.2514,-0.2514,-0.3609,1.0837,1.2614,1.4161,0.0,0.0,0.0,0.0,0.0,0.0,0.0,0.0,0.0,0.0,0.0,2.1318,2.1765,2.2592,2.3367,2.3808,2.4222,2.4516,2.4623,2.4636,2.4636,2.4636,2.4636,2.4636,2.4636,2.4636,2.4636,2.4636,2.4636,2.4636,2.4636,2.4636,2.4341,2.4044,2.4193,2.4044,2.3896,2.4341,2.4488,2.4193,2.4044,2.36,2.3302,2.3005,2.2707,2.2558,2.2558,2.2408,2.2211,2.1679,2.1148,2.0665,2.0665,2.0665,2.0665,2.0665,2.0098,1.9251,1.9251,1.8261,1.6987,1.6987,1.6554,1.6131,1.6131,1.5425,1.4867,1.5575,1.4867,1.3595,1.2753,1.2043,1.1619,1.1619,1.1619,1.1619,1.1619,1.1619,1.1619,1.1619,1.1332,1.1214,1.1154,1.0596,1.0199,1.0287,0.9717,0.926,0.9345,0.5763,0.251,0.0148,-0.0,-0.0749,-0.2408,-0.1791,-0.164,-0.2406,-0.2436,-0.2457,-0.2469,-0.2488,-0.2503,-0.2514,-0.2514,-0.3152,-0.4124,-0.4124,-0.5408,1.087,1.254,1.4252,0.0,0.0,0.0,0.0,0.0,0.0,0.0,0.0,0.0,0.0,0.0,0.0,0.0,2.2768,2.3444,2.3771,2.4223,2.4475,2.4636,2.4636,2.4636,2.4636,2.4636,2.4636,2.4636,2.4636,2.4636,2.4636,2.4488,2.4488,2.4636,2.4341,2.4044,2.3735,2.3735,2.36,2.3302,2.3896,2.4044,2.3748,2.36,2.3154,2.2856,2.2558,2.2408,2.2259,2.2259,2.2211,2.2102,2.174,2.1269,2.0798,2.0798,2.0798,2.0774,2.0133,1.9363,1.8475,1.7976,1.671,1.5471,1.5471,1.5184,1.4906,1.4906,1.405,1.3336,1.3336,1.3259,1.2896,1.19,1.1619,1.1619,1.1619,1.1653,1.1687,1.1687,1.1728,1.1742,1.1549,1.1292,1.1046,1.0804,1.0423,1.0053,0.9994,0.9569,0.8483,0.6597,0.2543,-0.0,-0.0,-0.0453,-0.1214,-0.2133,-0.1813,-0.1963,-0.2438,-0.2467,-0.2484,-0.2484,-0.2504,-0.2828,-0.3297,-0.3297,-0.4261,-0.6059,-0.6059,-0.7213,1.1877,1.2655,0.0,0.0,0.0,0.0,0.0,0.0,0.0,0.0,0.0,0.0,0.0,0.0,0.0,2.185,2.2695,2.3426,2.3797,2.3979,2.4301,2.4623,2.4636,2.4636,2.4636,2.4636,2.4636,2.4636,2.4636,2.4636,2.4636,2.4193,2.4193,2.4636,2.3896,2.3438,2.3438,2.3438,2.3302,2.2856,2.3154,2.3438,2.3438,2.3438,2.3154,2.2856,2.2856,2.2707,2.2259,2.2259,2.2102,2.1873,2.1873,2.1535,2.1064,2.1064,2.1064,2.0874,1.906,1.8581,1.8633,1.6962,1.543,1.426,1.426,1.3237,1.206,1.206,1.206,1.206,1.206,1.1843,1.1619,1.1619,1.1619,1.1619,1.1619,1.1735,1.183,1.183,1.1959,1.1864,1.1423,1.1366,1.112,1.0269,1.0214,1.0005,0.9278,0.9278,0.6831,0.0606,-0.0,-0.0,-0.0,-0.1516,-0.2132,-0.1387,-0.2006,-0.2469,-0.2469,-0.2499,-0.2514,-0.2514,-0.2514,-0.3297,-0.5014,-0.5014,-0.5987,-0.7644,-0.7802,-0.9123,1.19,0.0,0.0,0.0,0.0,0.0,0.0,0.0,0.0,0.0,0.0,0.0,0.0,0.0,0.0,2.2191,2.2632,2.3131,2.334,2.3944,2.4209,2.4262,2.4476,2.4636,2.4636,2.4636,2.4636,2.4636,2.4341,2.4341,2.4636,2.3896,2.3748,2.4193,2.3735,2.3302,2.3005,2.3005,2.2856,2.2408,2.1337,2.1014,2.1314,2.2545,2.2247,2.0725,2.1948,2.2408,2.2259,2.2259,2.2102,2.1873,2.1873,2.1655,2.1354,2.1354,2.0624,1.9581,1.9072,1.7388,1.5571,1.5078,1.3924,1.2799,1.2799,1.2508,1.206,1.206,1.206,1.206,1.206,1.1844,1.1488,1.1932,1.1932,1.1932,1.1932,1.1965,1.1993,1.1993,1.1729,1.1599,1.1405,1.1002,1.0607,1.0509,0.996,0.8017,0.3415,0.2776,0.1994,0.0153,-0.0,-0.0,-0.0,-0.1547,-0.2335,-0.2188,-0.2344,-0.25,-0.25,-0.251,-0.2514,-0.2514,-0.3609,-0.3922,-0.3297,-0.5639,-0.7118,-0.7898,-0.9342,-1.1224,1.2707,0.0,0.0,0.0,0.0,0.0,0.0,0.0,0.0,0.0,0.0,0.0,0.0,2.2149,0.0,2.2545,2.2709,2.301,2.3311,2.3628,2.3955,2.4048,2.4195,2.4196,2.4156,2.4169,2.4222,2.4327,2.4044,2.3896,2.4341,2.36,2.3302,2.3735,2.2533,2.1936,2.1936,2.1786,2.1487,2.1337,2.0274,1.9661,1.9197,2.0263,1.9962,1.8905,2.0575,2.1648,2.2259,2.2259,2.1864,2.1117,2.1117,2.0513,1.9702,1.9702,1.9105,1.8057,1.738,1.5981,1.4461,1.3798,1.2935,1.2237,1.2237,1.2237,1.2237,1.2085,1.2085,1.1934,1.1782,1.1631,1.1447,1.1788,1.1762,1.1612,1.1612,1.1658,1.1697,1.1697,1.1441,1.1308,1.1114,1.0708,1.0462,1.0185,0.7594,0.4208,0.0471,-0.0,-0.0,-0.0,-0.0,-0.0311,-0.0932,-0.1565,-0.22,-0.2514,-0.2514,-0.2514,-0.2514,-0.2514,-0.2514,-0.2514,-0.3452,-0.4234,-0.4549,-0.658,-0.8396,-1.0045,-1.1332,-1.2781,0.0,0.0,0.0,0.0,0.0,0.0,0.0,0.0,0.0,0.0,0.0,0.0,2.2709,2.2395,2.2232,2.2846,2.2859,2.301,2.3174,2.3324,2.3444,2.3705,2.3834,2.3731,2.3549,2.3575,2.3692,2.3793,2.351,2.3523,2.3857,2.3264,2.298,2.3141,2.1026,1.9962,2.0102,1.9811,1.951,1.951,1.9359,1.8592,1.7227,1.7379,1.7379,1.7531,1.8895,2.0425,2.1798,2.1798,2.1037,1.951,1.951,1.8471,1.7105,1.7105,1.6955,1.6628,1.496,1.4517,1.446,1.2803,1.24,1.2501,1.2501,1.2347,1.2347,1.1882,1.1882,1.1727,1.1417,1.1262,1.1201,1.1258,1.1052,1.0902,1.0902,1.0999,1.1085,1.1091,1.1183,1.1077,1.0673,1.0755,1.0336,0.8693,0.3587,-0.0,-0.0,-0.0,-0.0,-0.0,-0.0,-0.0628,-0.22,-0.1728,-0.1728,-0.2514,-0.2514,-0.2514,-0.2514,-0.2514,-0.2514,-0.2514,-0.2828,-0.4393,-0.7201,-0.7669,-0.9661,-1.2795,-1.2963,-1.3605,0.0,0.0,0.0,0.0,0.0,0.0,0.0,0.0,0.0,0.0,0.0,2.2696,2.2859,2.2846,2.2709,2.2859,2.2859,2.2859,2.301,2.3174,2.3379,2.3403,2.3655,2.3652,2.3275,2.3288,2.3158,2.2921,2.2633,2.2589,2.3254,2.2534,2.1733,2.1014,2.0263,1.9208,1.7986,1.7986,1.7986,1.7834,1.6617,1.5701,1.5548,1.677,1.7379,1.7379,1.7834,1.8138,1.8441,1.8441,1.829,1.7986,1.7986,1.7654,1.7312,1.7312,1.6554,1.5336,1.4838,1.3969,1.2958,1.2622,1.232,1.2037,1.2037,1.1882,1.1572,1.1417,1.1417,1.1417,1.1262,1.1107,1.0779,1.0726,1.1023,1.1176,1.1176,1.1201,1.1225,1.156,1.1274,1.0975,1.1131,1.0687,0.8328,0.2817,0.0784,-0.0,-0.0,-0.0,-0.0,-0.0,-0.0,-0.0157,-0.0471,-0.1571,-0.2357,-0.2514,-0.2514,-0.2514,-0.2514,-0.2514,-0.2514,-0.2514,-0.5016,-0.6108,-0.5483,-0.9537,-1.1233,-1.1171,-1.3102,-1.4091,0.0,0.0,0.0,0.0,0.0,0.0,0.0,0.0,0.0,0.0,0.0,2.1932,2.2245,2.2395,2.2395,2.2395,2.2395,2.2395,2.2395,2.2435,2.2611,2.2611,2.2736,2.2691,2.2395,2.2408,2.2459,2.23,2.2038,2.21,2.2526,2.197,2.1143,1.9911,1.8874,1.7683,1.6037,1.6037,1.6037,1.6037,1.5228,1.4404,1.3722,1.4637,1.5395,1.616,1.616,1.6617,1.7379,1.7379,1.6922,1.616,1.616,1.5701,1.5097,1.5097,1.4483,1.3722,1.3722,1.3112,1.2192,1.2192,1.1882,1.1572,1.1572,1.1417,1.1262,1.1107,1.0952,1.0952,1.0653,1.0497,1.0347,1.0353,1.0497,1.0641,1.0653,1.0653,1.0664,1.0843,0.9417,0.8632,1.0392,0.7706,0.4084,0.0471,-0.0,-0.0,-0.0,-0.0,-0.0,-0.0,-0.0785,-0.1099,-0.0628,-0.1728,-0.2514,-0.2514,-0.2514,-0.2828,-0.3609,-0.3766,-0.3766,-0.3766,-0.6264,-0.7513,-0.7353,-1.0003,-1.1396,-1.1659,-1.3262,-1.4084,0.0,0.0,0.0,0.0,0.0,0.0,0.0,0.0,0.0,0.0,2.0402,2.1059,2.1671,2.1821,2.1821,2.1821,2.1821,2.1821,2.1821,2.1747,2.1785,2.1785,2.1772,2.171,2.153,2.1542,2.1641,2.1864,2.1329,2.1198,2.1509,2.0958,1.996,1.8373,1.7048,1.5588,1.412,1.412,1.412,1.4128,1.4153,1.3725,1.2501,1.2501,1.3267,1.4483,1.4483,1.5242,1.6617,1.6617,1.5701,1.4483,1.4483,1.3722,1.2501,1.2501,1.2501,1.2347,1.2347,1.2192,1.1727,1.1727,1.1572,1.1107,1.1107,1.1107,1.0952,1.0641,1.0486,1.0491,1.0047,0.9573,0.9105,0.912,0.91,0.9241,0.9891,0.9573,0.9266,0.9917,0.6751,0.5019,0.7863,0.3613,-0.0,-0.0,-0.0,-0.0,-0.0,-0.0314,-0.0471,-0.0471,-0.1571,-0.2043,-0.1571,-0.2043,-0.2671,-0.2985,-0.2985,-0.3609,-0.5327,-0.5639,-0.5792,-0.5792,-0.7201,-0.8604,-1.0008,-1.0319,-1.1396,-1.2963,-1.3429,-1.4077,0.0,0.0,0.0,0.0,0.0,0.0,0.0,0.0,0.0,0.0,2.0501,2.1395,2.1408,2.1698,2.1849,2.1849,2.1849,2.1849,2.1849,2.1861,2.1735,2.1735,2.181,2.1634,2.1269,2.1269,2.1143,2.0914,1.9632,1.8877,1.9228,1.794,1.6585,1.5146,1.4851,1.3972,1.2508,1.2359,1.2359,1.2359,1.2512,1.2512,1.2501,1.2501,1.2656,1.2804,1.2804,1.2958,1.3112,1.3112,1.2958,1.2804,1.2804,1.2656,1.2501,1.2501,1.2347,1.2037,1.2037,1.1727,1.1417,1.1417,1.1107,1.0641,1.0641,1.0486,1.0175,1.0175,1.003,1.0047,1.0047,0.7842,0.5642,0.5642,0.5639,0.6427,0.9433,0.769,0.6587,0.9448,0.5025,0.0785,0.1256,0.0628,-0.0,-0.0,-0.0,-0.0,-0.0,-0.1256,-0.22,-0.22,-0.1728,-0.1728,-0.2357,-0.2514,-0.3297,-0.5176,-0.486,-0.5483,-0.7045,-0.8604,-0.9382,-0.9382,-0.9537,-0.9853,-1.0008,-1.1411,-1.2501,-1.2963,-1.3756,-1.4408,0.0,0.0,0.0,0.0,0.0,0.0,0.0,0.0,0.0,1.9212,1.9875,2.0404,2.0557,2.0665,2.0816,2.0967,2.0967,2.0979,2.1131,2.1131,2.1131,2.1131,2.1244,2.1081,2.0943,2.0943,2.0515,1.9529,1.8832,1.8023,1.7268,1.67,1.5605,1.426,1.4115,1.3398,1.1816,1.1816,1.1857,1.1932,1.2088,1.2237,1.2386,1.2467,1.2501,1.2501,1.2501,1.2501,1.2501,1.2501,1.2501,1.2501,1.2501,1.2347,1.2192,1.2192,1.1882,1.1572,1.1572,1.1262,1.0952,1.0952,1.0641,1.033,1.033,1.0175,1.0025,1.003,1.0041,1.0052,1.0068,0.8963,0.7385,0.5498,0.5025,0.5971,0.9301,0.8816,0.6911,0.3611,0.0628,-0.1256,-0.0785,-0.0785,-0.0785,-0.0785,-0.0785,-0.0785,-0.0785,-0.1414,-0.2043,-0.2514,-0.22,-0.2669,-0.4236,-0.4079,-0.4703,-0.658,-0.6577,-0.7201,-0.8759,-0.9542,-1.0474,-1.1411,-1.1411,-1.1411,-1.1411,-1.2185,-1.2814,-1.3269,-1.4069,-1.4569,0.0,0.0,0.0,0.0,0.0,0.0,0.0,0.0,1.9072,0.0,1.9224,1.9455,1.9669,1.9811,1.9959,2.0119,2.0185,2.0269,2.0452,2.0525,2.0448,2.0549,2.0496,2.0569,2.0569,2.034,1.968,1.8552,1.77,1.6705,1.5566,1.5141,1.4441,1.3317,1.3317,1.2753,1.1619,1.1619,1.1687,1.183,1.1945,1.2101,1.2291,1.24,1.2467,1.2501,1.2501,1.2501,1.2347,1.2347,1.2347,1.2192,1.2192,1.2037,1.1727,1.1727,1.1417,1.1107,1.1107,1.0796,1.0486,1.0486,1.0175,1.0019,1.0025,1.0025,1.003,1.0047,1.0057,1.0063,0.9928,0.866,0.6762,0.4402,0.3458,0.3931,0.6773,0.7401,0.5498,-0.1256,-0.2514,-0.2357,-0.1728,-0.1571,-0.1571,-0.1571,-0.1571,-0.1571,-0.1571,-0.1571,-0.1886,-0.2514,-0.2826,-0.3766,-0.5486,-0.5639,-0.642,-0.7981,-0.8136,-0.8915,-1.063,-1.063,-1.125,-1.2501,-1.2501,-1.2501,-1.2501,-1.2501,-1.2814,-1.3429,-1.4069,-1.4569,0.0,0.0,0.0,0.0,0.0,0.0,0.0,0.0,0.0,1.9072,1.9072,1.9096,1.9145,1.9579,1.9873,1.9873,1.9867,1.987,1.9881,1.9891,2.0002,1.9964,2.0184,2.0291,2.0291,1.9265,1.8552,1.8412,1.5717,1.4164,1.4022,1.261,1.1763,1.1763,1.1763,1.1619,1.1619,1.1619,1.1687,1.183,1.1837,1.1999,1.2291,1.2298,1.2372,1.2501,1.2501,1.2347,1.1882,1.1882,1.1727,1.1417,1.1417,1.1417,1.1262,1.1262,1.1107,1.0641,1.0641,1.033,1.0019,1.0019,1.0019,1.0025,1.0041,1.0047,1.0052,1.0068,0.9923,0.9933,0.9933,0.5341,0.0471,0.0314,-0.0942,-0.1571,0.0157,0.0471,-0.0157,-0.2043,-0.2514,-0.2514,-0.2514,-0.2514,-0.2514,-0.2514,-0.2514,-0.2514,-0.2514,-0.2514,-0.2514,-0.2514,-0.3922,-0.4857,-0.5014,-0.642,-0.8136,-0.9698,-0.9853,-1.063,-1.2347,-1.2347,-1.2347,-1.2501,-1.2501,-1.2501,-1.2501,-1.2501,-1.2657,-1.3123,-1.3916,-1.4408,0.0,0.0,0.0,0.0,0.0,0.0,0.0,1.7758,1.85,1.8512,1.8792,1.9072,1.9072,1.9224,1.9493,1.9633,1.9683,1.9662,1.9848,1.9948,1.9862,1.9866,1.9177,1.871,1.8857,1.7569,1.6419,1.5566,1.4449,1.346,1.2466,1.19,1.1619,1.1619,1.1619,1.1619,1.1619,1.1619,1.1647,1.1694,1.1789,1.1891,1.1999,1.2203,1.2318,1.2372,1.2152,1.2037,1.1882,1.1882,1.1727,1.1262,1.1262,1.1107,1.0796,1.0796,1.0641,1.0175,1.0175,1.0175,1.0019,1.0036,1.0036,1.0041,1.0057,0.848,0.7217,0.9443,0.9928,0.8978,0.4714,0.1728,-0.0,-0.0,-0.1256,-0.2357,-0.1728,-0.1256,-0.1099,-0.2357,-0.2514,-0.2514,-0.2514,-0.2514,-0.2514,-0.2514,-0.2514,-0.2514,-0.2514,-0.2514,-0.2983,-0.392,-0.4701,-0.5792,-0.7976,-0.8759,-0.9848,-1.1566,-1.1566,-1.1876,-1.2501,-1.2501,-1.2501,-1.2501,-1.2596,-1.2651,-1.2651,-1.2651,-1.2965,-1.3584,-1.4069,-1.4675,0.0,0.0,0.0,0.0,0.0,0.0,0.0,0.0,1.78,1.7955,1.8512,1.8932,1.8932,1.9072,1.9212,1.9352,1.9352,1.9493,1.9633,1.9273,1.8971,1.8876,1.7741,1.6964,1.7109,1.5882,1.478,1.3924,1.3428,1.261,1.1619,1.1619,1.1619,1.1619,1.1619,1.1619,1.1619,1.1619,1.1619,1.1619,1.1714,1.1782,1.1837,1.2094,1.2244,1.2298,1.1978,1.1882,1.1727,1.1572,1.1262,1.0796,1.0796,1.0641,1.033,1.033,1.0175,1.0019,1.0019,1.0025,1.003,1.0041,0.9256,0.8476,0.9599,0.8489,0.6751,0.6602,0.6605,0.5658,0.1099,-0.0471,-0.0785,-0.0785,-0.1728,-0.2514,-0.2514,-0.2043,-0.1886,-0.2357,-0.2514,-0.2514,-0.2514,-0.2514,-0.2514,-0.2514,-0.2514,-0.2675,-0.3315,-0.3304,-0.3927,-0.567,-0.6434,-0.7509,-0.9848,-1.0474,-1.1256,-1.2501,-1.2501,-1.2501,-1.2501,-1.2549,-1.2576,-1.2576,-1.2732,-1.2834,-1.2881,-1.2834,-1.3095,-1.3824,-1.415,-1.4727,0.0,0.0,0.0,0.0,0.0,0.0,0.0,0.0,1.6808,1.7349,1.8047,1.8617,1.864,1.8932,1.9072,1.9072,1.9084,1.8956,1.8944,1.7855,1.6968,1.699,1.5873,1.5205,1.5215,1.4207,1.3595,1.3604,1.2372,1.1613,1.1619,1.1619,1.1619,1.1619,1.1619,1.1619,1.1619,1.1619,1.1619,1.1619,1.1619,1.1694,1.183,1.1986,1.2142,1.2291,1.1978,1.1727,1.1262,1.0796,1.033,1.0019,1.0019,1.0019,1.0019,1.0019,1.0019,1.0019,1.0019,1.003,1.0047,1.0047,0.7842,0.5645,0.8812,0.9771,0.8342,0.1885,-0.0,-0.0,-0.0,-0.1256,-0.2514,-0.2514,-0.2514,-0.2514,-0.2514,-0.2514,-0.2514,-0.2514,-0.2514,-0.2514,-0.2514,-0.2514,-0.2515,-0.2515,-0.2515,-0.3156,-0.4942,-0.5055,-0.567,-0.7635,-0.914,-1.0014,-1.0019,-1.1572,-1.2508,-1.2508,-1.2501,-1.2501,-1.2508,-1.2651,-1.2732,-1.2739,-1.2888,-1.3037,-1.3173,-1.3037,-1.3205,-1.3831,-1.3831,-1.4408,0.9967,0.0,0.0,0.0,0.0,0.0,0.0,0.0,1.5457,1.6188,1.6989,1.7619,1.8082,1.8512,1.8792,1.8792,1.8063,1.7238,1.6155,1.5763,1.5492,1.5434,1.4304,1.3468,1.3595,1.2496,1.1841,0.0,1.1712,1.1504,1.1613,1.1619,1.1619,1.1619,1.1619,1.1619,1.1619,1.1619,1.1619,1.1619,1.1619,1.164,1.1687,1.1945,1.2088,1.2142,1.1625,1.1417,1.1262,1.0796,1.033,1.0019,1.0019,1.0019,1.0019,1.0019,1.003,1.0041,1.0041,1.0052,1.0068,1.0074,0.9443,0.7863,0.3927,0.2826,0.2356,0.0471,-0.0,-0.0314,-0.1571,-0.22,-0.2514,-0.2514,-0.2514,-0.2514,-0.2514,-0.2514,-0.2514,-0.2514,-0.2514,-0.2514,-0.2514,-0.2514,-0.2522,-0.2544,-0.2547,-0.3195,-0.5002,-0.5316,-0.6435,-0.9342,-1.0121,-1.0907,-1.2033,-1.241,-1.2664,-1.2664,-1.2562,-1.2549,-1.2664,-1.2705,-1.2786,-1.2895,-1.3037,-1.3132,-1.3173,-1.3132,-1.3193,-1.3501,-1.4153,-1.5005,1.0651,0.0,0.0,0.0,0.0,0.0,1.3526,1.413,1.4722,0.0,1.6199,1.6882,1.7363,1.7839,1.7901,1.6805,1.6274,1.5894,1.5753,1.4725,1.4059,1.3997,1.2816,1.1931,1.2029,1.1305,1.1023,1.1192,1.126,1.1362,1.1518,1.1586,1.1619,1.1619,1.1619,1.1619,1.1619,1.1619,1.1619,1.1619,1.1619,1.1619,1.1626,1.1857,1.1851,1.1775,1.1396,1.1059,1.0952,1.0486,1.0175,1.0019,1.0019,1.0025,1.003,1.003,1.0041,0.9745,0.8471,0.8797,0.9928,0.9933,0.8185,0.5027,0.1256,-0.0,-0.0,-0.0,-0.0,-0.0314,-0.2043,-0.2514,-0.2514,-0.2514,-0.2514,-0.2514,-0.2514,-0.2514,-0.2514,-0.2514,-0.2514,-0.2514,-0.2514,-0.2525,-0.254,-0.2557,-0.321,-0.4362,-0.6201,-0.6993,-0.8603,-1.1403,-1.1529,-1.198,-1.2963,-1.2874,-1.28,-1.2732,-1.2705,-1.2705,-1.2725,-1.2847,-1.2956,-1.3051,-1.3193,-1.3268,-1.3268,-1.3268,-1.348,-1.3735,-1.4721,-1.5381,1.178,1.2095,0.0,1.3278,1.3187,0.0,1.4244,1.4321,1.4329,0.0,1.5358,1.5927,1.6181,1.6624,1.632,1.4163,1.409,1.4699,1.6033,1.4173,1.2624,1.2561,1.1505,1.0717,1.0717,1.0846,1.0928,1.0948,1.1084,1.1219,1.1355,1.1511,1.1592,1.1592,1.1613,1.1619,1.1619,1.1619,1.1619,1.1619,1.1619,1.1619,1.1626,1.1769,1.1616,1.132,1.1163,1.0833,1.0641,1.0175,1.0019,1.0019,1.0019,1.003,1.0047,1.0047,1.0057,0.9599,0.6591,0.7068,0.8821,0.8821,0.487,-0.0,-0.0,-0.0,-0.0,-0.0,-0.0,-0.0314,-0.1886,-0.2357,-0.2514,-0.2514,-0.2514,-0.2514,-0.2514,-0.2514,-0.2515,-0.2519,-0.2517,-0.2515,-0.2519,-0.2542,-0.2722,-0.2889,-0.4205,-0.6041,-0.8082,-0.9652,-1.1253,-1.3016,-1.3085,-1.301,-1.301,-1.2996,-1.2929,-1.2786,-1.2895,-1.2908,-1.2786,-1.303,-1.318,-1.32,-1.3336,-1.3403,-1.3403,-1.3403,-1.3735,-1.4232,-1.5389,-1.5719,1.2996,1.3371,1.378,1.3273,0.0,0.0,1.3256,1.3521,1.3778,0.0,1.2951,1.3147,1.2893,1.3314,1.3646,1.3156,1.2757,1.2308,1.1766,1.1432,1.1129,1.1115,1.085,1.0717,1.0717,1.0744,1.0812,1.0941,1.1084,1.1172,1.1206,1.1355,1.1436,1.1436,1.1552,1.1619,1.1619,1.1619,1.1619,1.1619,1.1619,1.1619,1.1626,1.1769,1.1616,1.132,1.1163,1.0833,1.0641,1.0175,1.0019,1.0019,1.0019,1.003,1.0047,1.0047,1.0063,0.9928,0.9291,0.5971,0.1885,0.1885,0.1099,-0.0,-0.0,-0.0,-0.0,-0.0,-0.0,-0.0314,-0.1256,-0.2043,-0.2514,-0.2514,-0.2514,-0.2514,-0.2514,-0.2514,-0.2522,-0.2547,-0.2532,-0.2522,-0.2547,-0.2556,-0.3058,-0.4586,-0.5098,-0.6443,-0.9677,-1.0501,-1.1328,-1.3184,-1.3336,-1.3315,-1.3315,-1.32,-1.3119,-1.3085,-1.301,-1.2996,-1.3085,-1.3146,-1.3227,-1.3356,-1.3383,-1.3403,-1.3403,-1.3403,-1.3728,-1.4555,-1.4886,-1.5216,1.4112,1.415,1.4322,1.3562,0.0,0.0,0.0,1.2615,1.2802,1.1818,1.1629,1.1527,1.1494,1.1754,1.1754,1.1245,1.1276,1.0948,0.9687,1.0089,1.05,1.05,1.0561,1.0609,1.0609,1.0677,1.0751,1.0826,1.0975,1.1056,1.1056,1.1267,1.1389,1.1389,1.1538,1.1619,1.1619,1.1619,1.1476,1.1332,1.1332,1.1188,1.1038,1.1108,1.1072,1.0767,1.0607,1.0433,1.0241,0.9998,1.0019,1.0019,1.003,1.0047,1.0063,1.0068,0.7859,0.5027,0.5027,0.2826,-0.0,-0.0,-0.0,-0.0,-0.0,-0.0,-0.0,-0.0,-0.0,-0.0157,-0.0471,-0.1571,-0.2514,-0.2514,-0.2514,-0.2518,-0.2533,-0.2537,-0.2545,-0.2575,-0.2568,-0.2563,-0.2578,-0.2593,-0.294,-0.3795,-0.4814,-0.6337,-0.9045,-1.0221,-1.1392,-1.3231,-1.3403,-1.3403,-1.3403,-1.3329,-1.3254,-1.318,-1.318,-1.318,-1.3173,-1.3247,-1.3322,-1.3397,-1.3403,-1.3403,-1.3403,-1.3403,-1.3894,-1.4713,-1.4886,-1.5381,0.0,0.0,1.5024,0.0,0.0,1.4316,0.0,0.0,0.0,1.0906,1.0379,0.0,0.0,0.0,0.0,0.918,0.0,0.0,0.0,0.9248,0.0,1.0015,1.0176,1.0277,1.0277,1.0364,1.0464,1.0578,1.0625,1.0678,1.09,1.1158,1.1321,1.1348,1.1497,1.1592,1.1476,1.1476,1.1332,1.0894,1.0894,1.075,1.0455,1.0455,1.0396,1.0116,1.022,1.0044,0.9878,0.9981,1.0025,1.0025,1.0041,0.9584,0.9125,0.9766,0.5814,-0.0,-0.0,-0.0,-0.0,-0.0,-0.0,-0.0,-0.0,-0.0,-0.0,-0.0,-0.0,-0.0,-0.0,-0.1101,-0.2366,-0.2523,-0.2523,-0.2532,-0.2562,-0.2563,-0.257,-0.2604,-0.2611,-0.2611,-0.2611,-0.2631,-0.2649,-0.315,-0.4674,-0.6543,-0.8215,-1.0055,-1.1724,-1.3231,-1.3403,-1.3403,-1.3403,-1.3403,-1.3349,-1.322,-1.3336,-1.3342,-1.322,-1.3336,-1.3403,-1.3403,-1.3403,-1.3403,-1.3403,-1.3403,-1.3894,-1.4713,-1.5051,-1.5546,0.0,0.0,0.0,0.0,1.6249,0.0,0.0,0.0,1.2541,0.9535,0.0,0.0,0.0,0.0,0.0,0.0,0.0,0.0,0.7812,0.8097,0.8546,0.8916,0.9439,0.96,0.9343,0.9125,0.9393,1.0154,0.9986,1.0075,1.0724,1.0907,1.1056,1.1185,1.1335,1.1342,1.1044,1.1044,1.0894,1.0599,1.0599,1.0599,1.0455,1.0455,1.045,1.0243,1.026,1.0095,1.0003,1.0014,1.003,1.0047,1.0047,0.8154,0.5958,0.8973,0.5814,-0.0,-0.0,-0.0,-0.0,-0.0,-0.0,-0.0,-0.0,-0.0,-0.0,-0.0,-0.0,-0.0,-0.0,-0.0792,-0.1596,-0.2395,-0.2555,-0.2562,-0.259,-0.2577,-0.2577,-0.2631,-0.2642,-0.2642,-0.2642,-0.2645,-0.3152,-0.4853,-0.6536,-0.8382,-1.0221,-1.1896,-1.3231,-1.3403,-1.3403,-1.3403,-1.3403,-1.3403,-1.3397,-1.3376,-1.339,-1.3397,-1.3376,-1.339,-1.3403,-1.3403,-1.3403,-1.3403,-1.3403,-1.3403,-1.3894,-1.4713,-1.4713,-1.5216,0.0,0.0,0.0,0.0,0.0,0.0,1.2412,0.0,1.116,0.0,0.0,0.0,0.0,0.0,0.0,0.0,0.6971,0.0,0.0,0.0,0.7954,0.8363,0.0,0.0,0.8921,0.8964,0.9106,0.9538,0.94,0.9576,0.9914,1.0143,1.0327,1.0606,1.0754,1.0754,1.0743,1.075,1.0455,1.0167,1.0167,1.0023,0.9735,0.9735,0.9792,0.9759,0.9904,0.9877,0.9829,0.9965,1.003,0.9735,0.7842,0.7377,0.7546,0.5184,0.2356,-0.0,-0.0,-0.0,-0.0,-0.0,-0.0,-0.0,-0.0,-0.0,-0.0,-0.0,-0.0,-0.0,-0.0,-0.0317,-0.096,-0.2399,-0.2574,-0.2593,-0.2622,-0.2619,-0.2623,-0.2665,-0.2673,-0.2673,-0.2673,-0.2673,-0.2845,-0.3696,-0.5373,-0.7212,-0.8883,-1.0721,-1.2229,-1.3231,-1.3403,-1.3403,-1.3403,-1.3403,-1.3403,-1.3403,-1.3403,-1.3403,-1.3403,-1.3403,-1.3403,-1.3403,-1.3403,-1.3403,-1.3403,-1.3403,-1.3735,-1.439,-1.439,-1.4886,1.7113,0.0,0.0,0.0,0.0,0.0,0.0,0.0,0.0,0.0,0.0,0.0,0.0,0.0,0.6369,0.6377,0.0,0.6816,0.6339,0.6836,0.0,0.0,0.0,0.0,0.0,0.8295,0.8522,0.8793,0.8714,0.8958,0.938,0.9582,0.9783,0.9997,1.0138,1.0272,1.0257,1.0293,1.0167,0.9735,0.9735,0.959,0.9302,0.9302,0.9323,0.9367,0.9579,0.9688,0.9731,0.9938,1.0036,0.974,0.6271,0.7068,0.9144,0.2512,-0.0,-0.0,-0.0,-0.0,-0.0,-0.0,-0.0,-0.0,-0.0,-0.0,-0.0,-0.0,-0.0,-0.0,-0.0,-0.0,-0.0323,-0.1615,-0.2114,-0.2298,-0.2653,-0.2653,-0.2656,-0.2687,-0.2692,-0.2692,-0.2692,-0.2692,-0.2692,-0.2692,-0.4703,-0.6543,-0.7881,-1.0055,-1.1896,-1.3231,-1.3403,-1.3403,-1.3403,-1.3403,-1.3403,-1.3403,-1.3403,-1.3403,-1.3403,-1.3403,-1.3403,-1.3403,-1.3403,-1.3403,-1.3403,-1.3403,-1.3569,-1.3901,-1.4066,-1.4563,0.0,0.0,0.0,1.4964,0.0,0.0,0.0,0.0,0.8909,0.0,0.0,0.7396,0.694,0.6725,0.6551,0.6616,0.6513,0.0,0.0,0.0,0.0,0.0,0.0,0.0,0.0,0.7035,0.7298,0.8141,0.7961,0.8194,0.9215,0.9264,0.9453,0.9844,0.9991,0.9992,0.9706,0.9821,0.9735,0.9302,0.9302,0.9302,0.9302,0.9302,0.9367,0.9487,0.9617,0.9731,0.984,0.997,1.0041,0.9599,0.6275,0.7072,0.9159,0.2514,-0.0,-0.0,-0.0,-0.0,-0.0,-0.0,-0.0,-0.0,-0.0,-0.0,-0.0,-0.0,-0.0,-0.0,-0.0,-0.0,-0.0,-0.0,-0.0662,-0.166,-0.2517,-0.2668,-0.2656,-0.2687,-0.2692,-0.2692,-0.2692,-0.2692,-0.2692,-0.2692,-0.5709,-0.7881,-0.8052,-1.1059,-1.3403,-1.3403,-1.3403,-1.3403,-1.3403,-1.3403,-1.3403,-1.3403,-1.3403,-1.3403,-1.3403,-1.3403,-1.3403,-1.3403,-1.3403,-1.3403,-1.3403,-1.3403,-1.3403,-1.3403,-1.3901,-1.4563,0.0,0.0,1.8214,1.6605,0.0,0.0,0.0,0.0,0.0,0.0,0.0,0.7243,0.6827,0.6776,0.673,0.6632,0.6584,0.6475,0.0,0.61,0.0,0.0,0.0,0.0,0.0,0.0,0.6921,0.7427,0.737,0.0,0.8335,0.8603,0.8836,0.9046,0.9177,0.9204,0.9275,0.9314,0.9374,0.9302,0.9302,0.9302,0.9302,0.9302,0.9329,0.9378,0.9579,0.9693,0.9596,0.9954,1.0057,0.9928,0.8812,0.6288,0.3144,0.0785,-0.0,-0.0,-0.0,-0.0,-0.0,-0.0,-0.0,-0.0,-0.0,-0.0,-0.0,-0.0,-0.0,-0.0,-0.0,-0.0,-0.0,-0.0,-0.0167,-0.0671,-0.1513,-0.2181,-0.268,-0.269,-0.2692,-0.2692,-0.2692,-0.3698,-0.4535,-0.4535,-0.6543,-0.8386,-0.9555,-1.1896,-1.3403,-1.3403,-1.3403,-1.3403,-1.3403,-1.3403,-1.3403,-1.3403,-1.3403,-1.3403,-1.3403,-1.3403,-1.3403,-1.3403,-1.3403,-1.3403,-1.3403,-1.3403,-1.3403,-1.3403,-1.3901,-1.4397,1.85,1.8565,0.0,1.6983,1.5773,0.0,1.2254,0.0,0.914,0.0,0.0,0.7337,0.7217,0.7038,0.6855,0.6817,0.6703,0.6497,0.0,0.6056,0.0,0.0,0.0,0.0,0.0,0.6545,0.6698,0.6904,0.7062,0.0,0.0,0.8117,0.8361,0.8524,0.8687,0.8867,0.9068,0.9111,0.9193,0.9302,0.9302,0.9302,0.9302,0.9302,0.9307,0.9329,0.9568,0.9682,0.9559,0.8543,0.8959,0.9933,0.9933,0.5971,-0.0,-0.0,-0.0,-0.0,-0.0,-0.0,-0.0,-0.0,-0.0,-0.0,-0.0,-0.0,-0.0,-0.0,-0.0,-0.0,-0.0,-0.0,-0.0,-0.0,-0.0,-0.0168,-0.0673,-0.1851,-0.2692,-0.2692,-0.2692,-0.2692,-0.2692,-0.4199,-0.5371,-0.5371,-0.7379,-0.9388,-1.0554,-1.2229,-1.3403,-1.3403,-1.3403,-1.3403,-1.3403,-1.3403,-1.3403,-1.3403,-1.3403,-1.3403,-1.3403,-1.3403,-1.3403,-1.3403,-1.3403,-1.3403,-1.3403,-1.3403,-1.3403,-1.3403,-1.4059,-1.439]},{"header":{"parameterUnit":"m.s-1","parameterCategory":1,"la1":30.6,"la2":29.2853,"lo1":-89.7004,"lo2":-87.6739,"dy":0.0162,"dx":0.0183,"nx":112,"ny":82,"refTime":"2024-08-04T12:00:00:Z","depth":0,"parameterNumber":3,"parameterNumberName":"V-component_of_WINDS"},"data":[0.0,0.0,0.0,0.0,0.0,0.0,0.0,0.0,0.0,0.0,0.0,0.0,0.0,0.0,0.0,0.0,0.0,0.0,0.0,0.0,0.0,0.0,0.0,0.0,0.0,0.0,0.0,0.0,0.0,0.0,0.0,0.0,0.0,0.0,0.0,0.0,0.0,0.0,0.0,0.0,0.0,0.0,0.0,0.0,0.0,0.0,0.0,0.0,0.0,0.0,0.0,0.0,0.0,0.0,0.0,0.0,0.0,0.0,0.0,0.0,0.0,0.0,0.0,0.0,0.0,0.0,0.0,0.0,0.0,0.0,0.0,0.0,0.0,0.0,0.0,0.0,0.0,0.0,0.0,0.0,0.0,0.0,0.0,0.0,0.0,0.0,0.0,0.0,0.0,0.0,-1.8448,-1.95,-2.1135,-2.1802,-2.1051,-2.0307,-1.9099,-1.7169,0.0,0.0,0.0,0.0,0.0,0.0,0.0,0.0,0.0,0.0,0.0,0.0,0.0,0.0,0.0,0.0,0.0,0.0,0.0,0.0,0.0,0.0,0.0,0.0,0.0,0.0,0.0,0.0,0.0,0.0,0.0,0.0,0.0,0.0,0.0,0.0,0.0,0.0,0.0,0.0,0.0,0.0,0.0,0.0,0.0,0.0,0.0,0.0,0.0,0.0,0.0,0.0,0.0,0.0,0.0,0.0,0.0,0.0,0.0,0.0,0.0,0.0,0.0,0.0,0.0,0.0,0.0,0.0,0.0,0.0,0.0,0.0,0.0,0.0,0.0,0.0,0.0,0.0,0.0,0.0,0.0,0.0,0.0,0.0,0.0,0.0,0.0,0.0,0.0,0.0,0.0,0.0,0.0,0.0,0.0,0.0,0.0,0.0,0.0,0.0,0.0,0.0,0.0,0.0,-1.9103,-2.1453,-2.2092,-2.2353,-2.2441,-2.1551,-2.0571,-1.9508,0.0,0.0,0.0,0.0,0.0,0.0,0.0,0.0,0.0,0.0,0.0,0.0,0.0,0.0,0.0,0.0,0.0,0.0,0.0,0.0,0.0,0.0,0.0,0.0,0.0,0.0,0.0,0.0,0.0,0.0,0.0,0.0,0.0,0.0,0.0,0.0,0.0,0.0,0.0,0.0,0.0,0.0,0.0,0.0,0.0,0.0,0.0,0.0,0.0,0.0,0.0,0.0,0.0,0.0,0.0,0.0,0.0,0.0,0.0,0.0,0.0,0.0,0.0,0.0,0.0,0.0,0.0,0.0,0.0,0.0,0.0,0.0,0.0,0.0,0.0,0.0,0.0,0.0,0.0,0.0,0.0,0.0,0.0,0.0,0.0,0.0,0.0,0.0,0.0,0.0,0.0,0.0,0.0,0.0,0.0,0.0,0.0,0.0,0.0,0.0,0.0,0.0,0.0,-1.923,-2.0192,-2.2454,-2.2678,-2.2706,-2.2794,-2.1835,-2.0758,-1.9646,-1.7523,0.0,0.0,0.0,0.0,0.0,0.0,0.0,0.0,0.0,0.0,0.0,0.0,0.0,0.0,0.0,0.0,0.0,0.0,0.0,0.0,0.0,0.0,0.0,0.0,0.0,0.0,0.0,0.0,0.0,0.0,0.0,0.0,0.0,0.0,0.0,0.0,0.0,0.0,0.0,0.0,0.0,0.0,0.0,0.0,0.0,0.0,0.0,0.0,0.0,0.0,0.0,0.0,0.0,0.0,0.0,0.0,0.0,0.0,0.0,0.0,0.0,0.0,0.0,0.0,0.0,0.0,0.0,0.0,0.0,0.0,0.0,0.0,0.0,0.0,0.0,0.0,0.0,0.0,0.0,0.0,0.0,0.0,0.0,0.0,0.0,0.0,0.0,0.0,0.0,0.0,0.0,0.0,0.0,0.0,0.0,0.0,0.0,0.0,0.0,0.0,0.0,0.0,-2.072,-2.1326,-2.291,-2.3057,-2.2969,-2.2882,-2.1652,-2.0508,-1.9643,-1.7943,0.0,0.0,0.0,0.0,0.0,0.0,0.0,0.0,0.0,0.0,0.0,0.0,0.0,0.0,0.0,0.0,0.0,0.0,0.0,0.0,0.0,0.0,0.0,0.0,0.0,0.0,0.0,0.0,0.0,0.0,0.0,0.0,0.0,0.0,0.0,0.0,0.0,0.0,0.0,0.0,0.0,0.0,0.0,0.0,0.0,0.0,0.0,0.0,0.0,0.0,0.0,0.0,0.0,0.0,0.0,0.0,0.0,0.0,0.0,0.0,0.0,0.0,0.0,0.0,0.0,0.0,0.0,0.0,0.0,0.0,0.0,0.0,0.0,0.0,0.0,0.0,0.0,0.0,0.0,0.0,0.0,0.0,0.0,0.0,0.0,0.0,0.0,0.0,0.0,0.0,0.0,0.0,0.0,0.0,0.0,0.0,0.0,0.0,0.0,0.0,0.0,0.0,-2.1254,-2.232,-2.3027,-2.3319,-2.3319,-2.3144,-2.115,-2.0146,-2.059,-1.7722,0.0,0.0,0.0,0.0,0.0,0.0,0.0,0.0,0.0,0.0,0.0,0.0,0.0,0.0,0.0,0.0,0.0,0.0,0.0,0.0,0.0,0.0,0.0,0.0,0.0,0.0,0.0,0.0,0.0,0.0,0.0,0.0,0.0,0.0,0.0,0.0,0.0,0.0,0.0,0.0,0.0,0.0,0.0,0.0,0.0,0.0,0.0,0.0,0.0,0.0,0.0,0.0,0.0,0.0,0.0,0.0,0.0,0.0,0.0,0.0,0.0,0.0,0.0,0.0,0.0,0.0,0.0,0.0,0.0,0.0,0.0,0.0,0.0,0.0,0.0,0.0,0.0,0.0,0.0,0.0,0.0,0.0,0.0,0.0,0.0,0.0,0.0,0.0,0.0,0.0,0.0,0.0,0.0,0.0,0.0,0.0,0.0,0.0,0.0,0.0,0.0,0.0,-2.1446,-2.26,-2.3315,-2.4059,-2.4145,-2.3406,-2.2079,-2.1055,-2.029,0.0,0.0,0.0,0.0,0.0,0.0,0.0,0.0,0.0,0.0,0.0,0.0,0.0,0.0,0.0,0.0,0.0,0.0,0.0,0.0,0.0,0.0,0.0,0.0,0.0,0.0,0.0,0.0,0.0,0.0,0.0,0.0,0.0,0.0,0.0,0.0,0.0,0.0,0.0,0.0,0.0,0.0,0.0,0.0,0.0,0.0,0.0,0.0,0.0,0.0,0.0,0.0,0.0,0.0,0.0,0.0,0.0,0.0,0.0,0.0,0.0,0.0,0.0,0.0,0.0,0.0,0.0,0.0,0.0,0.0,0.0,0.0,0.0,0.0,0.0,0.0,0.0,0.0,0.0,0.0,0.0,0.0,0.0,0.0,0.0,0.0,0.0,0.0,0.0,0.0,0.0,0.0,0.0,0.0,0.0,0.0,0.0,0.0,0.0,0.0,0.0,0.0,-2.0529,-2.2271,-2.3635,-2.4386,-2.5147,-2.5316,-2.4488,-2.29,-2.149,-2.0596,0.0,0.0,0.0,0.0,0.0,0.0,0.0,0.0,0.0,0.0,0.0,0.0,0.0,0.0,0.0,0.0,0.0,0.0,0.0,0.0,0.0,0.0,0.0,0.0,0.0,0.0,0.0,0.0,0.0,0.0,0.0,0.0,0.0,0.0,0.0,0.0,0.0,0.0,0.0,0.0,0.0,0.0,0.0,0.0,0.0,0.0,0.0,0.0,0.0,0.0,0.0,0.0,0.0,0.0,0.0,0.0,0.0,0.0,0.0,0.0,0.0,0.0,0.0,0.0,0.0,0.0,0.0,0.0,0.0,0.0,0.0,0.0,0.0,0.0,0.0,0.0,0.0,0.0,0.0,0.0,0.0,0.0,0.0,0.0,0.0,0.0,0.0,0.0,0.0,0.0,0.0,0.0,0.0,0.0,0.0,0.0,0.0,0.0,0.0,0.0,0.0,0.0,-2.1663,-2.386,-2.5622,-2.6453,-2.673,-2.673,-2.6483,-2.3251,-2.1373,0.0,0.0,0.0,0.0,0.0,0.0,0.0,0.0,0.0,0.0,0.0,0.0,0.0,0.0,0.0,0.0,0.0,0.0,0.0,0.0,0.0,0.0,0.0,0.0,0.0,0.0,0.0,0.0,0.0,0.0,0.0,0.0,0.0,0.0,0.0,0.0,0.0,0.0,0.0,0.0,0.0,0.0,0.0,0.0,0.0,0.0,0.0,0.0,0.0,0.0,0.0,0.0,0.0,0.0,0.0,0.0,0.0,0.0,0.0,0.0,0.0,0.0,0.0,0.0,0.0,0.0,0.0,0.0,0.0,0.0,0.0,0.0,0.0,0.0,0.0,0.0,0.0,0.0,0.0,0.0,0.0,0.0,0.0,0.0,0.0,0.0,0.0,0.0,0.0,0.0,0.0,0.0,0.0,0.0,0.0,0.0,0.0,0.0,0.0,0.0,0.0,0.0,0.0,-2.1663,-2.4425,-2.6302,-2.6699,-2.7464,-2.7626,-2.6812,-2.4713,-2.3094,-2.1972,0.0,0.0,0.0,0.0,0.0,0.0,0.0,0.0,0.0,0.0,0.0,0.0,0.0,0.0,0.0,0.0,0.0,0.0,0.0,0.0,0.0,0.0,0.0,0.0,0.0,0.0,0.0,0.0,0.0,0.0,0.0,0.0,0.0,0.0,0.0,0.0,0.0,0.0,0.0,0.0,0.0,0.0,0.0,0.0,0.0,0.0,0.0,0.0,0.0,0.0,0.0,0.0,0.0,0.0,0.0,0.0,0.0,0.0,0.0,0.0,0.0,0.0,0.0,0.0,0.0,0.0,0.0,0.0,0.0,0.0,0.0,0.0,0.0,0.0,0.0,0.0,0.0,0.0,0.0,0.0,0.0,0.0,0.0,0.0,0.0,0.0,0.0,0.0,0.0,0.0,0.0,0.0,0.0,0.0,0.0,0.0,0.0,0.0,0.0,0.0,0.0,0.0,-2.2764,-2.5599,-2.7642,-2.7956,-2.8633,-2.8712,-2.8051,-2.63,-2.4519,-2.2934,0.0,0.0,0.0,0.0,0.0,0.0,0.0,0.0,0.0,0.0,0.0,0.0,0.0,0.0,0.0,0.0,0.0,0.0,0.0,0.0,0.0,0.0,0.0,0.0,0.0,0.0,0.0,0.0,0.0,0.0,0.0,0.0,0.0,0.0,0.0,0.0,0.0,0.0,0.0,0.0,0.0,0.0,0.0,0.0,0.0,0.0,0.0,0.0,0.0,0.0,0.0,0.0,0.0,0.0,0.0,0.0,0.0,0.0,0.0,0.0,0.0,0.0,0.0,0.0,0.0,0.0,0.0,0.0,0.0,0.0,0.0,0.0,0.0,0.0,0.0,0.0,0.0,0.0,0.0,0.0,0.0,0.0,0.0,0.0,0.0,0.0,0.0,0.0,0.0,0.0,0.0,0.0,0.0,0.0,0.0,0.0,0.0,0.0,0.0,0.0,0.0,0.0,-2.4416,-2.7075,-2.9151,-2.9729,-2.9856,-2.9856,-2.9856,-2.7854,-2.5861,-2.4418,0.0,0.0,0.0,0.0,0.0,0.0,0.0,0.0,0.0,0.0,0.0,0.0,0.0,0.0,0.0,0.0,0.0,0.0,0.0,0.0,0.0,0.0,0.0,0.0,0.0,0.0,0.0,0.0,0.0,0.0,0.0,0.0,0.0,0.0,0.0,0.0,0.0,0.0,0.0,0.0,0.0,0.0,0.0,0.0,0.0,0.0,0.0,0.0,0.0,0.0,0.0,0.0,0.0,0.0,0.0,0.0,0.0,0.0,0.0,0.0,-2.0407,-2.0217,0.0,0.0,0.0,0.0,0.0,0.0,0.0,0.0,0.0,0.0,0.0,0.0,0.0,0.0,0.0,0.0,0.0,0.0,0.0,0.0,0.0,0.0,0.0,0.0,0.0,0.0,0.0,0.0,0.0,0.0,0.0,0.0,0.0,0.0,0.0,0.0,0.0,0.0,0.0,0.0,-2.4381,-2.7075,-2.9227,-2.9935,-3.0011,-3.0088,-3.0292,-2.8994,-2.7589,-2.6078,-2.3524,0.0,0.0,0.0,0.0,0.0,0.0,0.0,0.0,0.0,0.0,0.0,0.0,0.0,0.0,0.0,0.0,0.0,0.0,0.0,0.0,0.0,0.0,0.0,0.0,0.0,0.0,0.0,0.0,0.0,0.0,0.0,0.0,0.0,0.0,0.0,0.0,0.0,0.0,0.0,0.0,0.0,0.0,0.0,0.0,0.0,0.0,0.0,0.0,0.0,0.0,0.0,0.0,0.0,0.0,0.0,0.0,0.0,0.0,0.0,-2.2455,-2.1753,0.0,0.0,0.0,0.0,0.0,0.0,0.0,0.0,0.0,0.0,0.0,0.0,0.0,0.0,0.0,0.0,0.0,0.0,0.0,0.0,0.0,0.0,0.0,0.0,0.0,0.0,0.0,0.0,0.0,0.0,0.0,0.0,0.0,0.0,0.0,0.0,0.0,0.0,0.0,0.0,-2.5465,-2.787,-2.9656,-3.019,-3.0216,-3.0292,-3.0368,-2.9648,-2.8686,-2.7374,-2.5948,0.0,0.0,0.0,0.0,0.0,0.0,0.0,0.0,0.0,0.0,0.0,0.0,0.0,0.0,0.0,0.0,0.0,0.0,0.0,0.0,0.0,0.0,0.0,0.0,0.0,0.0,0.0,0.0,0.0,0.0,0.0,0.0,0.0,0.0,0.0,0.0,0.0,0.0,0.0,0.0,0.0,0.0,0.0,0.0,0.0,0.0,0.0,0.0,0.0,0.0,0.0,0.0,0.0,-2.6798,-2.7066,-2.7487,-2.7655,-2.7475,-2.6915,-2.4828,-2.3896,-2.3759,-2.3458,0.0,0.0,0.0,0.0,0.0,0.0,0.0,0.0,0.0,0.0,0.0,0.0,0.0,0.0,0.0,0.0,0.0,0.0,0.0,0.0,0.0,0.0,-2.5018,-2.5518,-2.5773,-2.4944,-2.1374,0.0,0.0,0.0,0.0,0.0,0.0,0.0,0.0,0.0,0.0,0.0,-2.6801,-2.8821,-3.0216,-3.0444,-3.052,-3.0596,-3.0722,-3.0503,-2.9941,-2.9072,-2.8616,-2.7485,0.0,0.0,0.0,0.0,0.0,0.0,0.0,0.0,0.0,0.0,0.0,0.0,0.0,0.0,0.0,0.0,0.0,0.0,0.0,0.0,0.0,0.0,0.0,0.0,0.0,0.0,0.0,0.0,0.0,0.0,0.0,0.0,-2.1644,-2.2763,0.0,0.0,0.0,0.0,0.0,0.0,0.0,0.0,0.0,0.0,0.0,0.0,0.0,-2.9808,-3.0767,-3.1296,-3.1753,-3.1962,-3.1044,-3.0438,-3.0133,-2.9328,-2.8879,-2.8816,-2.8451,0.0,-2.6149,-2.4923,0.0,0.0,0.0,0.0,0.0,0.0,0.0,0.0,0.0,0.0,0.0,0.0,0.0,0.0,0.0,0.0,0.0,0.0,0.0,0.0,0.0,0.0,-2.9047,-2.8339,-2.8526,-2.8386,-2.678,-2.5087,-2.3725,-2.3027,-2.2617,-2.2505,0.0,0.0,0.0,0.0,0.0,0.0,-2.7262,-2.9078,-3.0444,-3.0622,-3.0849,-3.1246,-3.2074,-3.2236,-3.2332,-3.2263,-3.1311,-3.0594,-3.0305,-2.8308,0.0,0.0,0.0,0.0,0.0,0.0,0.0,0.0,0.0,0.0,0.0,0.0,0.0,0.0,0.0,0.0,0.0,0.0,0.0,0.0,0.0,0.0,0.0,0.0,0.0,0.0,0.0,0.0,0.0,-2.1984,-2.3978,-2.4165,-2.4847,-2.4864,0.0,0.0,0.0,0.0,0.0,0.0,0.0,0.0,0.0,-3.0934,-3.167,-3.2179,-3.243,-3.3149,-3.3575,-3.3598,-3.3343,-3.3173,-3.2993,-3.2575,-3.2372,-3.2372,-3.2372,-3.1803,-3.0718,-2.8061,-2.7125,-2.7425,0.0,0.0,0.0,0.0,-2.8072,-2.8025,-2.8138,-2.8162,-2.7892,-2.6605,0.0,0.0,0.0,0.0,0.0,0.0,0.0,-2.75,-2.8217,-2.9453,-3.0418,-3.0286,-3.0343,-3.0358,-2.9784,-2.8913,-2.7595,-2.5382,-2.5073,-2.4979,-2.4203,-2.3929,0.0,0.0,0.0,-2.7717,-2.8497,-3.0217,-3.1442,-3.1589,-3.2146,-3.272,-3.3115,-3.3283,-3.3448,-3.3475,-3.3165,-3.2877,-3.2587,-3.142,-3.0321,0.0,0.0,0.0,0.0,0.0,0.0,0.0,0.0,0.0,0.0,0.0,0.0,0.0,0.0,0.0,0.0,0.0,0.0,0.0,0.0,0.0,0.0,0.0,0.0,0.0,0.0,0.0,0.0,-2.3917,-2.5793,-2.5693,-2.7028,-2.7352,0.0,0.0,0.0,0.0,0.0,0.0,-3.1334,-3.2504,-3.3381,-3.4016,-3.4372,-3.4532,-3.4409,-3.507,-3.5521,-3.5663,-3.5606,-3.5585,-3.5585,-3.5271,-3.5166,-3.5166,-3.5166,-3.4866,-3.4267,-3.1207,-2.9907,-2.9992,-3.0252,-3.0844,-3.1592,-3.2035,-3.2028,-3.1838,-3.2156,-3.2244,-3.1896,-3.0446,-2.9764,-2.9351,-2.8012,0.0,0.0,0.0,0.0,-2.9783,-3.0618,-3.1175,-3.1498,-3.182,-3.1896,-3.1896,-3.1896,-3.1877,-3.1014,-2.8022,-2.7798,-2.7592,-2.6169,-2.6013,0.0,-2.686,-2.8078,-2.9267,-3.0212,-3.1662,-3.2577,-3.272,-3.3325,-3.3876,-3.4013,-3.4283,-3.4485,-3.4684,-3.5082,-3.5095,-3.4696,-3.4581,-3.3856,-3.2529,0.0,0.0,0.0,0.0,0.0,0.0,0.0,0.0,0.0,0.0,0.0,0.0,0.0,0.0,0.0,0.0,0.0,0.0,0.0,0.0,0.0,0.0,0.0,0.0,0.0,0.0,0.0,0.0,0.0,-2.8324,-2.93,0.0,0.0,0.0,0.0,-2.9935,-3.1541,-3.314,-3.473,-3.5805,-3.6597,-3.6985,-3.744,-3.8016,-3.8592,-3.8642,-3.8943,-3.9469,-3.8299,-3.7748,-3.7748,-3.6657,-3.6117,-3.6117,-3.6117,-3.5818,-3.5327,-3.3807,-3.3546,-3.4023,-3.3674,-3.409,-3.4907,-3.3365,-3.3154,-3.3223,-3.1691,-3.1159,-3.1275,-3.1529,-3.1286,-3.1065,-3.1913,-3.1563,0.0,0.0,-3.1833,-3.2415,-3.2852,-3.2943,-3.2968,-3.2993,-3.3139,-3.331,-3.331,-3.3239,-3.2813,-3.1741,-3.1077,-3.0676,-3.0575,0.0,-2.9956,-3.0425,-3.1091,-3.1829,-3.2616,-3.3271,-3.3602,-3.3602,-3.3808,-3.4283,-3.4978,-3.5305,-3.5819,-3.6507,-3.7203,-3.761,-3.7578,-3.7513,-3.7067,-3.6142,-3.3302,0.0,0.0,0.0,0.0,0.0,0.0,0.0,0.0,0.0,0.0,0.0,0.0,0.0,0.0,0.0,0.0,0.0,0.0,0.0,0.0,0.0,0.0,0.0,0.0,0.0,0.0,0.0,0.0,-3.1136,-3.2174,0.0,-3.1647,-3.2097,-3.2701,-3.3233,-3.4414,-3.5638,-3.6855,-3.766,-3.834,-3.8793,-3.8994,-3.9195,-3.9396,-3.9396,-3.9496,-3.9697,-3.9258,-3.9025,-3.9025,-3.8607,-3.8477,-3.8477,-3.8687,-3.8564,-3.816,-3.7882,-3.692,-3.5695,-3.5501,-3.6111,-3.6975,-3.6393,-3.6251,-3.6304,-3.5696,-3.5306,-3.4939,-3.4356,-3.385,-3.3469,-3.3822,-3.3832,-3.3725,-3.3842,-3.4132,-3.4484,-3.4601,-3.4652,-3.4652,-3.4652,-3.474,-3.4638,-3.428,-3.4135,-3.3997,-3.3571,-3.2636,-3.1915,-3.2225,-3.24,-3.2715,-3.3281,-3.3936,-3.4438,-3.4737,-3.5009,-3.5301,-3.5436,-3.5937,-3.6446,-3.6843,-3.7291,-3.77,-3.7962,-3.8246,-3.8414,-3.8525,-3.8482,-3.8114,-3.7306,-3.5756,-3.3441,0.0,0.0,0.0,0.0,0.0,0.0,0.0,0.0,0.0,0.0,0.0,0.0,0.0,0.0,0.0,0.0,0.0,0.0,0.0,0.0,0.0,0.0,0.0,0.0,0.0,-2.9877,-3.1986,-3.3199,-3.4433,-3.4984,-3.4366,-3.4984,-3.5709,-3.6243,-3.7064,-3.7906,-3.8817,-3.9247,-3.9626,-3.9981,-3.9903,-3.9903,-4.0006,-3.9903,-3.9775,-3.9878,-3.9903,-3.9903,-3.9878,-3.9903,-4.0006,-4.0006,-4.0185,-4.0083,-4.0006,-4.0185,-3.9322,-3.7735,-3.7633,-3.7938,-3.8542,-3.8466,-3.839,-3.8266,-3.8164,-3.7862,-3.7531,-3.6799,-3.6286,-3.5831,-3.5831,-3.5796,-3.5734,-3.5734,-3.5916,-3.6045,-3.5865,-3.5814,-3.5763,-3.5557,-3.5506,-3.5491,-3.5131,-3.5375,-3.5647,-3.5588,-3.4415,-3.354,-3.3771,-3.4344,-3.5029,-3.5545,-3.5996,-3.6412,-3.6763,-3.6888,-3.7086,-3.7483,-3.7777,-3.8115,-3.8431,-3.8711,-3.8854,-3.8799,-3.9069,-3.9229,-3.9282,-3.9378,-3.9171,-3.8677,-3.7353,-3.5335,-3.2702,0.0,0.0,0.0,0.0,0.0,0.0,0.0,0.0,0.0,0.0,0.0,0.0,0.0,0.0,0.0,0.0,0.0,0.0,0.0,0.0,0.0,0.0,0.0,-3.0606,-3.2566,-3.436,-3.4554,-3.6185,-3.6934,-3.603,-3.7243,-3.8236,-3.88,-3.9363,-3.9927,-4.0465,-4.0517,-4.0517,-4.0517,-4.0287,-4.0287,-4.0517,-4.0287,-4.0083,-4.0083,-4.0389,-4.0389,-4.0083,-4.0389,-4.0517,-4.0517,-4.0517,-4.0517,-4.0517,-4.0517,-4.0517,-4.0415,-3.9903,-3.9697,-3.9725,-3.9399,-3.9196,-3.8919,-3.8538,-3.8434,-3.8434,-3.8702,-3.8441,-3.8005,-3.8005,-3.7595,-3.7134,-3.7134,-3.7134,-3.698,-3.6442,-3.6379,-3.6251,-3.5711,-3.5734,-3.5911,-3.5885,-3.6936,-3.7896,-3.7896,-3.6689,-3.5705,-3.5598,-3.6146,-3.6881,-3.7396,-3.7306,0.0,-3.867,-3.867,-3.8898,-3.9688,-3.9145,-3.9055,-3.9795,-3.9466,-3.9123,-3.8962,-3.9749,-4.0186,-4.007,-4.0318,-4.0426,-4.0461,-3.8007,-3.6378,-3.5591,0.0,0.0,0.0,0.0,0.0,0.0,0.0,0.0,0.0,0.0,0.0,0.0,0.0,0.0,0.0,0.0,0.0,0.0,0.0,0.0,0.0,-3.6102,-3.7584,-3.5419,-3.6549,-3.7945,-3.8618,-3.886,-3.9102,-3.9205,-3.9517,-3.985,-4.003,-4.0184,-4.0337,-4.0491,-4.0517,-4.0517,-4.0517,-4.0389,-4.0415,-4.0517,-4.0389,-4.0389,-4.0389,-4.0491,-4.0491,-4.0389,-4.0517,-4.0517,-4.0517,-4.0694,-4.0694,-4.0491,-4.0694,-4.0694,-4.0517,-4.0313,-4.0313,-4.0287,-4.0236,-4.0083,-3.9981,-3.952,-3.9341,-3.9265,-3.8928,-3.8697,-3.8569,-3.8569,-3.8376,-3.8007,-3.8007,-3.7909,-3.7664,-3.7508,-3.7482,-3.743,-3.7274,-3.7801,-3.8175,-3.8006,-3.8753,-3.9448,-3.9264,-3.9369,-3.9324,-3.8638,-3.8442,-3.8602,-3.9404,-3.9542,-3.9681,-3.9955,-4.0091,-4.0293,-4.0732,-4.1066,-4.1163,-4.098,-4.1205,-4.1096,-4.0402,-4.0645,-4.0823,-4.0823,-4.0909,-4.113,-4.1442,-3.9157,-3.7822,0.0,0.0,0.0,0.0,0.0,0.0,0.0,0.0,0.0,0.0,0.0,0.0,0.0,0.0,0.0,0.0,0.0,0.0,0.0,0.0,0.0,0.0,-4.0159,-4.1912,-4.112,-4.0914,-4.1023,-4.1524,-4.1612,-4.1763,-4.2084,-4.2137,-4.2137,-4.2137,-4.1981,-4.1839,-4.1839,-4.167,-4.1518,-4.1518,-4.1415,-4.1415,-4.1518,-4.1183,-4.1054,-4.1054,-4.0924,-4.0795,-4.0694,-4.0795,-4.0821,-4.0795,-4.0997,-4.0997,-4.0795,-4.0997,-4.0997,-4.0821,0.0,0.0,0.0,0.0,-4.0593,-4.0642,-4.0333,-4.0205,-4.0153,-3.9917,-3.9633,-3.9427,-3.9427,-3.9494,-3.9521,-3.9521,-3.9719,-3.9916,-3.9609,-3.9617,-3.9625,-3.9353,-3.9711,-4.0006,-3.9758,-4.0516,-4.125,-4.1113,-4.1602,0.0,-4.1505,-4.0661,-4.0416,-4.1186,-4.1075,-4.1091,-4.1525,-4.1598,-4.1811,-4.2419,-4.2601,-4.263,-4.2586,-4.263,0.0,0.0,0.0,-4.1789,-4.1469,-4.1517,0.0,0.0,0.0,0.0,0.0,0.0,0.0,0.0,-4.0886,-4.1071,0.0,0.0,0.0,0.0,0.0,0.0,0.0,0.0,0.0,0.0,0.0,0.0,0.0,0.0,0.0,0.0,-4.3686,-4.5546,-4.6622,-4.5084,-4.3896,-4.3715,-4.404,-4.4312,-4.4312,-4.4369,-4.4425,-4.4425,-4.4125,-4.4021,-4.4021,-4.3632,0.0,0.0,0.0,-4.3075,-4.3412,-4.25,-4.2162,-4.2162,-4.1641,-4.1406,-4.1178,-4.1406,-4.1481,-4.1402,-4.1402,-4.1376,-4.1324,-4.1324,-4.1324,-4.1224,-4.0821,-4.0618,-4.0618,-4.0618,-4.0694,-4.0997,-4.0997,0.0,0.0,-4.1198,-4.1057,-4.071,-4.0683,-4.1031,-4.1387,-4.1479,-4.2216,-4.2792,-4.2193,-4.2138,-4.2081,-4.1424,-4.1337,-4.1363,-4.1363,-4.235,-4.318,-4.3259,-4.3609,-4.4018,-4.4268,-4.2931,-4.207,-4.2829,-4.2262,-4.2141,-4.299,-4.3047,-4.3317,-4.4135,-4.3732,0.0,-4.4285,-4.3831,-4.3358,-4.2969,-4.3156,-4.2982,-4.2411,-4.2408,-4.2878,-4.386,-4.4262,-4.5444,-4.7425,-4.7887,-4.8431,-4.9027,-4.4675,-4.416,0.0,0.0,0.0,0.0,0.0,0.0,0.0,0.0,0.0,0.0,0.0,0.0,0.0,0.0,0.0,-4.4144,-4.5696,-4.6872,-4.7661,-4.7382,-4.6664,-4.5486,-4.4691,-4.4312,-4.4312,-4.4762,-4.5138,-4.5138,-4.5537,-4.5776,-4.5776,-4.5693,-4.565,-4.565,-4.565,-4.565,-4.565,-4.4547,-4.4091,-4.399,-4.3122,0.0,-4.258,-4.2683,-4.2448,-4.2004,-4.2004,-4.1742,-4.1324,-4.1324,-4.1324,-4.1324,-4.1224,-4.1123,-4.1123,-4.1123,-4.1224,-4.1198,-4.1198,-4.1198,-4.1198,-4.1324,-4.1789,-4.2339,-4.2506,-4.2923,0.0,-4.3522,-4.3421,-4.3169,-4.3054,-4.2625,-4.2167,-4.2052,-4.2183,-4.2408,-4.2541,-4.3805,-4.5005,-4.5269,-4.5833,-4.6399,-4.6637,-4.4861,-4.3527,-4.3866,-4.3751,-4.3646,-4.3834,-4.3886,-4.4078,-4.4328,-4.481,-4.4941,-4.4473,-4.4773,-4.4647,-4.3789,-4.4371,-4.4678,-4.4665,-4.4967,-4.5657,-4.6773,-4.7205,-4.8047,-4.9372,-5.0081,-5.0553,-5.0723,-4.9461,-4.9234,0.0,0.0,0.0,0.0,0.0,0.0,0.0,0.0,0.0,0.0,0.0,-4.0166,-4.131,0.0,-4.4481,-4.6168,-4.7221,-4.7904,-4.8072,-4.8133,-4.7849,-4.6959,-4.6491,-4.6254,-4.6576,-4.6807,-4.7066,-4.7478,-4.7405,-4.7463,-4.7463,-4.7291,-4.7165,-4.7165,-4.7165,-4.7264,-4.7363,-4.6361,-4.5896,-4.6067,-4.5121,-4.4683,-4.4683,-4.4683,-4.452,-4.4248,-4.432,-4.4256,-4.3955,-4.3725,-4.3423,-4.315,-4.315,-4.2695,-4.1967,-4.1498,-4.1967,-4.2722,-4.2235,-4.2333,-4.2819,-4.2819,-4.3177,-4.3721,-4.3787,-4.4401,-4.5167,-4.5256,-4.5551,-4.5687,-4.5361,-4.509,-4.4816,-4.4489,-4.4278,-4.4225,-4.471,-4.5179,-4.5737,-4.6314,-4.673,-4.7071,-4.7373,-4.675,-4.6159,-4.5798,-4.5458,-4.5363,-4.5757,-4.5805,-4.5998,-4.6424,-4.643,-4.644,-4.6363,-4.6588,-4.6722,-4.6643,-4.6858,-4.7021,-4.7095,-4.7453,-4.8096,-4.9075,-4.9453,-5.0326,-5.1771,-5.2189,-5.2824,-5.3704,-5.365,-5.3366,0.0,0.0,0.0,0.0,0.0,0.0,0.0,0.0,-4.0339,-4.2096,-4.3287,-4.4526,-4.5913,-4.6354,-4.6748,-4.7862,-4.8348,-4.8521,-4.8355,-4.8385,-4.8301,-4.8133,-4.8049,-4.8238,-4.8905,-4.8826,-4.907,-4.9733,-4.9419,-4.9209,-4.9303,-4.9,-4.8766,-4.8766,-4.8766,-4.8865,-4.9092,-4.8182,-4.7799,-4.8064,-4.719,-4.6769,-4.6769,-4.6769,-4.6712,-4.6599,-4.665,-4.6661,-4.6633,-4.6309,-4.5802,-4.5138,-4.5138,-4.4527,-4.3436,-4.2431,-4.2985,-4.4219,-4.3531,-4.3721,-4.447,-4.447,-4.4656,-4.4995,-4.4995,-4.5929,-4.6842,-4.6929,-4.7563,-4.8232,-4.7711,-4.7548,-4.7465,-4.715,-4.6578,-4.6282,-4.7078,-4.6797,-4.6641,-4.7403,-4.7505,-4.7605,-4.7965,-4.8476,-4.8619,-4.7704,-4.712,-4.7039,-4.766,-4.7748,-4.7885,-4.8486,-4.8041,-4.7997,-4.8578,-4.8598,-4.8886,-4.9664,-4.9492,-4.9408,-4.9477,-4.9739,-5.0296,-5.1209,-5.1537,-5.2563,-5.428,-5.4306,-5.5096,-5.6664,-5.7119,-5.6688,-3.8214,-3.7457,-3.6457,-3.9878,-4.0202,-4.099,0.0,0.0,-4.6116,-4.7039,-4.8264,-4.903,-4.8666,-4.9062,-4.9505,-4.9663,-4.9035,-4.8604,-4.8521,-4.8521,-4.8521,-4.8552,-4.8218,-4.8152,-4.8645,-4.9161,-4.9764,-5.0427,-5.0998,-5.1359,-5.1574,-5.1542,-5.1572,-5.1572,-5.1572,-5.1602,-5.1602,-5.0484,-4.9948,-4.9919,-4.8931,-4.8382,-4.8382,-4.8382,-4.8224,-4.7681,-4.7205,-4.6947,-4.6919,-4.6956,-4.6461,-4.5888,-4.5888,-4.5941,-4.5929,-4.4995,-4.4627,-4.4535,-4.4691,-4.4783,-4.4875,-4.4875,-4.5541,-4.6285,-4.6462,-4.7276,-4.8103,-4.8355,-4.8438,-4.8521,-4.8429,-4.805,-4.7719,-4.8388,-4.8206,-4.7999,-4.8875,-4.9055,-4.9159,-4.9419,-4.9419,-4.9436,-4.9683,-4.9801,-4.9555,-4.8843,-4.8592,-4.8552,-4.8643,-4.8518,-4.8486,-4.8655,-4.8994,-4.9487,-5.0185,-5.0273,-5.0515,-5.1121,-5.112,-5.1225,-5.1528,-5.1593,-5.2243,-5.3595,-5.3708,-5.4756,-5.6725,-5.6767,-5.7292,-5.8258,-5.907,-5.8813,-4.2678,-4.2064,-4.1648,0.0,-4.4778,-4.6075,-4.8714,-4.9177,-4.9244,-5.0023,-5.0979,-5.1361,-5.0489,-5.0574,-5.082,-5.116,-5.0561,-5.02,-5.0612,-5.0327,-5.0073,-5.0073,-4.947,-4.9254,-4.9799,-4.9961,-5.0482,-5.1546,-5.1698,-5.188,-5.2002,-5.2002,-5.2002,-5.2002,-5.2002,-5.2094,-5.2155,-5.1572,-5.1356,-5.1419,-5.0922,-5.0639,-5.0639,-5.0639,-5.0585,-5.0504,-5.0206,-4.997,-4.9703,-4.9314,-4.8985,-4.8686,-4.8327,-4.8085,-4.7902,-4.5747,-4.5631,-4.6491,-4.6018,-4.6285,-4.6755,-4.6755,-4.7103,-4.7563,-4.7649,-4.8103,-4.8521,-4.8604,-4.8604,-4.8769,-4.9358,-4.9299,-4.9316,-5.0177,-4.996,-4.9733,-5.0545,-5.046,-5.0354,-5.0963,-5.1035,-5.1055,-5.1071,-5.1115,-5.0962,-5.0589,-5.0049,-4.9743,-5.0006,-5.0048,-5.0125,-5.0304,-5.0853,-5.1348,-5.1627,-5.1706,-5.2007,-5.2754,-5.2974,-5.315,-5.3282,-5.3694,-5.4417,-5.5479,-5.5723,-5.6515,-5.7892,-5.795,-5.8414,-5.932,-5.9746,-5.992,-4.4952,-4.4974,0.0,-4.709,-4.866,-5.01,-5.0632,-5.1145,-5.1702,-5.2235,-5.2809,-5.2941,-5.2208,-5.1849,-5.1933,-5.2464,-5.1987,-5.1599,-5.215,-5.1761,-5.1297,-5.1102,-5.0615,-5.0422,-5.0996,-5.0444,-5.0651,-5.2267,-5.2031,-5.1881,-5.2155,-5.2185,-5.2185,-5.2185,-5.2185,-5.2246,-5.2397,-5.2246,-5.2246,-5.2397,-5.2246,-5.2185,-5.2185,-5.2185,-5.2246,-5.2397,-5.2397,-5.2242,-5.1959,-5.1436,-5.1036,-5.0636,-5.0143,-4.9627,-4.8858,-4.6785,-4.6899,-4.7964,-4.7306,-4.7563,-4.8133,-4.8133,-4.8301,-4.8355,-4.8355,-4.8687,-4.8934,-4.8934,-4.9147,-4.9519,-5.0242,-5.0474,-5.0703,-5.1671,-5.1564,-5.145,-5.2203,-5.1864,-5.1617,-5.2221,-5.2356,-5.231,-5.2236,-5.2408,-5.2484,-5.2394,-5.1847,-5.1333,-5.1209,-5.1429,-5.179,-5.206,-5.2518,-5.2826,-5.2826,-5.2902,-5.32,-5.3907,-5.4383,-5.4735,-5.4925,-5.5635,-5.6346,-5.7066,-5.7324,-5.7931,-5.8839,-5.8896,-5.9379,-6.0306,-6.0344,-6.0708,0.0,0.0,-4.7525,-5.0032,-5.1165,-5.213,-5.3536,-5.3878,-5.3878,-5.3946,-5.398,-5.398,-5.3915,-5.3315,-5.2967,-5.3456,-5.2869,-5.2346,-5.2215,-5.2215,-5.1923,-5.1167,-5.107,-5.1361,-5.1997,-5.0372,-5.0236,-5.2309,-5.1739,-5.1723,-5.2667,-5.2729,-5.2729,-5.2729,-5.2729,-5.2698,-5.2698,-5.2698,-5.2698,-5.2698,-5.2698,-5.2729,-5.2729,-5.2729,-5.2698,-5.2698,-5.2698,-5.2698,-5.2667,-5.2667,-5.1867,-5.0697,-5.0667,-4.9835,-4.8635,-4.8521,-4.8438,-4.8301,-4.8438,-4.8521,-4.8604,-4.8604,-4.8604,-4.8604,-4.8604,-4.9178,-4.9868,-4.9868,-5.0538,-5.1262,-5.1262,-5.1377,-5.1743,-5.2561,-5.2874,-5.3112,-5.3977,-5.3685,-5.3294,-5.3356,-5.3241,-5.305,-5.3071,-5.3638,-5.4107,-5.4122,-5.4359,-5.3832,-5.2102,-5.2436,-5.3036,-5.3598,-5.3717,-5.3757,-5.3757,-5.3757,-5.3907,-5.4262,-5.5085,-5.5826,-5.6512,-5.7341,-5.8011,-5.8335,-5.8433,-5.8877,-5.9766,-5.99,-6.0383,-6.1273,-6.1311,-6.1384,-4.8295,0.0,-4.9873,-5.1365,-5.2461,-5.343,-5.42,-5.4239,-5.4175,-5.4303,-5.3925,-5.3582,-5.3421,-5.3195,-5.3173,-5.3754,-5.3954,-5.3978,-5.3908,-5.4305,-5.4028,-5.2827,-5.2633,-5.2759,-5.299,-5.1923,-5.1853,-5.3501,-5.335,-5.3585,-5.4369,-5.3922,-5.3577,-5.3577,-5.3024,-5.2698,-5.2698,-5.2698,-5.2698,-5.2698,-5.2698,-5.2698,-5.2698,-5.2698,-5.2698,-5.2698,-5.2698,-5.2698,-5.2667,-5.2847,-5.2918,-5.2856,-5.2386,-5.1664,-5.0849,-5.0849,-5.0172,-4.9309,-4.8769,-4.8604,-4.8687,-4.9228,-4.947,-4.955,-5.0073,-5.0506,-5.0811,-5.0811,-5.1155,-5.1671,-5.2283,-5.2494,-5.2805,-5.3715,-5.3977,-5.4076,-5.4367,-5.4259,-5.424,-5.4635,-5.4688,-5.4705,-5.5004,-5.5288,-5.545,-5.5448,-5.524,-5.4702,-5.3608,-5.3934,-5.4235,-5.4128,-5.4125,-5.4193,-5.443,-5.4952,-5.5319,-5.5448,-5.6459,-5.7177,-5.7456,-5.7896,-5.8539,-5.9321,-5.9379,-5.9901,-6.079,-6.0886,-6.1087,-6.1369,-6.1475,-6.1539,-5.0904,-5.1229,-5.1755,-5.3028,-5.3736,-5.4239,-5.4431,-5.4367,-5.423,-5.3742,-5.3115,-5.2433,-5.2062,-5.1726,-5.2008,-5.343,-5.4219,-5.4735,-5.5145,-5.5755,-5.5719,-5.4431,-5.425,-5.428,-5.4261,-5.3717,-5.3606,-5.4215,-5.4273,-5.4665,-5.5604,-5.5172,-5.4964,-5.5219,-5.4735,-5.4241,-5.3917,-5.3917,-5.3644,-5.3067,-5.3148,-5.3201,-5.3201,-5.3201,-5.3201,-5.3113,-5.2877,-5.2877,-5.3139,-5.3247,-5.3692,-5.407,-5.3624,-5.3018,-5.238,-5.2125,-5.1487,-5.0579,-4.9484,-4.9228,-4.955,-4.9789,-5.0104,-5.0384,-5.0919,-5.141,-5.1704,-5.1704,-5.2137,-5.27,-5.3247,-5.3448,-5.3681,-5.4367,-5.4494,-5.4557,-5.4807,-5.4834,-5.5018,-5.5601,-5.5943,-5.617,-5.6477,-5.6791,-5.6932,-5.701,-5.6731,-5.6153,-5.5133,-5.5269,-5.5397,-5.52,-5.5197,-5.5296,-5.5648,-5.6163,-5.6527,-5.6645,-5.7679,-5.8387,-5.8558,-5.9023,-5.959,-6.0268,-6.0326,-6.0693,-6.1311,-6.1427,-6.1475,-6.1486,-6.1576,-6.1638,-5.2434,-5.2516,-5.3247,-5.5049,-5.5018,-5.4557,-5.4488,-5.4454,-5.4005,-5.2425,-5.1494,-5.0759,-4.9999,-4.9343,-4.978,-5.2551,-5.3724,-5.4727,-5.5826,-5.6641,-5.6809,-5.5818,-5.5784,-5.5818,-5.5784,-5.5852,-5.5497,-5.47,-5.4579,-5.5085,-5.6481,-5.6546,-5.6871,-5.7553,-5.7502,-5.7077,-5.6151,-5.6151,-5.5301,-5.3866,-5.3953,-5.4008,-5.4062,-5.4062,-5.4062,-5.3976,-5.3201,-5.3258,-5.4062,-5.4147,-5.4237,-5.4468,-5.4468,-5.4013,-5.3298,-5.2649,-5.2356,-5.2041,-5.0593,-5.0493,-5.0995,-5.026,-5.0538,-5.1145,-5.122,-5.1882,-5.2594,-5.2594,-5.3382,-5.4239,-5.4239,-5.4367,-5.4494,-5.4494,-5.4494,-5.4745,-5.5284,-5.5461,-5.5601,-5.6221,-5.6912,-5.7364,-5.7364,-5.8015,-5.8572,-5.8656,-5.8698,-5.8141,-5.658,-5.6357,-5.6479,-5.6774,-5.6845,-5.6979,-5.7332,-5.74,-5.7577,-5.7979,-5.877,-5.9403,-5.9843,-6.0577,-6.1022,-6.1118,-6.1234,-6.1311,-6.1311,-6.1503,-6.1617,-6.1634,-6.1666,-6.1693,-5.5547,-5.5502,-5.5917,-5.6588,-5.6298,-5.5433,-5.3742,-5.3428,-5.2997,-5.1346,-4.9986,-4.8942,-4.8498,-4.9363,-5.0349,-5.1094,-5.3867,0.0,-5.5583,-5.7021,-5.7564,-5.6131,-5.6877,-5.7281,-5.6596,-5.7509,-5.8079,-5.7857,-5.7338,-5.7591,-5.9064,-5.8582,-5.8247,-5.8444,-5.7836,-5.7417,-5.7162,-5.6416,-5.5978,-5.5677,-5.5089,-5.4825,-5.4985,-5.4985,-5.4985,-5.4985,-5.4736,-5.4736,-5.5067,-5.5636,-5.5936,-5.6006,-5.6006,-5.5732,-5.5222,-5.4948,-5.4188,-5.3261,-5.2917,-5.2048,-5.122,-5.1704,-5.1993,-5.2208,-5.2836,-5.3382,-5.3749,-5.3683,-5.4045,-5.4431,-5.4431,-5.4431,-5.4494,-5.4494,-5.4834,-5.5224,-5.5402,-5.5716,-5.6221,-5.6809,-5.7546,-5.8133,-5.8186,-5.8449,-5.8656,-5.8698,-5.8698,-5.8364,-5.7323,-5.7414,-5.745,-5.7224,-5.7422,-5.7745,-5.8029,-5.8688,-5.9104,-5.9165,-6.0019,-6.0569,-6.0693,-6.0886,-6.106,-6.1234,-6.1311,-6.1427,-6.1505,-6.1646,-6.1681,-6.1681,-6.1676,-6.1718,-5.9212,-5.8413,-5.7586,-5.7622,-5.6707,-5.524,-5.3047,-5.2427,-5.1564,-4.8886,-4.7738,-4.6777,-4.5524,-4.6857,-4.84,0.0,0.0,0.0,-5.5818,-5.7775,-5.8732,-5.7737,-5.8621,-5.9094,-5.8468,-5.918,-5.9749,-5.9979,-5.9302,-5.937,-6.0554,-6.0125,-6.0023,-6.0357,-5.9923,-5.9482,-5.9067,-5.7807,-5.7281,-5.7339,-5.664,-5.6368,-5.6493,-5.6244,-5.608,-5.608,-5.5763,-5.5763,-5.6192,-5.6658,-5.7072,-5.748,-5.748,-5.7285,-5.6954,-5.6651,-5.601,-5.5201,-5.4527,-5.364,-5.2782,-5.2553,-5.2733,-5.3111,-5.3683,-5.398,-5.4175,-5.411,-5.4303,-5.4494,-5.4494,-5.4494,-5.4494,-5.4494,-5.4957,-5.5461,-5.5716,-5.6276,-5.6861,-5.7546,-5.8088,-5.8437,-5.8572,-5.8656,-5.8698,-5.8698,-5.8698,-5.8595,-5.8271,-5.839,-5.8528,-5.8661,-5.888,-5.9128,-5.9463,-5.9952,-6.0264,-6.0226,-6.071,-6.1021,-6.1041,-6.1041,-6.1138,-6.1311,-6.1352,-6.1485,-6.1601,-6.1654,-6.1718,-6.1711,-6.1711,-6.1707,-6.2308,-6.0946,-5.9023,-5.8718,-5.6861,-5.4542,-5.207,-5.118,-4.9839,-4.6051,0.0,-4.4428,-4.2292,-4.351,-4.562,-4.7873,0.0,-5.4046,-5.6263,-5.8428,-5.9766,-5.9655,-6.0442,-6.0916,-6.0727,-6.0796,-6.1061,-6.1477,-6.0791,-6.0723,-6.14,-6.1467,-6.1738,-6.2459,-6.2459,-6.211,-6.1235,-5.9741,-5.8958,-5.888,-5.8455,-5.8264,-5.8217,-5.7733,-5.7473,-5.7297,-5.6547,-5.6624,-5.7372,-5.7372,-5.7848,-5.849,-5.849,-5.849,-5.8492,-5.7842,-5.7534,-5.7261,-5.5824,-5.5243,-5.4804,-5.3245,-5.3179,-5.3783,-5.398,-5.411,-5.4239,-5.4239,-5.4367,-5.4494,-5.462,-5.462,-5.462,-5.4745,-5.5164,-5.5773,-5.633,-5.6861,-5.7498,-5.8223,-5.8393,-5.848,-5.8656,-5.8698,-5.8698,-5.8781,-5.8781,-5.8905,-5.9325,-5.9287,-5.9568,-6.0349,-6.0456,-6.0647,-6.0976,-6.0997,-6.1,-6.1002,-6.1002,-6.1041,-6.1118,-6.1118,-6.1157,-6.1311,-6.1369,-6.1484,-6.1624,-6.1676,-6.1711,-6.172,-6.172,-6.1768,-6.1971,-6.2413,-6.2022,-6.1985,-5.8417,-5.3836,-4.984,-4.8569,0.0,0.0,-4.3156,-4.2083,-4.1356,-4.3276,-4.563,-4.7558,-5.0768,-5.3878,-5.6391,-5.8117,-5.9322,-5.9801,-6.1067,-6.185,-6.1702,-6.2173,-6.2506,-6.2445,-6.231,-6.2232,-6.2178,-6.2212,-6.2324,-6.2615,-6.2847,-6.277,-6.2381,-6.1346,-6.0898,-6.1042,-6.019,-5.9655,-5.9332,-5.9196,-5.8821,-5.8243,-5.8099,-5.8171,-5.8243,-5.8243,-5.8314,-5.849,-5.849,-5.8631,-5.8701,-5.8564,-5.8152,-5.7467,-5.6575,-5.5754,-5.4971,-5.4185,-5.4011,-5.411,-5.4175,-5.4303,-5.4431,-5.4239,-5.4367,-5.462,-5.5104,-5.5224,-5.5402,-5.5887,-5.6438,-5.6825,-5.7116,-5.769,-5.8223,-5.8349,-5.8443,-5.8529,-5.8656,-5.8698,-5.8784,-5.9065,-5.9103,-5.9359,-6.0112,-5.9924,-5.9855,-6.0376,-6.0704,-6.092,-6.0997,-6.1041,-6.108,-6.1002,-6.1041,-6.1099,-6.1118,-6.1118,-6.1195,-6.1389,-6.1408,-6.151,-6.1662,-6.1676,-6.169,-6.172,-6.172,-6.2071,-6.1945,-6.2815,-6.2398,-6.0698,-5.7107,-5.2528,-4.7053,0.0,0.0,0.0,-4.1247,-4.055,-3.9978,-4.2341,-4.4705,-4.5602,-4.8438,-5.1647,-5.4896,-5.6764,-5.8531,-6.0389,-6.1972,-6.2861,-6.2638,-6.2946,-6.3076,-6.2847,-6.2847,-6.277,-6.2537,-6.2693,-6.277,-6.2847,-6.2923,-6.2923,-6.2847,-6.2391,-6.2222,-6.2302,-6.1554,-6.1163,-6.0926,-6.0247,-5.9698,-5.9354,-5.8942,-5.8736,-5.8736,-5.8736,-5.8736,-5.8736,-5.8736,-5.884,-5.8909,-5.8909,-5.8669,-5.8256,-5.7499,-5.6675,-5.5853,-5.5128,-5.4613,-5.4239,-5.4303,-5.4431,-5.4494,-5.4367,-5.4648,-5.5044,-5.5343,-5.5601,-5.5943,-5.6221,-5.6757,-5.7315,-5.769,-5.8088,-5.8393,-5.8443,-5.8486,-5.8535,-5.8656,-5.8825,-5.9025,-5.9178,-5.9397,-5.9739,-6.0349,-6.0245,-6.0261,-6.0681,-6.086,-6.1002,-6.1041,-6.108,-6.1099,-6.1041,-6.106,-6.1118,-6.1118,-6.1157,-6.1273,-6.1389,-6.1485,-6.1586,-6.1707,-6.169,-6.172,-6.172,-6.2189,-6.2618,-6.1051,-6.1771,-6.1124,-5.8637,-5.6071,-5.2328,-4.5164,-4.3833,0.0,0.0,-3.9753,-3.946,-3.8836,-4.1065,-4.3206,0.0,-4.63,-4.9555,-5.3401,-5.5951,-5.8442,-6.1188,-6.2889,-6.3785,-6.3565,-6.3452,-6.3302,-6.3076,-6.3076,-6.3,-6.277,-6.2923,-6.3076,-6.3076,-6.3152,-6.3152,-6.3076,-6.3076,-6.3076,-6.3076,-6.2644,-6.2375,-6.2243,-6.1183,-6.0599,-6.0392,-5.9599,-5.9254,-5.9254,-5.9081,-5.9012,-5.9012,-5.9012,-5.9012,-5.9012,-5.9012,-5.9012,-5.8909,-5.815,-5.7529,-5.6909,-5.6115,-5.5219,-5.446,-5.4648,-5.4772,-5.4896,-5.4896,-5.5224,-5.5601,-5.5716,-5.6111,-5.6492,-5.6652,-5.7116,-5.7642,-5.8088,-5.8349,-5.848,-5.8529,-5.8492,-5.8572,-5.8656,-5.8986,-5.9252,-5.9325,-5.9673,-6.0091,-6.0456,-6.052,-6.0666,-6.1002,-6.1022,-6.1041,-6.1118,-6.1118,-6.1118,-6.1118,-6.1118,-6.1118,-6.1118,-6.1234,-6.131,-6.1397,-6.153,-6.1607,-6.172,-6.1876,-6.1993,-6.1993,-6.2852,-6.3399,-5.8344,-5.8454,-5.838,-5.8077,-5.781,-5.5059,-4.5642,0.0,-4.1711,-4.0198,-3.9313,-3.8799,-3.8726,-3.9575,-4.1058,-4.3418,0.0,-4.9026,-5.3228,-5.705,-6.0096,-6.1839,-6.3498,-6.4463,-6.4463,-6.3895,-6.3526,-6.3302,-6.3227,-6.3152,-6.3,-6.3152,-6.3227,-6.3227,-6.3452,-6.3452,-6.3302,-6.3227,-6.3227,-6.3227,-6.3233,-6.293,-6.2496,-6.2324,-6.1875,-6.1151,-6.0427,-6.0082,-6.0047,-5.9323,-5.9012,-5.9012,-5.9012,-5.9012,-5.9012,-5.9012,-5.9012,-5.8909,-5.815,-5.7874,-5.7667,-5.6943,-5.6015,-5.5284,-5.5343,-5.5716,-5.6111,-5.6111,-5.6166,-5.633,-5.6809,-5.7015,-5.7166,-5.7726,-5.8088,-5.8305,-5.8179,-5.8443,-5.8614,-5.8492,-5.8614,-5.8698,-5.8698,-5.8986,-5.9325,-5.9673,-6.0061,-6.0403,-6.0911,-6.0955,-6.098,-6.1099,-6.1079,-6.1079,-6.1118,-6.1118,-6.1118,-6.1118,-6.1118,-6.1118,-6.1118,-6.1234,-6.1314,-6.1422,-6.1547,-6.1616,-6.172,-6.2501,-6.2891,-6.2891,-6.375,-6.4609,-5.7969,-5.8033,-5.8024,-5.8024,-5.7973,-5.5447,-4.5685,0.0,-4.1372,-3.957,-3.8542,-3.8138,-3.8615,-3.935,-4.0386,0.0,-4.3175,-4.5364,-4.9385,-5.2294,-5.5489,-5.9442,-6.1411,-6.3024,-6.446,-6.4384,-6.4255,-6.4105,-6.3692,-6.3452,-6.3377,-6.3452,-6.3452,-6.3452,-6.36,-6.36,-6.3452,-6.3452,-6.3452,-6.3452,-6.3452,-6.3353,-6.3151,-6.2703,-6.2324,-6.1944,-6.0737,-6.0185,-6.0151,-5.9323,-5.9012,-5.9012,-5.9012,-5.9012,-5.9012,-5.9012,-5.9249,-5.9547,-5.9299,-5.9102,-5.8959,-5.8275,-5.7988,-5.7652,-5.6447,-5.6184,-5.6276,-5.6276,-5.6546,-5.6861,-5.7065,-5.7401,-5.7726,-5.795,-5.8179,-5.8393,-5.8349,-5.8486,-5.8656,-5.8614,-5.8656,-5.8781,-5.8947,-5.9289,-5.9673,-6.0061,-6.0376,-6.071,-6.0976,-6.0997,-6.1039,-6.1099,-6.1118,-6.1118,-6.1118,-6.1118,-6.1118,-6.1118,-6.1118,-6.1118,-6.1118,-6.1273,-6.1376,-6.1407,-6.2102,-6.2455,-6.2462,-6.336,-6.3789,-6.3789,-6.4687,-6.5273,-5.7715,-5.7994,-5.8015,-5.8015,-5.7993,-5.5455,0.0,-4.2158,-4.0496,-3.9019,-3.8248,-3.8028,-3.8615,-3.9166,-3.99,0.0,-4.1681,-4.3541,-4.7493,-5.0236,-5.3576,-5.8179,-6.0226,-6.2132,-6.4285,-6.5022,-6.5192,-6.4948,-6.4741,-6.4462,-6.4218,-6.4218,-6.4039,-6.36,-6.36,-6.36,-6.36,-6.36,-6.36,-6.36,-6.36,-6.36,-6.3565,-6.3048,-6.2806,-6.2737,-6.1185,-6.053,-6.0461,-5.9426,-5.9012,-5.9012,-5.9012,-5.9012,-5.9012,-5.9182,-5.9582,-6.0001,-6.0156,-6.02,-6.0036,-5.9592,-5.9688,-5.9637,-5.8196,-5.7616,-5.7457,-5.7241,-5.7246,-5.7401,-5.7401,-5.7679,-5.7997,-5.7997,-5.8179,-5.8393,-5.8393,-5.8566,-5.8739,-5.8825,-5.8865,-5.8947,-5.9325,-5.9706,-6.003,-6.0265,-6.0597,-6.0888,-6.0976,-6.0997,-6.1021,-6.1099,-6.1118,-6.1118,-6.1118,-6.1118,-6.1118,-6.1118,-6.1118,-6.1118,-6.1118,-6.1286,-6.1525,-6.1798,-6.2573,-6.3125,-6.3399,-6.4258,-6.4687,-6.4687,-6.5546,-6.5936,-5.7159,-5.7993,-5.7973,-5.7973,-5.7974,-5.5461,-4.5696,-4.1034,-3.874,-3.87,-3.8689,-3.8689,-3.8689,-3.8726,-3.9239,-4.0855,-4.2433,-4.4892,-4.9003,-5.3004,-5.6455,-5.8904,-6.0747,-6.2457,-6.4049,-6.5787,-6.6446,-6.5661,-6.6339,-6.6446,-6.5625,-6.559,-6.4972,-6.3673,-6.36,-6.36,-6.36,-6.36,-6.36,-6.36,-6.36,-6.36,-6.36,-6.36,-6.3565,-6.3496,-6.1944,-6.1289,-6.1185,-5.9633,-5.9012,-5.9012,-5.9012,-5.9012,-5.9081,-5.9779,-6.0001,-6.0065,-6.0676,-6.0879,-6.0879,-6.0879,-6.0783,-6.0648,-6.0648,-6.0522,-6.0199,-5.9381,-5.8621,-5.7997,-5.7997,-5.7997,-5.7997,-5.7997,-5.8179,-5.8393,-5.8393,-5.8566,-5.8784,-5.914,-5.9215,-5.9325,-5.9706,-6.0091,-6.0293,-6.0293,-6.0622,-6.0933,-6.0976,-6.1,-6.1022,-6.1079,-6.1118,-6.1118,-6.1118,-6.1118,-6.1118,-6.1118,-6.1118,-6.1118,-6.1118,-6.1278,-6.182,-6.2657,-6.2887,-6.3438,-6.4297,-6.5155,-6.5585,-6.5624,-6.6405,-6.6795,-5.3274,-5.4723,-5.4716,-5.4716,-5.4725,-5.2716,-4.5222,-4.1022,-3.872,-3.8695,-3.8689,-3.8689,-3.8689,-3.8689,-3.979,-4.3057,0.0,0.0,-4.9848,-5.2931,-5.5868,-5.8877,-6.2728,-6.538,-6.5904,-6.6002,-6.6339,-6.7195,-6.6446,-6.6089,-6.6375,-6.5875,-6.5397,-6.4972,-6.4532,-6.4532,-6.4972,-6.4532,-6.4532,-6.4972,-6.4532,-6.4532,-6.4972,-6.4463,-6.4532,-6.4902,-6.3912,-6.317,-6.2605,-6.1581,-6.0839,-6.0309,-6.0309,-6.0309,-6.0309,-6.0555,-6.095,-6.13,-6.1528,-6.186,-6.2166,-6.1696,-6.1824,-6.2047,-6.1642,-6.0996,-6.0346,-6.0089,-5.9465,-5.8841,-5.8841,-5.84,-5.8143,-5.8694,-5.8584,-5.8688,-5.9797,-5.9752,-5.9789,-6.0716,-6.0454,-6.0299,-6.086,-6.0581,-6.0376,-6.0597,-6.0781,-6.0933,-6.0976,-6.1,-6.1022,-6.1079,-6.1118,-6.1118,-6.1118,-6.1118,-6.1118,-6.1118,-6.1118,-6.1389,-6.1969,-6.2185,-6.2698,-6.3559,-6.4373,-6.4921,-6.5194,-6.6014,-6.6405,-6.6444,-6.7303,-6.7693,0.0,-4.8822,-4.7868,-4.7868,-4.779,-4.7043,-4.4291,-4.1107,-3.8706,-3.8719,-3.8719,-3.8689,-3.8689,-3.8977,-4.011,-4.2907,-4.3899,0.0,0.0,-5.2674,-5.5941,-6.0089,-6.3889,-6.6162,-6.6223,-6.662,-6.7125,-6.7847,-6.7234,-6.6909,-6.7125,-6.6656,-6.6368,-6.6368,-6.5497,-6.5171,-6.559,-6.5171,-6.5171,-6.559,-6.5171,-6.5237,-6.559,-6.5171,-6.5237,-6.5518,-6.4483,-6.3734,0.0,-6.2128,-6.1379,-6.0879,-6.0879,-6.0879,-6.0974,-6.1207,-6.1528,-6.1951,-6.2166,-6.2464,-6.2755,-6.236,-6.2464,-6.2755,-6.236,-6.1601,-6.086,-6.086,-6.0272,-5.9648,-5.9648,-5.9281,-5.9024,-5.9538,-5.9421,-5.953,-6.0572,-6.0661,-6.0778,-6.1695,-6.1611,-6.1543,-6.2098,-6.1759,-6.1505,-6.1719,-6.1813,-6.1918,-6.1962,-6.1986,-6.2008,-6.2085,-6.2085,-6.2085,-6.2085,-6.1466,-6.1234,-6.1582,-6.1582,-6.1968,-6.2887,-6.3118,-6.36,-6.4531,-6.523,-6.5741,-6.6053,-6.6561,-6.6951,-6.7303,-6.7849,-6.8279,0.0,-4.1254,-3.9107,-3.9077,-3.8925,-3.9593,-4.2876,-4.1083,0.0,-3.87,-3.8676,-3.8762,-3.9013,-3.959,-4.0425,-4.1609,-4.3082,-4.544,-4.9524,-5.2936,-5.7005,-6.2438,-6.4494,-6.5485,-6.5485,-6.7504,-6.8531,-6.7834,-6.8421,-6.8495,-6.7797,-6.7724,-6.7687,-6.7687,-6.6427,-6.5716,-6.5716,-6.5716,-6.5716,-6.5716,-6.5716,-6.5716,-6.5716,-6.5716,-6.5716,-6.5645,-6.4215,-6.3571,-6.3392,-6.1819,-6.114,-6.1104,-6.1033,-6.1033,-6.1149,-6.1751,-6.1951,-6.2059,-6.2603,-6.2805,-6.2805,-6.2805,-6.2805,-6.2805,-6.2805,-6.2291,-6.1704,-6.1704,-6.1117,-6.0493,-6.0493,-6.0456,-6.0419,-6.0493,-6.0551,-6.0692,-6.0987,-6.1358,-6.1769,-6.2315,-6.2642,-6.3006,-6.3347,-6.3358,-6.332,-6.332,-6.3415,-6.3505,-6.3505,-6.3611,-6.371,-6.371,-6.371,-6.371,-6.371,-6.2201,-6.1621,-6.2433,-6.2511,-6.293,-6.3858,-6.4042,-6.4526,-6.5467,-6.5609,-6.6053,-6.6795,-6.6873,-6.7303,-6.8083,-6.8239,-6.8708,-3.6081,0.0,-3.9118,-3.909,-3.9044,-3.9221,0.0,-3.9608,-3.8936,0.0,0.0,0.0,-4.2063,-4.1261,-4.1899,-4.7019,-4.8053,-4.9632,-5.3718,-5.8042,-6.2034,-6.5264,-6.6512,-6.7136,-6.7136,-6.765,-6.8164,-6.8605,-6.8201,-6.8164,-6.8605,-6.8017,-6.7687,-6.7687,-6.7378,-6.723,-6.723,-6.6736,-6.6736,-6.723,-6.6677,-6.6736,-6.7174,-6.6677,-6.6736,-6.7193,-6.6828,-6.6318,-6.5697,-6.4712,-6.3909,-6.3288,-6.2579,-6.2324,-6.2376,-6.2515,-6.2618,-6.2718,-6.2805,-6.2855,-6.2953,-6.2805,-6.2805,-6.2805,-6.2805,-6.2695,-6.2511,-6.2511,-6.1924,-6.1349,-6.1434,-6.1003,-6.0719,-6.1439,-6.1237,-6.1352,-6.2891,-6.2882,-6.2975,-6.4318,-6.4092,-6.3858,-6.4232,-6.3743,-6.332,-6.332,-6.3415,-6.3505,-6.3505,-6.3611,-6.371,-6.371,-6.371,-6.3729,-6.3768,-6.3342,-6.3207,-6.3458,-6.3458,-6.3912,-6.492,-6.5042,-6.5492,-6.6365,-6.6471,-6.66,-6.6795,-6.7459,-6.7888,-6.8122,-6.9489,-7.0191,-3.4179,-3.5514,-3.6841,-3.6851,-3.6833,-3.6842,-3.685,0.0,0.0,0.0,0.0,0.0,0.0,0.0,0.0,0.0,-4.9268,-5.1761,-5.7132,-6.1055,-6.431,-6.6769,-6.743,-6.7687,-6.7687,-6.7687,-6.7871,-6.8311,-6.7944,-6.7871,-6.8311,-6.7944,-6.7687,-6.7687,-6.7687,-6.7687,-6.7687,-6.7322,-6.7322,-6.7687,-6.7322,-6.7378,-6.7687,-6.7322,-6.7378,-6.765,-6.7283,-6.6932,-6.6544,-6.5735,-6.4926,-6.4217,-6.3739,-6.3284,-6.2953,-6.2953,-6.3002,-6.3099,-6.3002,-6.3002,-6.3051,-6.3002,-6.2953,-6.2953,-6.2953,-6.2953,-6.2855,-6.2805,-6.2511,-6.2194,-6.2291,-6.2008,-6.1882,-6.2658,-6.2569,-6.263,-6.3949,-6.403,-6.4203,-6.5092,-6.5073,-6.4945,-6.518,-6.482,-6.4474,-6.4474,-6.4571,-6.4663,-6.4663,-6.477,-6.487,-6.4909,-6.4948,-6.4986,-6.5083,-6.5054,-6.4876,-6.4522,-6.4488,-6.4935,-6.5901,-6.5975,-6.6246,-6.6754,-6.7164,-6.7381,-6.7381,-6.8279,-6.8903,-6.9333,-7.027,-7.0889,-3.4064,-3.4212,-3.4576,-3.6066,-3.6442,-3.6179,-3.5184,0.0,0.0,0.0,0.0,0.0,0.0,-4.2742,0.0,0.0,0.0,-5.3524,-6.0052,-6.2768,-6.4971,-6.7393,-6.7687,-6.7687,-6.7687,-6.7687,-6.7687,-6.7687,-6.7687,-6.7687,-6.7687,-6.7687,-6.7687,-6.7687,-6.7687,-6.7687,-6.7687,-6.7687,-6.7687,-6.7687,-6.7687,-6.7687,-6.7687,-6.7687,-6.7687,-6.765,-6.699,-6.6765,-6.6795,-6.6022,-6.5349,-6.4746,-6.4524,-6.4007,-6.3379,-6.3268,-6.3194,-6.3194,-6.3194,-6.3231,-6.3194,-6.3194,-6.3194,-6.3194,-6.3194,-6.3099,-6.3002,-6.2904,-6.2855,-6.2855,-6.3002,-6.3099,-6.3299,-6.3718,-6.393,-6.4056,-6.4518,-6.4866,-6.5199,-6.5359,-6.5663,-6.5897,-6.5897,-6.5897,-6.5897,-6.5897,-6.5958,-6.6013,-6.6013,-6.6123,-6.6263,-6.6379,-6.6379,-6.6456,-6.6611,-6.664,-6.6295,-6.5587,-6.5542,-6.5892,-6.6696,-6.6708,-6.6797,-6.699,-6.7732,-6.8161,-6.8318,-6.9176,-6.9996,-7.0699,-7.0855,-7.1279,-3.3475,-3.4219,-3.6206,-4.4541,-4.6646,-4.5181,0.0,0.0,0.0,0.0,0.0,0.0,0.0,-4.1716,-4.5773,0.0,0.0,-5.7483,-6.2768,-6.387,-6.4971,-6.7393,-6.7687,-6.7687,-6.7687,-6.7687,-6.7687,-6.7687,-6.7687,-6.7687,-6.7687,-6.7687,-6.7687,-6.7687,-6.7687,-6.7687,-6.7687,-6.7687,-6.7687,-6.7687,-6.7687,-6.7687,-6.7687,-6.7687,-6.7687,-6.7687,-6.7577,-6.761,-6.7642,-6.6832,-6.6529,-6.6371,-6.4967,-6.4339,-6.4155,-6.3453,-6.3242,-6.3336,-6.3336,-6.3289,-6.3194,-6.3194,-6.3194,-6.3194,-6.3194,-6.3184,-6.3147,-6.3147,-6.3051,-6.3002,-6.3099,-6.3527,-6.3883,-6.4091,-6.4369,-6.4664,-6.5073,-6.5238,-6.5359,-6.5755,-6.5872,-6.5897,-6.5897,-6.5897,-6.5897,-6.5897,-6.5958,-6.6013,-6.6013,-6.6123,-6.6263,-6.6379,-6.6379,-6.6456,-6.665,-6.6671,-6.669,-6.667,-6.6535,-6.6606,-6.6862,-6.6817,-6.7121,-6.7888,-6.8044,-6.8474,-6.9215,-7.0074,-7.0582,-7.0738,-7.1441,-7.187,-3.3348,-3.8079,-4.361,-4.9683,-4.8708,-4.5482,0.0,0.0,0.0,0.0,0.0,0.0,0.0,0.0,-4.8818,-5.7137,0.0,-6.0933,-6.3686,-6.4861,-6.5962,-6.7504,-6.7687,-6.7687,-6.7687,-6.7687,-6.7687,-6.7687,-6.7687,-6.7687,-6.7687,-6.7687,-6.7687,-6.7687,-6.7687,-6.7687,-6.7687,-6.7687,-6.7687,-6.7687,-6.7687,-6.7687,-6.7687,-6.7794,-6.7794,-6.7847,-6.7899,-6.8004,-6.807,-6.77,-6.7395,-6.6975,-6.579,-6.5012,-6.453,-6.3715,-6.3465,-6.3511,-6.3511,-6.3465,-6.3419,-6.3419,-6.3419,-6.3419,-6.3419,-6.3373,-6.3289,-6.3289,-6.3194,-6.3194,-6.3527,-6.3798,-6.4131,-6.4666,-6.4909,-6.5137,-6.5513,-6.5635,-6.5663,-6.5872,-6.5897,-6.5897,-6.5897,-6.5897,-6.5897,-6.5897,-6.5958,-6.6013,-6.6013,-6.62,-6.634,-6.6495,-6.6533,-6.6611,-6.6786,-6.6828,-6.6819,-6.6897,-6.6845,-6.6848,-6.6917,-6.7303,-6.7693,-6.8083,-6.902,-6.9684,-7.0113,-7.0972,-7.1402,-7.1402,-7.1792,-7.1982,-3.3328,-3.9687,-4.6344,0.0,0.0,0.0,0.0,0.0,0.0,0.0,0.0,0.0,0.0,-4.8407,0.0,-6.1476,-6.3124,-6.37,-6.4471,-6.5668,-6.6806,-6.7577,-6.7687,-6.7687,-6.7687,-6.7687,-6.7687,-6.7687,-6.7687,-6.7687,-6.7687,-6.7687,-6.7687,-6.7687,-6.7687,-6.7741,-6.7741,-6.7741,-6.7687,-6.7687,-6.7687,-6.7687,-6.7687,-6.7794,-6.7899,-6.7899,-6.7967,-6.8158,-6.8309,-6.8309,-6.7988,-6.7503,-6.65,-6.5459,-6.4456,-6.3825,-6.3602,-6.3602,-6.3602,-6.3602,-6.3602,-6.3602,-6.3647,-6.3742,-6.3742,-6.3705,-6.3668,-6.3668,-6.3624,-6.3624,-6.3925,-6.4172,-6.4483,-6.5144,-6.5359,-6.5513,-6.5808,-6.5897,-6.5897,-6.5897,-6.5897,-6.5897,-6.5897,-6.5897,-6.5897,-6.5923,-6.5982,-6.6013,-6.6052,-6.6278,-6.6456,-6.6611,-6.665,-6.6748,-6.6881,-6.6895,-6.6992,-6.7185,-6.718,-6.7168,-6.7185,-6.7966,-6.8513,-6.8708,-7.0035,-7.0816,-7.1011,-7.1675,-7.1987,-7.1987,-7.1987,-7.193,-3.334,-3.4724,-3.6772,-4.3087,0.0,0.0,0.0,0.0,0.0,0.0,0.0,0.0,0.0,-5.511,-5.8492,-6.2197,-6.4083,-6.5294,-6.5919,-6.6308,-6.6806,-6.7577,-6.7687,-6.7687,-6.7687,-6.7687,-6.7687,-6.7687,-6.7687,-6.7687,-6.7687,-6.7687,-6.7687,-6.7687,-6.7687,-6.7741,-6.7899,-6.7794,-6.7687,-6.7687,-6.7687,-6.7687,-6.7687,-6.7687,-6.7794,-6.7899,-6.7899,-6.8055,-6.8309,-6.8309,-6.8321,-6.8283,-6.6722,-6.5125,-6.3676,-6.3639,-6.3602,-6.3602,-6.3602,-6.3602,-6.3602,-6.3602,-6.3873,-6.4169,-6.4169,-6.4369,-6.4628,-6.4628,-6.4592,-6.4519,-6.4094,-6.4593,-6.5238,-6.5268,-6.5608,-6.5872,-6.5897,-6.5897,-6.5897,-6.5897,-6.5897,-6.5897,-6.5897,-6.5897,-6.5923,-6.5996,-6.6005,-6.6052,-6.6251,-6.6337,-6.6456,-6.665,-6.6688,-6.6742,-6.6904,-6.6913,-6.7261,-6.8049,-6.8066,-6.8027,-6.8005,-6.8864,-6.9684,-7.0504,-7.066,-7.1089,-7.1909,-7.1987,-7.1987,-7.1987,-7.1987,-7.1862,-3.3855,-3.4193,-3.5271,0.0,0.0,0.0,0.0,0.0,0.0,0.0,0.0,0.0,0.0,0.0,-5.9375,-6.2324,-6.3358,-6.42,-6.5411,-6.6549,-6.7357,-6.765,-6.7687,-6.7687,-6.7687,-6.7687,-6.7687,-6.7687,-6.7687,-6.7687,-6.7687,-6.7687,-6.7687,-6.7687,-6.7687,-6.7794,-6.7899,-6.7847,-6.7899,-6.7952,-6.7794,-6.7741,-6.7847,-6.7899,-6.8055,-6.8158,-6.8259,-6.8358,-6.8408,-6.8408,-6.8457,-6.8357,-6.6722,-6.5088,-6.3602,-6.3602,-6.3602,-6.3602,-6.3602,-6.3742,-6.3963,-6.3963,-6.4212,-6.452,-6.452,-6.4592,-6.4699,-6.4699,-6.4871,-6.5041,-6.4875,-6.5041,-6.5359,-6.5608,-6.5781,-6.5897,-6.5897,-6.5897,-6.5897,-6.5897,-6.5897,-6.5897,-6.5897,-6.5947,-6.6126,-6.6651,-6.69,-6.7239,-6.7818,-6.806,-6.8044,-6.756,-6.7567,-6.7649,-6.7695,-6.8203,-6.8629,-6.8942,-6.8414,-6.834,-6.8903,-6.9762,-7.0348,-7.0699,-7.1245,-7.1675,-7.1987,-7.1987,-7.2197,-7.2617,-7.2617,-7.2768,-3.4213,-3.422,-3.595,0.0,0.0,0.0,0.0,0.0,0.0,0.0,0.0,0.0,0.0,0.0,0.0,0.0,-6.2132,-6.3548,-6.5757,-6.7006,-6.7704,-6.7687,-6.7687,-6.7687,-6.7687,-6.7687,-6.7687,-6.7687,-6.7687,-6.7687,-6.7687,-6.7741,-6.7741,-6.7687,-6.7794,-6.7899,-6.7967,-6.7967,-6.8055,-6.8158,-6.7952,-6.7899,-6.8004,-6.8055,-6.8208,-6.8309,-6.8408,-6.8457,-6.8506,-6.8506,-6.8357,-6.8023,-6.6908,-6.5459,-6.401,-6.401,-6.401,-6.3936,-6.3854,-6.4337,-6.4963,-6.4819,-6.5197,-6.5703,-6.5703,-6.577,-6.5874,-6.5874,-6.6101,-6.6289,-6.6289,-6.5906,-6.558,-6.5808,-6.5897,-6.5897,-6.5897,-6.609,-6.6282,-6.6282,-6.6513,-6.659,-6.6346,-6.6588,-6.6907,-6.7263,-6.7718,-6.8287,-6.8928,-6.9185,-6.909,-6.8511,-6.8546,-6.8594,-6.8594,-6.9139,-6.956,-6.9811,-6.9234,-6.9191,-6.9801,-7.066,-7.1128,-7.1128,-7.1714,-7.1976,-7.1916,-7.1916,-7.2257,-7.2913,-7.2913,-7.3239,-3.4249,-3.4303,0.0,0.0,0.0,0.0,0.0,0.0,0.0,0.0,0.0,0.0,0.0,0.0,0.0,-5.8055,-6.0701,-6.3929,-6.72,-6.7715,-6.7684,-6.765,-6.7687,-6.7687,-6.7687,-6.7687,-6.7687,-6.7687,-6.7687,-6.7687,-6.7687,-6.7847,-6.7847,-6.7687,-6.7952,-6.807,-6.807,-6.807,-6.8158,-6.8309,-6.8208,-6.807,-6.807,-6.807,-6.8208,-6.8309,-6.8309,-6.8358,-6.8506,-6.8506,-6.8023,-6.7317,-6.7317,-6.6277,-6.4828,-6.4828,-6.4828,-6.4725,-6.4346,-6.5339,-6.6623,-6.6181,-6.6836,-6.7814,-6.7814,-6.81,-6.8398,-6.8398,-6.8398,-6.8398,-6.8398,-6.7167,-6.5897,-6.5897,-6.5897,-6.5897,-6.5897,-6.6551,-6.709,-6.709,-6.7821,-6.8155,-6.7358,-6.7923,-6.828,-6.7702,-6.8342,-6.9005,-6.9303,-6.9303,-6.9352,-6.9489,-6.9453,-6.9453,-6.9492,-6.9475,-6.9772,-7.065,-7.0714,-7.0699,-7.0699,-7.1558,-7.1987,-7.1987,-7.1987,-7.1916,-7.17,-7.17,-7.2056,-7.2724,-7.2707,-7.2987,-3.8925,0.0,0.0,0.0,0.0,0.0,0.0,0.0,0.0,0.0,0.0,0.0,0.0,0.0,0.0,-6.1385,-6.2181,-6.3122,-6.4127,-6.6234,-6.7426,-6.6659,-6.7247,-6.7687,-6.7687,-6.7687,-6.7687,-6.7687,-6.7794,-6.7794,-6.7687,-6.7952,-6.8004,-6.7847,-6.7967,-6.8158,-6.8259,-6.8259,-6.8309,-6.8457,-6.8717,-6.8734,-6.8642,-6.8371,-6.8468,-6.8863,-6.8565,-6.8457,-6.8506,-6.8506,-6.8023,-6.7317,-6.7317,-6.6648,-6.5719,-6.5719,-6.5911,-6.6106,-6.597,-6.6636,-6.7445,-6.7316,-6.7684,-6.8224,-6.8224,-6.8317,-6.8398,-6.8398,-6.8398,-6.8398,-6.8398,-6.8039,-6.7744,-6.7667,-6.7667,-6.7667,-6.7667,-6.7859,-6.8013,-6.8013,-6.8257,-6.8398,-6.8154,-6.8497,-6.8915,-6.9285,-6.9761,-7.0365,-7.109,-7.0648,-7.0284,-7.0351,-7.0312,-7.0312,-7.0351,-7.0881,-7.1329,-7.1607,-7.1602,-7.1597,-7.1597,-7.187,-7.1987,-7.1987,-7.1862,-7.1846,-7.1916,-7.1653,-7.2267,-7.3601,-7.3431,-7.3997,-3.9695,0.0,0.0,0.0,0.0,0.0,0.0,0.0,0.0,0.0,0.0,0.0,0.0,-6.1691,0.0,-6.2794,-6.2818,-6.2792,-6.2764,-6.4479,-6.5815,-6.6072,-6.6476,-6.6932,-6.7279,-6.7316,-6.7463,-6.7757,-6.7899,-6.7952,-6.7794,-6.8055,-6.8158,-6.7967,-6.8334,-6.8528,-6.8528,-6.8575,-6.867,-6.8717,-6.8997,-6.9134,-6.9223,-6.8959,-6.9047,-6.9344,-6.8908,-6.866,-6.8506,-6.8506,-6.8304,-6.8008,-6.8008,-6.7621,-6.7048,-6.7048,-6.718,-6.7388,-6.7203,-6.787,-6.8769,-6.8587,-6.8953,-6.9398,-6.9398,-6.9398,-6.9398,-6.9425,-6.9425,-6.9451,-6.9477,-6.9502,-6.9335,-6.8604,-6.845,-6.8475,-6.8475,-6.8745,-6.8976,-6.8976,-6.9296,-6.9437,-6.9191,-6.9571,-7.0004,-7.0242,-7.0765,-7.136,-7.1912,-7.1523,-7.1211,-7.1211,-7.1211,-7.121,-7.1205,-7.1702,-7.1997,-7.1987,-7.1987,-7.1987,-7.1987,-7.1987,-7.1987,-7.1987,-7.187,-7.1789,-7.1809,-7.1612,-7.2287,-7.3812,-7.3625,-7.4379,0.0,0.0,0.0,0.0,0.0,0.0,0.0,0.0,0.0,0.0,0.0,0.0,-6.2818,-6.2806,-6.2781,-6.2768,-6.2805,-6.2792,-6.2815,-6.2801,-6.3548,-6.5573,-6.5485,-6.5647,-6.65,-6.6574,-6.6905,-6.7657,-6.7797,-6.7834,-6.7841,-6.8047,-6.8185,-6.8171,-6.8772,-6.9047,-6.8966,-6.9091,-6.9176,-6.9176,-6.9219,-6.9388,-6.974,-6.9702,-6.9702,-6.9664,-6.9306,-6.8952,-6.8613,-6.8613,-6.8809,-6.9176,-6.9176,-6.8935,-6.8603,-6.8603,-6.864,-6.8599,-6.8183,-6.9037,-7.0286,-6.9931,-7.0321,-7.0898,-7.0898,-7.0925,-7.0925,-7.1005,-7.1005,-7.103,-7.1081,-7.1106,-7.072,-6.9128,-6.8805,-6.8829,-6.8829,-6.9447,-6.9987,-7.0025,-7.0604,-7.0937,-7.0367,-7.0908,-7.1286,-7.0796,-7.1433,-7.1992,-7.1992,-7.1992,-7.1992,-7.1992,-7.1992,-7.1989,-7.1997,-7.201,-7.201,-7.1987,-7.1987,-7.1987,-7.1987,-7.1987,-7.1987,-7.1987,-7.1976,-7.1819,-7.1513,-7.1465,-7.2169,-7.3504,-7.3514,-7.4312,0.0,0.0,0.0,0.0,0.0,0.0,0.0,0.0,0.0,0.0,0.0,-6.2781,-6.2805,-6.2768,-6.2818,-6.2805,-6.2805,-6.2805,-6.2792,-6.2815,-6.2947,-6.3438,-6.4552,-6.5426,-6.5727,-6.5764,-6.5851,-6.6099,-6.6199,-6.6544,-6.7059,-6.7346,-6.7895,-6.8734,-6.8959,-6.9261,-6.9548,-6.9548,-6.9548,-6.9587,-6.9887,-7.0099,-7.0133,-6.9851,-6.9702,-6.9702,-6.9587,-6.9508,-6.9428,-6.9428,-6.9468,-6.9548,-6.9548,-6.9512,-6.9437,-6.9437,-6.9621,-6.99,-6.9807,-7.0226,-7.0777,-7.0679,-7.0771,-7.0979,-7.0979,-7.1005,-7.1056,-7.1081,-7.1081,-7.1081,-7.1106,-7.113,-7.1062,-7.0714,-7.059,-7.0566,-7.0566,-7.072,-7.0874,-7.0979,-7.1183,-7.1309,-7.1284,-7.151,-7.1705,-7.1702,-7.1871,-7.1992,-7.1992,-7.1992,-7.1992,-7.1992,-7.1992,-7.1992,-7.199,-7.2014,-7.1993,-7.1987,-7.1987,-7.1987,-7.1987,-7.1987,-7.1987,-7.1987,-7.1739,-7.1615,-7.1665,-7.1239,-7.1941,-7.365,-7.337,-7.4221,0.0,0.0,0.0,0.0,0.0,0.0,0.0,0.0,0.0,0.0,0.0,-6.2804,-6.2818,-6.2806,-6.2806,-6.2806,-6.2806,-6.2806,-6.2806,-6.2917,-6.2978,-6.2978,-6.3763,-6.4525,-6.5041,-6.5078,-6.5226,-6.5693,-6.5864,-6.6049,-6.6359,-6.6627,-6.7058,-6.776,-6.8056,-6.8375,-6.878,-6.878,-6.878,-6.878,-6.9404,-7.0018,-7.0593,-7.0369,-7.0167,-6.9995,-6.9995,-6.9887,-6.9702,-6.9702,-6.9814,-6.9995,-6.9995,-7.0099,-7.0271,-7.0271,-7.04,-7.0593,-7.0593,-7.0748,-7.0952,-7.0952,-7.1005,-7.1056,-7.1056,-7.1081,-7.1106,-7.113,-7.1154,-7.1154,-7.1279,-7.1302,-7.1363,-7.1402,-7.1302,-7.1201,-7.1279,-7.1279,-7.1356,-7.1487,-7.1531,-7.1591,-7.1672,-7.1814,-7.1915,-7.199,-7.1992,-7.1992,-7.1992,-7.1992,-7.1992,-7.1992,-7.1988,-7.1984,-7.1989,-7.201,-7.1987,-7.1987,-7.1987,-7.1976,-7.1862,-7.1854,-7.1854,-7.1854,-7.1601,-7.1481,-7.1458,-7.1175,-7.1954,-7.3613,-7.3342,-7.4183,0.0,0.0,0.0,0.0,0.0,0.0,0.0,0.0,0.0,0.0,-6.0974,-6.2937,-6.2936,-6.2925,-6.2925,-6.2925,-6.2925,-6.2925,-6.2925,-6.3158,-6.3268,-6.3268,-6.3231,-6.3501,-6.4345,-6.4382,-6.4678,-6.5345,-6.5645,-6.5729,-6.571,-6.5969,-6.6319,-6.6817,-6.7127,-6.7521,-6.7883,-6.7883,-6.7883,-6.7921,-6.8794,-6.9796,-7.0898,-7.0898,-7.0719,-7.04,-7.04,-7.02,-6.9887,-6.9887,-7.0099,-7.04,-7.04,-7.0593,-7.0898,-7.0898,-7.0898,-7.0925,-7.0925,-7.0952,-7.103,-7.103,-7.1056,-7.113,-7.113,-7.113,-7.1154,-7.1201,-7.1224,-7.1263,-7.1485,-7.151,-7.1571,-7.1688,-7.1533,-7.1396,-7.1507,-7.151,-7.159,-7.17,-7.1753,-7.1778,-7.1797,-7.194,-7.1992,-7.1992,-7.1992,-7.1992,-7.1992,-7.1991,-7.199,-7.199,-7.2014,-7.2002,-7.2014,-7.2002,-7.1982,-7.1969,-7.1969,-7.1862,-7.1677,-7.1653,-7.1602,-7.1602,-7.1513,-7.1358,-7.1214,-7.117,-7.1954,-7.3514,-7.3351,-7.4144,0.0,0.0,0.0,0.0,0.0,0.0,0.0,0.0,0.0,0.0,-6.127,-6.3484,-6.3521,-6.3464,-6.3453,-6.3453,-6.3453,-6.3453,-6.3453,-6.349,-6.3574,-6.3574,-6.3342,-6.3279,-6.3567,-6.3567,-6.365,-6.3891,-6.4214,-6.4766,-6.5436,-6.5801,-6.6518,-6.7621,-6.7687,-6.7914,-6.8317,-6.8345,-6.8345,-6.8345,-6.919,-7.0063,-7.0898,-7.0898,-7.0871,-7.0805,-7.0805,-7.0777,-7.0748,-7.0748,-7.0777,-7.0805,-7.0805,-7.0871,-7.0898,-7.0898,-7.0925,-7.0979,-7.0979,-7.103,-7.1081,-7.1081,-7.113,-7.1201,-7.1201,-7.1224,-7.1269,-7.1269,-7.1369,-7.1485,-7.1485,-7.1603,-7.1692,-7.1692,-7.1653,-7.1665,-7.1647,-7.1659,-7.169,-7.1763,-7.1856,-7.1949,-7.1981,-7.1989,-7.1992,-7.1992,-7.1992,-7.1992,-7.1992,-7.1981,-7.1997,-7.1997,-7.201,-7.201,-7.1993,-7.1987,-7.1916,-7.1767,-7.1749,-7.1665,-7.1529,-7.1358,-7.126,-7.126,-7.1239,-7.1236,-7.1214,-7.1042,-7.1811,-7.3514,-7.333,-7.412,0.0,0.0,0.0,0.0,0.0,0.0,0.0,0.0,0.0,-5.8693,-5.9832,-6.1426,-6.3267,-6.3602,-6.3594,-6.3585,-6.3585,-6.3622,-6.3613,-6.3613,-6.3613,-6.3613,-6.3493,-6.3465,-6.3511,-6.3511,-6.361,-6.3878,-6.4087,-6.4441,-6.5011,-6.5159,-6.5631,-6.6376,-6.6407,-6.6595,-6.7013,-6.7013,-6.7244,-6.7667,-6.8552,-6.9398,-7.0244,-7.0706,-7.0898,-7.0898,-7.0898,-7.0898,-7.0898,-7.0898,-7.0898,-7.0898,-7.0898,-7.0925,-7.0952,-7.0952,-7.1005,-7.1056,-7.1056,-7.1106,-7.1154,-7.1154,-7.1201,-7.1247,-7.1247,-7.1269,-7.133,-7.1369,-7.1446,-7.1523,-7.164,-7.1707,-7.1769,-7.186,-7.1856,-7.1862,-7.1861,-7.1804,-7.1777,-7.1901,-7.195,-7.1981,-7.1988,-7.1988,-7.1988,-7.1988,-7.1988,-7.1988,-7.1988,-7.2017,-7.2002,-7.1987,-7.1997,-7.1943,-7.1828,-7.1837,-7.176,-7.1612,-7.1573,-7.1513,-7.1339,-7.1278,-7.1147,-7.1042,-7.1042,-7.1042,-7.1042,-7.0914,-7.1755,-7.338,-7.3231,-7.4089,0.0,0.0,0.0,0.0,0.0,0.0,0.0,0.0,-5.8698,0.0,-5.873,-5.9436,-6.1911,-6.2358,-6.2352,-6.2383,-6.3059,-6.3319,-6.248,-6.2703,-6.2933,-6.2777,-6.3082,-6.3305,-6.3305,-6.3543,-6.3873,-6.4169,-6.4368,-6.4593,-6.4837,-6.4938,-6.5137,-6.5456,-6.5456,-6.5608,-6.5897,-6.5897,-6.6282,-6.709,-6.7744,-6.8629,-6.9706,-7.0321,-7.0706,-7.0898,-7.0898,-7.0898,-7.0925,-7.0925,-7.0925,-7.0952,-7.0952,-7.0979,-7.103,-7.103,-7.1081,-7.113,-7.113,-7.1178,-7.1224,-7.1224,-7.1269,-7.1291,-7.133,-7.133,-7.1369,-7.1485,-7.1562,-7.1601,-7.1777,-7.1823,-7.187,-7.1975,-7.1987,-7.2002,-7.1987,-7.1925,-7.186,-7.1981,-7.1987,-7.1993,-7.201,-7.2014,-7.2014,-7.2014,-7.2014,-7.2014,-7.2014,-7.2014,-7.2006,-7.1987,-7.1937,-7.1854,-7.1704,-7.1653,-7.1587,-7.143,-7.1413,-7.132,-7.1124,-7.1124,-7.1029,-7.0898,-7.0898,-7.0898,-7.0898,-7.0898,-7.1755,-7.3351,-7.3231,-7.4089,0.0,0.0,0.0,0.0,0.0,0.0,0.0,0.0,0.0,-5.8698,-5.8698,-5.8772,-5.8921,-5.8943,-5.8968,-5.8968,-6.1602,-6.2544,-5.9418,-6.0321,-6.1106,-6.0543,-6.1663,-6.245,-6.245,-6.3509,-6.4169,-6.4209,-6.4841,-6.5238,-6.5268,-6.5635,-6.5872,-6.5872,-6.5872,-6.5897,-6.5897,-6.5897,-6.6282,-6.709,-6.7128,-6.8052,-6.9706,-6.9744,-7.0167,-7.0898,-7.0898,-7.0925,-7.1005,-7.1005,-7.103,-7.1081,-7.1081,-7.1081,-7.1106,-7.1106,-7.113,-7.1201,-7.1201,-7.1247,-7.1291,-7.1291,-7.1291,-7.133,-7.1446,-7.1485,-7.1523,-7.164,-7.1739,-7.1816,-7.1816,-7.1872,-7.199,-7.1991,-7.1986,-7.2014,-7.1992,-7.199,-7.1992,-7.2002,-7.1987,-7.1987,-7.1987,-7.1987,-7.1987,-7.1987,-7.1987,-7.1987,-7.1987,-7.1987,-7.1987,-7.1987,-7.1846,-7.1711,-7.17,-7.1587,-7.1413,-7.1257,-7.1236,-7.1124,-7.0925,-7.0925,-7.0925,-7.0898,-7.0898,-7.0898,-7.0898,-7.0898,-7.1783,-7.3486,-7.33,-7.412,0.0,0.0,0.0,0.0,0.0,0.0,0.0,-5.7189,-5.8676,-5.8713,-5.8706,-5.8698,-5.8698,-5.873,-5.8683,-5.8677,-5.969,-6.0067,-5.8894,-5.919,-5.9795,-6.0246,-6.1288,-6.2167,-6.2653,-6.3351,-6.4062,-6.4837,-6.5175,-6.5427,-6.5663,-6.5808,-6.5897,-6.5897,-6.5897,-6.5897,-6.5897,-6.5897,-6.6051,-6.632,-6.6859,-6.7436,-6.8052,-6.9206,-6.986,-7.0167,-7.0721,-7.0979,-7.1005,-7.1005,-7.103,-7.1106,-7.1106,-7.113,-7.1178,-7.1178,-7.1201,-7.1269,-7.1269,-7.1269,-7.1291,-7.1407,-7.1407,-7.1446,-7.1562,-7.1648,-7.1669,-7.1725,-7.1777,-7.1824,-7.1916,-7.1971,-7.1992,-7.1992,-7.1981,-7.1993,-7.201,-7.1981,-7.1984,-7.1993,-7.1987,-7.1987,-7.1987,-7.1987,-7.1987,-7.1987,-7.1987,-7.1987,-7.1987,-7.1987,-7.193,-7.1807,-7.1721,-7.1602,-7.1392,-7.1339,-7.1197,-7.1017,-7.1017,-7.0966,-7.0898,-7.0898,-7.0898,-7.0898,-7.1437,-7.1745,-7.1745,-7.1745,-7.2601,-7.4196,-7.4106,-7.4625,0.0,0.0,0.0,0.0,0.0,0.0,0.0,0.0,-5.6029,-5.8273,-5.8713,-5.8702,-5.8702,-5.8698,-5.8693,-5.8688,-5.8688,-5.8683,-5.8677,-5.8879,-5.9264,-5.9868,-6.0866,-6.1694,-6.2222,-6.311,-6.4019,-6.481,-6.5273,-6.5635,-6.5897,-6.5897,-6.5897,-6.5897,-6.5897,-6.5897,-6.5897,-6.5897,-6.5897,-6.5897,-6.6436,-6.6821,-6.7128,-6.859,-6.9436,-6.9744,-7.0632,-7.1005,-7.103,-7.1056,-7.1106,-7.1178,-7.1178,-7.1201,-7.1247,-7.1247,-7.1269,-7.1291,-7.1291,-7.133,-7.1369,-7.1446,-7.1513,-7.1609,-7.1704,-7.1726,-7.1753,-7.1846,-7.1885,-7.1887,-7.1984,-7.199,-7.1988,-7.1988,-7.201,-7.1987,-7.1987,-7.2002,-7.2006,-7.1993,-7.1987,-7.1987,-7.1987,-7.1987,-7.1987,-7.1987,-7.1987,-7.2099,-7.2307,-7.2073,-7.1924,-7.2043,-7.1743,-7.1442,-7.1197,-7.1147,-7.1067,-7.0898,-7.0898,-7.0898,-7.0898,-7.1168,-7.1321,-7.1321,-7.2206,-7.2783,-7.3053,-7.2783,-7.3332,-7.4589,-7.4528,-7.4894,0.0,0.0,0.0,0.0,0.0,0.0,0.0,0.0,-5.0602,-5.7192,-5.8572,-5.8598,-5.8673,-5.8702,-5.8698,-5.8698,-5.8735,-5.8777,-5.8739,-5.9324,-5.9665,-5.9253,-6.0289,-6.0984,-6.1022,-6.2788,-6.3962,-6.4,-6.5164,-6.5859,-6.5897,-6.5897,-6.5897,-6.5897,-6.5897,-6.5897,-6.5897,-6.5897,-6.5897,-6.5897,-6.5897,-6.632,-6.709,-6.7975,-6.8859,-6.9706,-7.0632,-7.103,-7.1106,-7.1178,-7.1247,-7.1291,-7.1291,-7.1291,-7.1291,-7.1291,-7.1291,-7.1291,-7.1291,-7.1369,-7.1485,-7.1485,-7.1603,-7.1731,-7.1766,-7.1799,-7.1822,-7.1967,-7.1992,-7.1992,-7.1992,-7.1981,-7.1987,-7.1987,-7.1987,-7.1987,-7.1987,-7.1987,-7.1987,-7.1987,-7.1987,-7.1987,-7.1987,-7.1987,-7.2026,-7.2026,-7.2026,-7.2275,-7.2958,-7.2284,-7.2043,-7.2647,-7.1843,-7.1253,-7.1291,-7.1056,-7.0937,-7.0937,-7.0898,-7.0898,-7.0937,-7.1745,-7.2206,-7.2245,-7.3091,-7.3937,-7.4707,-7.3937,-7.3947,-7.4627,-7.4627,-7.4996,-3.2857,0.0,0.0,0.0,0.0,0.0,0.0,0.0,-4.7222,-5.3788,-5.5137,-5.5882,-5.8234,-5.8713,-5.8706,-5.8706,-5.9547,-6.0116,-5.9769,-5.9874,-5.9904,-5.9677,-6.0159,-6.0751,-6.1323,-6.2115,-6.3118,0.0,-6.477,-6.5243,-6.5859,-6.5897,-6.5897,-6.5897,-6.5897,-6.5897,-6.5897,-6.5897,-6.5897,-6.5897,-6.5897,-6.6013,-6.6282,-6.7744,-6.8552,-6.8859,-7.0414,-7.1081,-7.1106,-7.1178,-7.1247,-7.1291,-7.1291,-7.1291,-7.1291,-7.1291,-7.1369,-7.1446,-7.1446,-7.1523,-7.164,-7.1678,-7.1725,-7.1797,-7.1924,-7.1937,-7.1953,-7.199,-7.1992,-7.1991,-7.2014,-7.1997,-7.1987,-7.1987,-7.1987,-7.1987,-7.1987,-7.1987,-7.1987,-7.1987,-7.1987,-7.1987,-7.1987,-7.1987,-7.2221,-7.2846,-7.2924,-7.3172,-7.3854,-7.3715,-7.3547,-7.3431,-7.317,-7.2978,-7.288,-7.2223,-7.1822,-7.1822,-7.1245,-7.1168,-7.1822,-7.2052,-7.2514,-7.3129,-7.3937,-7.4476,-7.4707,-7.4476,-7.4822,-7.5601,-7.5442,-7.5436,-3.4568,0.0,0.0,0.0,0.0,0.0,-3.7934,-3.9626,-4.3061,0.0,-4.9856,-5.2345,-5.4242,-5.573,-5.6776,-5.7191,-5.8683,-5.9839,-5.9836,-6.0178,-6.0297,-6.003,-6.0293,-6.0674,-6.1172,-6.1747,-6.2512,-6.3474,-6.3858,-6.4436,-6.532,-6.5705,-6.5897,-6.5897,-6.5897,-6.5897,-6.5897,-6.5897,-6.5897,-6.5897,-6.5897,-6.5897,-6.5936,-6.7244,-6.8078,-6.8527,-6.9976,-7.0821,-7.1154,-7.1224,-7.1269,-7.1291,-7.1291,-7.133,-7.1369,-7.1369,-7.1446,-7.1605,-7.1571,-7.1649,-7.1777,-7.1816,-7.184,-7.1895,-7.1981,-7.1992,-7.1992,-7.1992,-7.1992,-7.1991,-7.2002,-7.1987,-7.1987,-7.1987,-7.1987,-7.1987,-7.1987,-7.1987,-7.1987,-7.1987,-7.1987,-7.1987,-7.1987,-7.23,-7.2729,-7.3236,-7.3524,-7.3973,-7.4625,-7.432,-7.4072,-7.4088,-7.3832,-7.3562,-7.3514,-7.3014,-7.2591,-7.2206,-7.2052,-7.2052,-7.2168,-7.286,-7.3476,-7.4014,-7.4822,-7.5245,-7.5245,-7.5245,-7.5485,-7.5955,-7.5731,-7.5599,-3.708,-3.7225,0.0,-3.5279,-3.5271,0.0,-3.4816,-3.7307,-3.9638,0.0,-4.4288,-4.8301,-4.8011,-5.0786,-5.3381,-5.4276,-5.6512,-5.8413,-5.9317,-6.019,-6.0693,-6.0387,-6.0597,-6.0781,-6.0781,-6.1512,-6.1973,-6.2089,-6.2858,-6.3628,-6.4397,-6.5282,-6.5743,-6.5743,-6.5859,-6.5897,-6.5897,-6.5897,-6.5897,-6.5897,-6.5897,-6.5897,-6.5936,-6.6744,-6.7603,-6.8564,-6.95,-7.0382,-7.1201,-7.1269,-7.1291,-7.1291,-7.1291,-7.1369,-7.1485,-7.1485,-7.1562,-7.1704,-7.1729,-7.1762,-7.1843,-7.1843,-7.1905,-7.1992,-7.1992,-7.1992,-7.1992,-7.1992,-7.1992,-7.1991,-7.2006,-7.1993,-7.1987,-7.1987,-7.1987,-7.1987,-7.1987,-7.1987,-7.2026,-7.2143,-7.2065,-7.2026,-7.2143,-7.2807,-7.3348,-7.3537,-7.406,-7.4678,-7.531,-7.4573,-7.419,-7.4774,-7.4207,-7.3783,-7.3783,-7.3707,-7.3322,-7.2514,-7.3129,-7.3206,-7.2514,-7.3899,-7.4745,-7.4861,-7.563,-7.6015,-7.6015,-7.6015,-7.5955,-7.5864,-7.5638,-7.557,-3.8284,-4.0548,-4.2099,-4.2098,0.0,0.0,-3.8773,-4.0704,-4.3044,0.0,-4.4074,-4.4383,-4.2502,-4.5677,-4.8792,-4.9532,-5.3138,-5.6687,-5.9153,-6.0213,-6.0786,-6.071,-6.0757,-6.0781,-6.0781,-6.0935,-6.132,-6.205,-6.2858,-6.3358,-6.3551,-6.4397,-6.4859,-6.4859,-6.5513,-6.5897,-6.5897,-6.5897,-6.5897,-6.5897,-6.5897,-6.5897,-6.5936,-6.6744,-6.7603,-6.8564,-6.95,-7.0382,-7.1201,-7.1269,-7.1291,-7.1291,-7.1291,-7.1369,-7.1485,-7.1485,-7.1601,-7.1777,-7.1784,-7.1862,-7.1967,-7.1967,-7.1984,-7.1992,-7.1992,-7.1992,-7.1992,-7.1992,-7.1992,-7.1991,-7.1981,-7.2002,-7.1987,-7.1987,-7.1987,-7.1987,-7.1987,-7.1987,-7.2221,-7.2924,-7.2495,-7.2221,-7.2924,-7.3197,-7.3726,-7.4977,-7.5257,-7.5546,-7.6066,-7.5918,-7.5799,-7.5736,-7.563,-7.5515,-7.5515,-7.4861,-7.4399,-7.4207,-7.3783,-7.3707,-7.4207,-7.4553,-7.5014,-7.5745,-7.5899,-7.6015,-7.6015,-7.6015,-7.5917,-7.5763,-7.5699,-7.5633,-4.3757,-4.5221,-4.6844,-4.8491,0.0,0.0,0.0,-4.5105,-4.1549,-4.1555,-4.1933,-4.192,-4.0754,-4.3114,-4.5861,-4.7756,-5.1395,-5.4417,-5.5647,-5.7956,-5.955,-5.955,-5.9896,-6.0165,-6.0165,-6.055,-6.0973,-6.1396,-6.2243,-6.2704,-6.2704,-6.3897,-6.4589,-6.4589,-6.5436,-6.5897,-6.5897,-6.5897,-6.5923,-6.5947,-6.5947,-6.5972,-6.5958,-6.6381,-6.7061,-6.7981,-6.8915,-6.981,-7.0628,-7.1137,-7.1291,-7.1291,-7.1369,-7.1485,-7.1601,-7.164,-7.1758,-7.1895,-7.1895,-7.1937,-7.1992,-7.1992,-7.1992,-7.1992,-7.1992,-7.1992,-7.1992,-7.1992,-7.1992,-7.1992,-7.199,-7.2014,-7.1987,-7.1987,-7.1987,-7.2104,-7.2534,-7.2651,-7.2885,-7.3744,-7.3549,-7.3393,-7.3822,-7.4251,-7.4825,-7.5569,-7.598,-7.626,-7.642,-7.635,-7.6224,-7.6005,-7.6015,-7.6015,-7.6015,-7.5592,-7.5168,-7.4745,-7.4745,-7.4745,-7.4707,-7.513,-7.5553,-7.5976,-7.6015,-7.6015,-7.6015,-7.6015,-7.5887,-7.5692,-7.5699,-7.5599,0.0,0.0,-4.9529,0.0,0.0,-4.7947,0.0,0.0,0.0,-4.0349,-4.2018,0.0,0.0,0.0,0.0,-4.6684,0.0,0.0,0.0,-5.4534,0.0,-5.7533,-5.8457,-5.9034,-5.9034,-5.9534,-6.0111,-6.0766,-6.1035,-6.1343,-6.182,-6.3281,-6.4205,-6.4359,-6.5205,-6.5743,-6.5923,-6.5923,-6.5947,-6.5982,-6.5982,-6.6005,-6.6013,-6.6013,-6.6576,-6.7686,-6.8381,-6.9275,-7.0286,-7.1021,-7.133,-7.133,-7.1446,-7.1588,-7.1726,-7.176,-7.1874,-7.1992,-7.1992,-7.1992,-7.1992,-7.1992,-7.1992,-7.1992,-7.1992,-7.1992,-7.1992,-7.1992,-7.1992,-7.1992,-7.1992,-7.2101,-7.2266,-7.226,-7.226,-7.2495,-7.3354,-7.3393,-7.3588,-7.4564,-7.4759,-7.4759,-7.4759,-7.5345,-7.5852,-7.595,-7.642,-7.6713,-7.6552,-7.6372,-7.6173,-7.6005,-7.6015,-7.6015,-7.6015,-7.6015,-7.5707,-7.4976,-7.563,-7.5668,-7.4976,-7.563,-7.6015,-7.6015,-7.6015,-7.6015,-7.6015,-7.6015,-7.5887,-7.5692,-7.5666,-7.5566,0.0,0.0,0.0,0.0,-5.1931,0.0,0.0,0.0,-4.4842,-4.4857,0.0,0.0,0.0,0.0,0.0,0.0,0.0,0.0,-4.8634,-5.0408,-5.2473,-5.4747,-5.6403,-5.7366,-5.7369,-5.6811,-5.7677,-6.068,-5.8886,-5.8633,-6.0819,-6.1858,-6.2704,-6.3435,-6.4282,-6.5153,-6.5996,-6.5996,-6.5982,-6.599,-6.599,-6.599,-6.6013,-6.6013,-6.6923,-6.8536,-6.8651,-6.9623,-7.1175,-7.1253,-7.1369,-7.1485,-7.1485,-7.1568,-7.1706,-7.1785,-7.1874,-7.1992,-7.1992,-7.1992,-7.1992,-7.1992,-7.1992,-7.1992,-7.1992,-7.1992,-7.1992,-7.1992,-7.1992,-7.1992,-7.1992,-7.2574,-7.3146,-7.3164,-7.3158,-7.3354,-7.4173,-7.3783,-7.3783,-7.5345,-7.5657,-7.5657,-7.5657,-7.5735,-7.5989,-7.6604,-7.6636,-7.6534,-7.635,-7.6186,-7.6005,-7.6015,-7.6015,-7.6015,-7.6015,-7.6015,-7.5976,-7.5861,-7.5938,-7.5976,-7.5861,-7.5938,-7.6015,-7.6015,-7.6015,-7.6015,-7.6015,-7.6015,-7.5887,-7.5692,-7.5692,-7.5633,0.0,0.0,0.0,0.0,0.0,0.0,-4.4756,0.0,-4.5607,0.0,0.0,0.0,0.0,0.0,0.0,0.0,-4.5959,0.0,0.0,0.0,-4.9521,-5.2067,0.0,0.0,-5.5538,-5.5808,-5.6695,-5.8564,-5.7716,-5.8004,-6.0046,-6.1434,-6.2551,-6.3376,-6.4263,-6.5134,-6.5967,-6.6005,-6.6013,-6.6058,-6.6058,-6.608,-6.6123,-6.6123,-6.6509,-6.7304,-6.8309,-6.9181,-6.9938,-7.0905,-7.1369,-7.1528,-7.1603,-7.1692,-7.1792,-7.1883,-7.1953,-7.1992,-7.1992,-7.1992,-7.1992,-7.1992,-7.1992,-7.1992,-7.1992,-7.1992,-7.1992,-7.1992,-7.1992,-7.1992,-7.1992,-7.2655,-7.3314,-7.3281,-7.3705,-7.4251,-7.5071,-7.4993,-7.511,-7.632,-7.6555,-7.6555,-7.6555,-7.6555,-7.6666,-7.6942,-7.6843,-7.6653,-7.6478,-7.6281,-7.6133,-7.6005,-7.6015,-7.6015,-7.6015,-7.6015,-7.6015,-7.6015,-7.6015,-7.6015,-7.6015,-7.6015,-7.6015,-7.6015,-7.6015,-7.6015,-7.6015,-7.6015,-7.5955,-7.5794,-7.5794,-7.5699,-5.469,0.0,0.0,0.0,0.0,0.0,0.0,0.0,0.0,0.0,0.0,0.0,0.0,0.0,-4.6046,-4.5374,0.0,-4.6298,-4.5104,-4.5742,0.0,0.0,0.0,0.0,0.0,-5.3896,-5.4573,-5.631,-5.5808,-5.656,-5.9223,-6.0496,-6.1769,-6.3119,-6.4007,-6.4855,-6.5688,-6.592,-6.6058,-6.6123,-6.6123,-6.6144,-6.6185,-6.6185,-6.634,-6.665,-6.8158,-6.8932,-6.9241,-7.0711,-7.1407,-7.1567,-7.1679,-7.1762,-7.1881,-7.1948,-7.1992,-7.1992,-7.1992,-7.1992,-7.1992,-7.1992,-7.1992,-7.1992,-7.1992,-7.2187,-7.2305,-7.207,-7.2344,-7.2656,-7.2422,-7.3164,-7.4023,-7.4006,-7.4501,-7.5199,-7.5969,-7.5969,-7.6047,-7.6945,-7.7101,-7.7101,-7.7101,-7.7101,-7.7101,-7.7101,-7.6887,-7.6713,-7.6588,-7.6372,-7.6186,-7.6005,-7.6015,-7.6015,-7.6015,-7.6015,-7.6015,-7.6015,-7.6015,-7.6015,-7.6015,-7.6015,-7.6015,-7.6015,-7.6015,-7.6015,-7.6015,-7.6015,-7.5985,-7.5925,-7.5895,-7.5801,0.0,0.0,0.0,-5.7862,0.0,0.0,0.0,0.0,-4.4787,0.0,0.0,-5.024,-4.8609,-4.785,-4.7361,-4.7076,-4.6341,0.0,0.0,0.0,0.0,0.0,0.0,0.0,0.0,-5.0055,-5.0333,-5.4473,-5.2485,-5.324,-5.8181,-5.849,-5.9686,-6.2155,-6.3081,-6.399,-6.4943,-6.5715,-6.6123,-6.6185,-6.6185,-6.6185,-6.6185,-6.6185,-6.665,-6.7501,-6.8429,-6.9241,-7.0015,-7.0943,-7.1446,-7.1704,-7.1718,-7.1801,-7.1998,-7.1987,-7.1992,-7.1992,-7.1992,-7.1992,-7.1992,-7.1992,-7.1992,-7.1992,-7.1992,-7.2578,-7.3086,-7.2226,-7.3203,-7.4336,-7.3476,-7.4531,-7.582,-7.582,-7.5856,-7.6075,-7.6873,-7.6399,-7.6047,-7.6945,-7.7101,-7.7101,-7.7101,-7.7101,-7.7101,-7.7101,-7.6819,-7.6588,-7.6609,-7.6273,-7.6015,-7.6015,-7.6015,-7.6015,-7.6015,-7.6015,-7.6015,-7.6015,-7.6015,-7.6015,-7.6015,-7.6015,-7.6015,-7.6015,-7.6015,-7.6015,-7.6015,-7.6015,-7.6015,-7.6015,-7.5925,-7.5801,0.0,0.0,-5.4044,-5.5172,0.0,0.0,0.0,0.0,0.0,0.0,0.0,-5.0735,-5.0162,-4.8987,-4.7889,-4.7192,-4.6844,-4.6071,0.0,-4.3401,0.0,0.0,0.0,0.0,0.0,0.0,-4.9243,-5.1222,-5.1625,0.0,-5.6616,-5.8433,-6.0017,-6.1447,-6.2336,-6.3477,-6.4966,-6.5237,-6.5662,-6.6185,-6.6185,-6.6185,-6.6185,-6.6185,-6.6379,-6.6727,-6.8158,-6.897,-6.9378,-7.0827,-7.1562,-7.1777,-7.1766,-7.1874,-7.2002,-7.1988,-7.1992,-7.1992,-7.1992,-7.1992,-7.1992,-7.1992,-7.1992,-7.1992,-7.1992,-7.2617,-7.3242,-7.293,-7.3711,-7.4531,-7.4258,-7.5039,-7.5898,-7.5898,-7.6328,-7.6833,-7.7055,-7.6883,-7.675,-7.7023,-7.7101,-7.7101,-7.7101,-7.6981,-7.6897,-7.6897,-7.6713,-7.6573,-7.6436,-7.6186,-7.6015,-7.6015,-7.6015,-7.6015,-7.6015,-7.6015,-7.6015,-7.6015,-7.6015,-7.6015,-7.6015,-7.6015,-7.6015,-7.6015,-7.6015,-7.6015,-7.6015,-7.6015,-7.6015,-7.6015,-7.5925,-7.5833,-5.8676,-5.7138,0.0,-5.5548,-5.1996,0.0,-4.6135,0.0,-4.872,0.0,0.0,-5.1393,-5.3027,-5.0883,-4.8778,-4.8508,-4.7695,-4.6225,0.0,-4.3092,0.0,0.0,0.0,0.0,0.0,-4.6573,-4.7657,-4.9126,-5.0248,0.0,0.0,-5.7753,-5.9493,-6.0654,-6.1814,-6.3091,-6.4522,-6.4831,-6.5412,-6.6185,-6.6185,-6.6185,-6.6185,-6.6185,-6.6224,-6.6379,-6.8081,-6.8893,-6.9108,-7.0854,-7.1669,-7.1816,-7.1816,-7.1862,-7.1992,-7.1992,-7.1992,-7.1992,-7.1992,-7.1992,-7.1992,-7.1992,-7.2226,-7.2461,-7.2461,-7.3281,-7.414,-7.3867,-7.4609,-7.5469,-7.5156,-7.5703,-7.6367,-7.6367,-7.6797,-7.7187,-7.7145,-7.7126,-7.7101,-7.7101,-7.7101,-7.7101,-7.7101,-7.6917,-7.6804,-7.6804,-7.6638,-7.6457,-7.6305,-7.6133,-7.6015,-7.6015,-7.6015,-7.6015,-7.6015,-7.6015,-7.6015,-7.6015,-7.6015,-7.6015,-7.6015,-7.6015,-7.6015,-7.6015,-7.6015,-7.6015,-7.6015,-7.6015,-7.6015,-7.6015,-7.5856,-7.5794]}]]